<?xml version="1.0" encoding="UTF-8" standalone="no" ?>
<gpx xmlns="http://www.topografix.com/GPX/1/1" xmlns:xsi="http://www.w3.org/2001/XMLSchema-instance" xsi:schemaLocation="http://www.topografix.com/GPX/1/1 http://www.topografix.com/GPX/1/1/gpx.xsd" version="1.1" creator="VisuGPX - https://www.visugpx.com">
  <metadata>
    <name>2022-10-23 12:02:05 courbouzon 2</name>
  </metadata>
  <trk>
    <name><![CDATA[2022-10-23 12:02:05]]></name>
    <trkseg>
      <trkpt lat="46.65388" lon="5.52958">
        <ele>256.71</ele>
        <time>2022-10-23T05:59:10Z</time>
      </trkpt>
      <trkpt lat="46.65388" lon="5.52958">
        <ele>256.71</ele>
        <time>2022-10-23T05:59:11Z</time>
      </trkpt>
      <trkpt lat="46.65388" lon="5.52958">
        <ele>256.71</ele>
        <time>2022-10-23T05:59:12Z</time>
      </trkpt>
      <trkpt lat="46.65387" lon="5.52958">
        <ele>256.61</ele>
        <time>2022-10-23T05:59:52Z</time>
      </trkpt>
      <trkpt lat="46.6539" lon="5.52957">
        <ele>257.33</ele>
        <time>2022-10-23T06:00:43Z</time>
      </trkpt>
      <trkpt lat="46.65391" lon="5.52958">
        <ele>257.22</ele>
        <time>2022-10-23T06:01:30Z</time>
      </trkpt>
      <trkpt lat="46.65414" lon="5.52968">
        <ele>257.18</ele>
        <time>2022-10-23T06:01:51Z</time>
      </trkpt>
      <trkpt lat="46.65442" lon="5.52979">
        <ele>258.24</ele>
        <time>2022-10-23T06:02:15Z</time>
      </trkpt>
      <trkpt lat="46.6546" lon="5.53">
        <ele>258.88</ele>
        <time>2022-10-23T06:02:35Z</time>
      </trkpt>
      <trkpt lat="46.6548" lon="5.53038">
        <ele>258.84</ele>
        <time>2022-10-23T06:03:01Z</time>
      </trkpt>
      <trkpt lat="46.65497" lon="5.53069">
        <ele>260.42</ele>
        <time>2022-10-23T06:03:23Z</time>
      </trkpt>
      <trkpt lat="46.65516" lon="5.53066">
        <ele>262.91</ele>
        <time>2022-10-23T06:03:40Z</time>
      </trkpt>
      <trkpt lat="46.65535" lon="5.53026">
        <ele>262.79</ele>
        <time>2022-10-23T06:04:07Z</time>
      </trkpt>
      <trkpt lat="46.65558" lon="5.52992">
        <ele>262.67</ele>
        <time>2022-10-23T06:04:31Z</time>
      </trkpt>
      <trkpt lat="46.65584" lon="5.52972">
        <ele>262.55</ele>
        <time>2022-10-23T06:04:53Z</time>
      </trkpt>
      <trkpt lat="46.65592" lon="5.5297">
        <ele>262.51</ele>
        <time>2022-10-23T06:04:59Z</time>
      </trkpt>
      <trkpt lat="46.65611" lon="5.52965">
        <ele>262.4</ele>
        <time>2022-10-23T06:05:16Z</time>
      </trkpt>
      <trkpt lat="46.65615" lon="5.52964">
        <ele>262.39</ele>
        <time>2022-10-23T06:05:19Z</time>
      </trkpt>
      <trkpt lat="46.65616" lon="5.52964">
        <ele>255.76</ele>
        <time>2022-10-23T06:05:20Z</time>
      </trkpt>
      <trkpt lat="46.65617" lon="5.52964">
        <ele>262</ele>
        <time>2022-10-23T06:05:21Z</time>
      </trkpt>
      <trkpt lat="46.65652" lon="5.52961">
        <ele>259.26</ele>
        <time>2022-10-23T06:05:48Z</time>
      </trkpt>
      <trkpt lat="46.65681" lon="5.52955">
        <ele>259.14</ele>
        <time>2022-10-23T06:06:11Z</time>
      </trkpt>
      <trkpt lat="46.65696" lon="5.5295">
        <ele>261.45</ele>
        <time>2022-10-23T06:06:23Z</time>
      </trkpt>
      <trkpt lat="46.65723" lon="5.5294">
        <ele>261.32</ele>
        <time>2022-10-23T06:06:45Z</time>
      </trkpt>
      <trkpt lat="46.65751" lon="5.52927">
        <ele>262.03</ele>
        <time>2022-10-23T06:07:08Z</time>
      </trkpt>
      <trkpt lat="46.65779" lon="5.52913">
        <ele>263.09</ele>
        <time>2022-10-23T06:07:31Z</time>
      </trkpt>
      <trkpt lat="46.65804" lon="5.52902">
        <ele>262.99</ele>
        <time>2022-10-23T06:07:48Z</time>
      </trkpt>
      <trkpt lat="46.65827" lon="5.52897">
        <ele>262.92</ele>
        <time>2022-10-23T06:08:02Z</time>
      </trkpt>
      <trkpt lat="46.65835" lon="5.52894">
        <ele>262.88</ele>
        <time>2022-10-23T06:08:08Z</time>
      </trkpt>
      <trkpt lat="46.65836" lon="5.52893">
        <ele>262.88</ele>
        <time>2022-10-23T06:08:09Z</time>
      </trkpt>
      <trkpt lat="46.65855" lon="5.52887">
        <ele>262.83</ele>
        <time>2022-10-23T06:08:22Z</time>
      </trkpt>
      <trkpt lat="46.65858" lon="5.52886">
        <ele>260.53</ele>
        <time>2022-10-23T06:08:24Z</time>
      </trkpt>
      <trkpt lat="46.65873" lon="5.52881">
        <ele>259.64</ele>
        <time>2022-10-23T06:08:36Z</time>
      </trkpt>
      <trkpt lat="46.65879" lon="5.52881">
        <ele>259.62</ele>
        <time>2022-10-23T06:08:41Z</time>
      </trkpt>
      <trkpt lat="46.65881" lon="5.5288">
        <ele>259.63</ele>
        <time>2022-10-23T06:08:42Z</time>
      </trkpt>
      <trkpt lat="46.65882" lon="5.52881">
        <ele>259.65</ele>
        <time>2022-10-23T06:08:43Z</time>
      </trkpt>
      <trkpt lat="46.65894" lon="5.52877">
        <ele>259.63</ele>
        <time>2022-10-23T06:08:52Z</time>
      </trkpt>
      <trkpt lat="46.65895" lon="5.52878">
        <ele>259.64</ele>
        <time>2022-10-23T06:08:53Z</time>
      </trkpt>
      <trkpt lat="46.65896" lon="5.52878">
        <ele>259.65</ele>
        <time>2022-10-23T06:08:54Z</time>
      </trkpt>
      <trkpt lat="46.65898" lon="5.52877">
        <ele>259.65</ele>
        <time>2022-10-23T06:08:55Z</time>
      </trkpt>
      <trkpt lat="46.65899" lon="5.52876">
        <ele>259.65</ele>
        <time>2022-10-23T06:08:56Z</time>
      </trkpt>
      <trkpt lat="46.65917" lon="5.5286">
        <ele>259.64</ele>
        <time>2022-10-23T06:09:10Z</time>
      </trkpt>
      <trkpt lat="46.65941" lon="5.52839">
        <ele>259.59</ele>
        <time>2022-10-23T06:09:28Z</time>
      </trkpt>
      <trkpt lat="46.65964" lon="5.52816">
        <ele>259.51</ele>
        <time>2022-10-23T06:09:46Z</time>
      </trkpt>
      <trkpt lat="46.65984" lon="5.52799">
        <ele>259.45</ele>
        <time>2022-10-23T06:10:02Z</time>
      </trkpt>
      <trkpt lat="46.66004" lon="5.52786">
        <ele>259.36</ele>
        <time>2022-10-23T06:10:16Z</time>
      </trkpt>
      <trkpt lat="46.66024" lon="5.52765">
        <ele>259.27</ele>
        <time>2022-10-23T06:10:33Z</time>
      </trkpt>
      <trkpt lat="46.66044" lon="5.52741">
        <ele>259.22</ele>
        <time>2022-10-23T06:10:50Z</time>
      </trkpt>
      <trkpt lat="46.66062" lon="5.52718">
        <ele>259.13</ele>
        <time>2022-10-23T06:11:07Z</time>
      </trkpt>
      <trkpt lat="46.66079" lon="5.5269">
        <ele>259.05</ele>
        <time>2022-10-23T06:11:26Z</time>
      </trkpt>
      <trkpt lat="46.66082" lon="5.52686">
        <ele>261.39</ele>
        <time>2022-10-23T06:11:29Z</time>
      </trkpt>
      <trkpt lat="46.66093" lon="5.52667">
        <ele>261.34</ele>
        <time>2022-10-23T06:11:43Z</time>
      </trkpt>
      <trkpt lat="46.66096" lon="5.5266">
        <ele>261.32</ele>
        <time>2022-10-23T06:11:48Z</time>
      </trkpt>
      <trkpt lat="46.66099" lon="5.52648">
        <ele>261.28</ele>
        <time>2022-10-23T06:11:55Z</time>
      </trkpt>
      <trkpt lat="46.66104" lon="5.52625">
        <ele>261.26</ele>
        <time>2022-10-23T06:12:09Z</time>
      </trkpt>
      <trkpt lat="46.66109" lon="5.52597">
        <ele>261.19</ele>
        <time>2022-10-23T06:12:22Z</time>
      </trkpt>
      <trkpt lat="46.66116" lon="5.52572">
        <ele>261.15</ele>
        <time>2022-10-23T06:12:34Z</time>
      </trkpt>
      <trkpt lat="46.66122" lon="5.52536">
        <ele>258.84</ele>
        <time>2022-10-23T06:12:50Z</time>
      </trkpt>
      <trkpt lat="46.66128" lon="5.52506">
        <ele>258</ele>
        <time>2022-10-23T06:13:04Z</time>
      </trkpt>
      <trkpt lat="46.66132" lon="5.52477">
        <ele>257.21</ele>
        <time>2022-10-23T06:13:17Z</time>
      </trkpt>
      <trkpt lat="46.66138" lon="5.52444">
        <ele>255.4</ele>
        <time>2022-10-23T06:13:34Z</time>
      </trkpt>
      <trkpt lat="46.66138" lon="5.52442">
        <ele>255.4</ele>
        <time>2022-10-23T06:13:35Z</time>
      </trkpt>
      <trkpt lat="46.6614" lon="5.52432">
        <ele>255.4</ele>
        <time>2022-10-23T06:13:40Z</time>
      </trkpt>
      <trkpt lat="46.66147" lon="5.52396">
        <ele>253.52</ele>
        <time>2022-10-23T06:13:57Z</time>
      </trkpt>
      <trkpt lat="46.66147" lon="5.52394">
        <ele>253.51</ele>
        <time>2022-10-23T06:13:58Z</time>
      </trkpt>
      <trkpt lat="46.66147" lon="5.52367">
        <ele>252.49</ele>
        <time>2022-10-23T06:14:10Z</time>
      </trkpt>
      <trkpt lat="46.66143" lon="5.52361">
        <ele>252.49</ele>
        <time>2022-10-23T06:14:14Z</time>
      </trkpt>
      <trkpt lat="46.66142" lon="5.52361">
        <ele>252.51</ele>
        <time>2022-10-23T06:14:15Z</time>
      </trkpt>
      <trkpt lat="46.66141" lon="5.52361">
        <ele>251.37</ele>
        <time>2022-10-23T06:14:16Z</time>
      </trkpt>
      <trkpt lat="46.66139" lon="5.52361">
        <ele>251.33</ele>
        <time>2022-10-23T06:14:17Z</time>
      </trkpt>
      <trkpt lat="46.66138" lon="5.5236">
        <ele>251.35</ele>
        <time>2022-10-23T06:14:18Z</time>
      </trkpt>
      <trkpt lat="46.66137" lon="5.5236">
        <ele>250.58</ele>
        <time>2022-10-23T06:14:19Z</time>
      </trkpt>
      <trkpt lat="46.66135" lon="5.52359">
        <ele>250.57</ele>
        <time>2022-10-23T06:14:20Z</time>
      </trkpt>
      <trkpt lat="46.66119" lon="5.52351">
        <ele>249.74</ele>
        <time>2022-10-23T06:14:31Z</time>
      </trkpt>
      <trkpt lat="46.66104" lon="5.52346">
        <ele>248.09</ele>
        <time>2022-10-23T06:14:43Z</time>
      </trkpt>
      <trkpt lat="46.66098" lon="5.52344">
        <ele>248.06</ele>
        <time>2022-10-23T06:14:48Z</time>
      </trkpt>
      <trkpt lat="46.66096" lon="5.52344">
        <ele>248.06</ele>
        <time>2022-10-23T06:14:49Z</time>
      </trkpt>
      <trkpt lat="46.66095" lon="5.52343">
        <ele>248.05</ele>
        <time>2022-10-23T06:14:50Z</time>
      </trkpt>
      <trkpt lat="46.66093" lon="5.52342">
        <ele>248.05</ele>
        <time>2022-10-23T06:14:51Z</time>
      </trkpt>
      <trkpt lat="46.66092" lon="5.52341">
        <ele>247.24</ele>
        <time>2022-10-23T06:14:52Z</time>
      </trkpt>
      <trkpt lat="46.66089" lon="5.52341">
        <ele>247.25</ele>
        <time>2022-10-23T06:14:53Z</time>
      </trkpt>
      <trkpt lat="46.66087" lon="5.52342">
        <ele>247.24</ele>
        <time>2022-10-23T06:14:54Z</time>
      </trkpt>
      <trkpt lat="46.66085" lon="5.52341">
        <ele>247.24</ele>
        <time>2022-10-23T06:14:55Z</time>
      </trkpt>
      <trkpt lat="46.66083" lon="5.52341">
        <ele>247.22</ele>
        <time>2022-10-23T06:14:56Z</time>
      </trkpt>
      <trkpt lat="46.66082" lon="5.5234">
        <ele>247.21</ele>
        <time>2022-10-23T06:14:57Z</time>
      </trkpt>
      <trkpt lat="46.6608" lon="5.52339">
        <ele>247.21</ele>
        <time>2022-10-23T06:14:58Z</time>
      </trkpt>
      <trkpt lat="46.66064" lon="5.52336">
        <ele>247.08</ele>
        <time>2022-10-23T06:15:09Z</time>
      </trkpt>
      <trkpt lat="46.66049" lon="5.52331">
        <ele>246.12</ele>
        <time>2022-10-23T06:15:19Z</time>
      </trkpt>
      <trkpt lat="46.66046" lon="5.52332">
        <ele>246.11</ele>
        <time>2022-10-23T06:15:20Z</time>
      </trkpt>
      <trkpt lat="46.66044" lon="5.5233">
        <ele>246.11</ele>
        <time>2022-10-23T06:15:22Z</time>
      </trkpt>
      <trkpt lat="46.66041" lon="5.52325">
        <ele>246.05</ele>
        <time>2022-10-23T06:15:28Z</time>
      </trkpt>
      <trkpt lat="46.66041" lon="5.52316">
        <ele>245.99</ele>
        <time>2022-10-23T06:15:35Z</time>
      </trkpt>
      <trkpt lat="46.66045" lon="5.52301">
        <ele>245.9</ele>
        <time>2022-10-23T06:15:46Z</time>
      </trkpt>
      <trkpt lat="46.66053" lon="5.52286">
        <ele>245.85</ele>
        <time>2022-10-23T06:15:54Z</time>
      </trkpt>
      <trkpt lat="46.66063" lon="5.5228">
        <ele>244.92</ele>
        <time>2022-10-23T06:16:06Z</time>
      </trkpt>
      <trkpt lat="46.66067" lon="5.52283">
        <ele>244.9</ele>
        <time>2022-10-23T06:16:11Z</time>
      </trkpt>
      <trkpt lat="46.66077" lon="5.52285">
        <ele>244.82</ele>
        <time>2022-10-23T06:16:27Z</time>
      </trkpt>
      <trkpt lat="46.66081" lon="5.52286">
        <ele>244.79</ele>
        <time>2022-10-23T06:16:32Z</time>
      </trkpt>
      <trkpt lat="46.66082" lon="5.52286">
        <ele>244.78</ele>
        <time>2022-10-23T06:16:33Z</time>
      </trkpt>
      <trkpt lat="46.66093" lon="5.52297">
        <ele>244.74</ele>
        <time>2022-10-23T06:16:46Z</time>
      </trkpt>
      <trkpt lat="46.66101" lon="5.52302">
        <ele>244.72</ele>
        <time>2022-10-23T06:16:54Z</time>
      </trkpt>
      <trkpt lat="46.66102" lon="5.52303">
        <ele>244.73</ele>
        <time>2022-10-23T06:16:55Z</time>
      </trkpt>
      <trkpt lat="46.66104" lon="5.52304">
        <ele>244.71</ele>
        <time>2022-10-23T06:16:56Z</time>
      </trkpt>
      <trkpt lat="46.66106" lon="5.52304">
        <ele>244.7</ele>
        <time>2022-10-23T06:16:57Z</time>
      </trkpt>
      <trkpt lat="46.66107" lon="5.52305">
        <ele>244.69</ele>
        <time>2022-10-23T06:16:58Z</time>
      </trkpt>
      <trkpt lat="46.66108" lon="5.52306">
        <ele>244.69</ele>
        <time>2022-10-23T06:16:59Z</time>
      </trkpt>
      <trkpt lat="46.6611" lon="5.52307">
        <ele>244.69</ele>
        <time>2022-10-23T06:17:00Z</time>
      </trkpt>
      <trkpt lat="46.66111" lon="5.52308">
        <ele>244.69</ele>
        <time>2022-10-23T06:17:01Z</time>
      </trkpt>
      <trkpt lat="46.66123" lon="5.52315">
        <ele>244.64</ele>
        <time>2022-10-23T06:17:15Z</time>
      </trkpt>
      <trkpt lat="46.66125" lon="5.52316">
        <ele>246.91</ele>
        <time>2022-10-23T06:17:17Z</time>
      </trkpt>
      <trkpt lat="46.6613" lon="5.5232">
        <ele>247.73</ele>
        <time>2022-10-23T06:17:22Z</time>
      </trkpt>
      <trkpt lat="46.66131" lon="5.52321">
        <ele>247.73</ele>
        <time>2022-10-23T06:17:23Z</time>
      </trkpt>
      <trkpt lat="46.66141" lon="5.5233">
        <ele>248.44</ele>
        <time>2022-10-23T06:17:35Z</time>
      </trkpt>
      <trkpt lat="46.66163" lon="5.52342">
        <ele>250.68</ele>
        <time>2022-10-23T06:17:56Z</time>
      </trkpt>
      <trkpt lat="46.66158" lon="5.52336">
        <ele>250.49</ele>
        <time>2022-10-23T06:18:15Z</time>
      </trkpt>
      <trkpt lat="46.6616" lon="5.52331">
        <ele>250.37</ele>
        <time>2022-10-23T06:18:34Z</time>
      </trkpt>
      <trkpt lat="46.66162" lon="5.52318">
        <ele>250.37</ele>
        <time>2022-10-23T06:18:45Z</time>
      </trkpt>
      <trkpt lat="46.66166" lon="5.523">
        <ele>247.99</ele>
        <time>2022-10-23T06:18:54Z</time>
      </trkpt>
      <trkpt lat="46.66167" lon="5.52279">
        <ele>247.98</ele>
        <time>2022-10-23T06:19:06Z</time>
      </trkpt>
      <trkpt lat="46.66172" lon="5.52246">
        <ele>247.2</ele>
        <time>2022-10-23T06:19:23Z</time>
      </trkpt>
      <trkpt lat="46.66175" lon="5.5221">
        <ele>245.55</ele>
        <time>2022-10-23T06:19:42Z</time>
      </trkpt>
      <trkpt lat="46.66175" lon="5.52203">
        <ele>245.55</ele>
        <time>2022-10-23T06:19:46Z</time>
      </trkpt>
      <trkpt lat="46.66177" lon="5.52162">
        <ele>245.53</ele>
        <time>2022-10-23T06:20:07Z</time>
      </trkpt>
      <trkpt lat="46.66184" lon="5.52127">
        <ele>245.47</ele>
        <time>2022-10-23T06:20:27Z</time>
      </trkpt>
      <trkpt lat="46.66194" lon="5.52105">
        <ele>245.42</ele>
        <time>2022-10-23T06:20:40Z</time>
      </trkpt>
      <trkpt lat="46.66202" lon="5.52094">
        <ele>245.38</ele>
        <time>2022-10-23T06:20:49Z</time>
      </trkpt>
      <trkpt lat="46.66203" lon="5.52093">
        <ele>245.37</ele>
        <time>2022-10-23T06:20:50Z</time>
      </trkpt>
      <trkpt lat="46.66203" lon="5.52092">
        <ele>245.37</ele>
        <time>2022-10-23T06:20:51Z</time>
      </trkpt>
      <trkpt lat="46.66203" lon="5.5209">
        <ele>245.36</ele>
        <time>2022-10-23T06:20:52Z</time>
      </trkpt>
      <trkpt lat="46.66204" lon="5.52088">
        <ele>245.35</ele>
        <time>2022-10-23T06:20:53Z</time>
      </trkpt>
      <trkpt lat="46.66204" lon="5.52087">
        <ele>245.34</ele>
        <time>2022-10-23T06:20:54Z</time>
      </trkpt>
      <trkpt lat="46.66204" lon="5.52085">
        <ele>245.34</ele>
        <time>2022-10-23T06:20:55Z</time>
      </trkpt>
      <trkpt lat="46.66204" lon="5.52083">
        <ele>245.33</ele>
        <time>2022-10-23T06:20:56Z</time>
      </trkpt>
      <trkpt lat="46.66205" lon="5.52081">
        <ele>245.33</ele>
        <time>2022-10-23T06:20:57Z</time>
      </trkpt>
      <trkpt lat="46.66206" lon="5.52079">
        <ele>245.32</ele>
        <time>2022-10-23T06:20:58Z</time>
      </trkpt>
      <trkpt lat="46.66206" lon="5.52077">
        <ele>245.33</ele>
        <time>2022-10-23T06:20:59Z</time>
      </trkpt>
      <trkpt lat="46.66207" lon="5.52075">
        <ele>245.32</ele>
        <time>2022-10-23T06:21:00Z</time>
      </trkpt>
      <trkpt lat="46.6621" lon="5.52067">
        <ele>245.29</ele>
        <time>2022-10-23T06:21:04Z</time>
      </trkpt>
      <trkpt lat="46.6621" lon="5.52065">
        <ele>245.28</ele>
        <time>2022-10-23T06:21:05Z</time>
      </trkpt>
      <trkpt lat="46.6621" lon="5.52062">
        <ele>245.27</ele>
        <time>2022-10-23T06:21:06Z</time>
      </trkpt>
      <trkpt lat="46.6621" lon="5.5206">
        <ele>245.27</ele>
        <time>2022-10-23T06:21:07Z</time>
      </trkpt>
      <trkpt lat="46.6621" lon="5.52058">
        <ele>245.26</ele>
        <time>2022-10-23T06:21:08Z</time>
      </trkpt>
      <trkpt lat="46.66209" lon="5.52048">
        <ele>245.23</ele>
        <time>2022-10-23T06:21:13Z</time>
      </trkpt>
      <trkpt lat="46.66208" lon="5.52046">
        <ele>245.22</ele>
        <time>2022-10-23T06:21:14Z</time>
      </trkpt>
      <trkpt lat="46.66202" lon="5.5204">
        <ele>245.16</ele>
        <time>2022-10-23T06:21:22Z</time>
      </trkpt>
      <trkpt lat="46.66201" lon="5.52042">
        <ele>245.16</ele>
        <time>2022-10-23T06:21:23Z</time>
      </trkpt>
      <trkpt lat="46.66201" lon="5.52044">
        <ele>245.15</ele>
        <time>2022-10-23T06:21:24Z</time>
      </trkpt>
      <trkpt lat="46.66199" lon="5.52042">
        <ele>245.12</ele>
        <time>2022-10-23T06:21:30Z</time>
      </trkpt>
      <trkpt lat="46.66199" lon="5.5204">
        <ele>245.12</ele>
        <time>2022-10-23T06:21:31Z</time>
      </trkpt>
      <trkpt lat="46.66197" lon="5.52022">
        <ele>244.21</ele>
        <time>2022-10-23T06:21:42Z</time>
      </trkpt>
      <trkpt lat="46.66191" lon="5.52012">
        <ele>244.17</ele>
        <time>2022-10-23T06:21:55Z</time>
      </trkpt>
      <trkpt lat="46.66186" lon="5.51999">
        <ele>244.13</ele>
        <time>2022-10-23T06:22:04Z</time>
      </trkpt>
      <trkpt lat="46.66185" lon="5.51998">
        <ele>244.13</ele>
        <time>2022-10-23T06:22:05Z</time>
      </trkpt>
      <trkpt lat="46.66185" lon="5.51996">
        <ele>244.13</ele>
        <time>2022-10-23T06:22:06Z</time>
      </trkpt>
      <trkpt lat="46.66184" lon="5.51994">
        <ele>244.12</ele>
        <time>2022-10-23T06:22:07Z</time>
      </trkpt>
      <trkpt lat="46.66183" lon="5.51993">
        <ele>244.12</ele>
        <time>2022-10-23T06:22:08Z</time>
      </trkpt>
      <trkpt lat="46.66182" lon="5.51989">
        <ele>244.11</ele>
        <time>2022-10-23T06:22:10Z</time>
      </trkpt>
      <trkpt lat="46.66181" lon="5.51988">
        <ele>244.11</ele>
        <time>2022-10-23T06:22:11Z</time>
      </trkpt>
      <trkpt lat="46.66173" lon="5.51973">
        <ele>244.05</ele>
        <time>2022-10-23T06:22:22Z</time>
      </trkpt>
      <trkpt lat="46.66173" lon="5.51972">
        <ele>244.04</ele>
        <time>2022-10-23T06:22:23Z</time>
      </trkpt>
      <trkpt lat="46.66171" lon="5.51971">
        <ele>244.04</ele>
        <time>2022-10-23T06:22:24Z</time>
      </trkpt>
      <trkpt lat="46.6616" lon="5.5197">
        <ele>243.98</ele>
        <time>2022-10-23T06:22:34Z</time>
      </trkpt>
      <trkpt lat="46.66157" lon="5.5197">
        <ele>243.93</ele>
        <time>2022-10-23T06:22:42Z</time>
      </trkpt>
      <trkpt lat="46.66156" lon="5.5197">
        <ele>243.92</ele>
        <time>2022-10-23T06:22:43Z</time>
      </trkpt>
      <trkpt lat="46.66145" lon="5.51971">
        <ele>243.87</ele>
        <time>2022-10-23T06:22:54Z</time>
      </trkpt>
      <trkpt lat="46.66136" lon="5.51973">
        <ele>243.86</ele>
        <time>2022-10-23T06:23:02Z</time>
      </trkpt>
      <trkpt lat="46.66134" lon="5.51974">
        <ele>243.85</ele>
        <time>2022-10-23T06:23:04Z</time>
      </trkpt>
      <trkpt lat="46.66133" lon="5.51974">
        <ele>243.85</ele>
        <time>2022-10-23T06:23:05Z</time>
      </trkpt>
      <trkpt lat="46.66132" lon="5.51974">
        <ele>243.85</ele>
        <time>2022-10-23T06:23:06Z</time>
      </trkpt>
      <trkpt lat="46.66131" lon="5.51975">
        <ele>243.84</ele>
        <time>2022-10-23T06:23:07Z</time>
      </trkpt>
      <trkpt lat="46.66115" lon="5.51991">
        <ele>243.8</ele>
        <time>2022-10-23T06:23:21Z</time>
      </trkpt>
      <trkpt lat="46.66113" lon="5.51994">
        <ele>243.78</ele>
        <time>2022-10-23T06:23:23Z</time>
      </trkpt>
      <trkpt lat="46.66095" lon="5.52005">
        <ele>243.77</ele>
        <time>2022-10-23T06:23:37Z</time>
      </trkpt>
      <trkpt lat="46.66079" lon="5.52022">
        <ele>243.77</ele>
        <time>2022-10-23T06:23:50Z</time>
      </trkpt>
      <trkpt lat="46.66062" lon="5.52039">
        <ele>243.76</ele>
        <time>2022-10-23T06:24:04Z</time>
      </trkpt>
      <trkpt lat="46.66052" lon="5.52053">
        <ele>243.74</ele>
        <time>2022-10-23T06:24:15Z</time>
      </trkpt>
      <trkpt lat="46.66036" lon="5.52073">
        <ele>243.73</ele>
        <time>2022-10-23T06:24:29Z</time>
      </trkpt>
      <trkpt lat="46.66035" lon="5.52074">
        <ele>243.72</ele>
        <time>2022-10-23T06:24:30Z</time>
      </trkpt>
      <trkpt lat="46.66034" lon="5.52075">
        <ele>243.72</ele>
        <time>2022-10-23T06:24:31Z</time>
      </trkpt>
      <trkpt lat="46.66033" lon="5.52075">
        <ele>243.72</ele>
        <time>2022-10-23T06:24:32Z</time>
      </trkpt>
      <trkpt lat="46.66032" lon="5.52076">
        <ele>243.72</ele>
        <time>2022-10-23T06:24:33Z</time>
      </trkpt>
      <trkpt lat="46.66033" lon="5.52078">
        <ele>243.72</ele>
        <time>2022-10-23T06:24:34Z</time>
      </trkpt>
      <trkpt lat="46.66032" lon="5.52079">
        <ele>243.71</ele>
        <time>2022-10-23T06:24:36Z</time>
      </trkpt>
      <trkpt lat="46.66031" lon="5.5208">
        <ele>243.71</ele>
        <time>2022-10-23T06:24:37Z</time>
      </trkpt>
      <trkpt lat="46.66026" lon="5.52082">
        <ele>243.68</ele>
        <time>2022-10-23T06:24:42Z</time>
      </trkpt>
      <trkpt lat="46.66025" lon="5.52083">
        <ele>243.68</ele>
        <time>2022-10-23T06:24:43Z</time>
      </trkpt>
      <trkpt lat="46.66025" lon="5.52084">
        <ele>243.68</ele>
        <time>2022-10-23T06:24:44Z</time>
      </trkpt>
      <trkpt lat="46.66024" lon="5.52084">
        <ele>243.67</ele>
        <time>2022-10-23T06:24:45Z</time>
      </trkpt>
      <trkpt lat="46.66023" lon="5.52085">
        <ele>243.66</ele>
        <time>2022-10-23T06:24:46Z</time>
      </trkpt>
      <trkpt lat="46.66022" lon="5.52086">
        <ele>243.65</ele>
        <time>2022-10-23T06:24:47Z</time>
      </trkpt>
      <trkpt lat="46.66021" lon="5.52086">
        <ele>243.66</ele>
        <time>2022-10-23T06:24:48Z</time>
      </trkpt>
      <trkpt lat="46.66019" lon="5.52087">
        <ele>243.66</ele>
        <time>2022-10-23T06:24:49Z</time>
      </trkpt>
      <trkpt lat="46.66018" lon="5.52088">
        <ele>243.65</ele>
        <time>2022-10-23T06:24:50Z</time>
      </trkpt>
      <trkpt lat="46.66016" lon="5.52088">
        <ele>243.64</ele>
        <time>2022-10-23T06:24:51Z</time>
      </trkpt>
      <trkpt lat="46.66015" lon="5.52089">
        <ele>243.64</ele>
        <time>2022-10-23T06:24:52Z</time>
      </trkpt>
      <trkpt lat="46.66014" lon="5.5209">
        <ele>243.63</ele>
        <time>2022-10-23T06:24:53Z</time>
      </trkpt>
      <trkpt lat="46.66013" lon="5.52091">
        <ele>243.64</ele>
        <time>2022-10-23T06:24:54Z</time>
      </trkpt>
      <trkpt lat="46.66011" lon="5.52092">
        <ele>243.63</ele>
        <time>2022-10-23T06:24:55Z</time>
      </trkpt>
      <trkpt lat="46.6601" lon="5.52093">
        <ele>243.63</ele>
        <time>2022-10-23T06:24:56Z</time>
      </trkpt>
      <trkpt lat="46.66008" lon="5.52093">
        <ele>243.62</ele>
        <time>2022-10-23T06:24:57Z</time>
      </trkpt>
      <trkpt lat="46.66003" lon="5.52094">
        <ele>243.62</ele>
        <time>2022-10-23T06:25:00Z</time>
      </trkpt>
      <trkpt lat="46.65994" lon="5.52095">
        <ele>243.61</ele>
        <time>2022-10-23T06:25:07Z</time>
      </trkpt>
      <trkpt lat="46.65991" lon="5.52095">
        <ele>243.62</ele>
        <time>2022-10-23T06:25:09Z</time>
      </trkpt>
      <trkpt lat="46.6599" lon="5.52096">
        <ele>243.61</ele>
        <time>2022-10-23T06:25:10Z</time>
      </trkpt>
      <trkpt lat="46.65989" lon="5.52096">
        <ele>243.63</ele>
        <time>2022-10-23T06:25:11Z</time>
      </trkpt>
      <trkpt lat="46.65987" lon="5.52096">
        <ele>245.96</ele>
        <time>2022-10-23T06:25:12Z</time>
      </trkpt>
      <trkpt lat="46.65986" lon="5.52096">
        <ele>245.96</ele>
        <time>2022-10-23T06:25:13Z</time>
      </trkpt>
      <trkpt lat="46.65984" lon="5.52095">
        <ele>245.95</ele>
        <time>2022-10-23T06:25:14Z</time>
      </trkpt>
      <trkpt lat="46.65974" lon="5.52095">
        <ele>245.96</ele>
        <time>2022-10-23T06:25:23Z</time>
      </trkpt>
      <trkpt lat="46.65972" lon="5.52095">
        <ele>245.95</ele>
        <time>2022-10-23T06:25:26Z</time>
      </trkpt>
      <trkpt lat="46.65971" lon="5.52096">
        <ele>245.94</ele>
        <time>2022-10-23T06:25:27Z</time>
      </trkpt>
      <trkpt lat="46.6597" lon="5.52096">
        <ele>245.94</ele>
        <time>2022-10-23T06:25:28Z</time>
      </trkpt>
      <trkpt lat="46.65967" lon="5.52096">
        <ele>246.88</ele>
        <time>2022-10-23T06:25:30Z</time>
      </trkpt>
      <trkpt lat="46.65966" lon="5.52096">
        <ele>246.86</ele>
        <time>2022-10-23T06:25:31Z</time>
      </trkpt>
      <trkpt lat="46.65956" lon="5.52089">
        <ele>247.64</ele>
        <time>2022-10-23T06:25:40Z</time>
      </trkpt>
      <trkpt lat="46.65955" lon="5.52086">
        <ele>247.63</ele>
        <time>2022-10-23T06:25:42Z</time>
      </trkpt>
      <trkpt lat="46.6595" lon="5.52079">
        <ele>248.52</ele>
        <time>2022-10-23T06:25:48Z</time>
      </trkpt>
      <trkpt lat="46.65938" lon="5.52071">
        <ele>249.37</ele>
        <time>2022-10-23T06:25:59Z</time>
      </trkpt>
      <trkpt lat="46.65922" lon="5.5206">
        <ele>251.01</ele>
        <time>2022-10-23T06:26:14Z</time>
      </trkpt>
      <trkpt lat="46.65906" lon="5.52054">
        <ele>251.82</ele>
        <time>2022-10-23T06:26:29Z</time>
      </trkpt>
      <trkpt lat="46.65888" lon="5.52057">
        <ele>253.42</ele>
        <time>2022-10-23T06:26:44Z</time>
      </trkpt>
      <trkpt lat="46.65867" lon="5.52061">
        <ele>254.29</ele>
        <time>2022-10-23T06:26:59Z</time>
      </trkpt>
      <trkpt lat="46.65859" lon="5.5207">
        <ele>254.3</ele>
        <time>2022-10-23T06:27:07Z</time>
      </trkpt>
      <trkpt lat="46.65858" lon="5.52072">
        <ele>254.3</ele>
        <time>2022-10-23T06:27:08Z</time>
      </trkpt>
      <trkpt lat="46.65857" lon="5.52073">
        <ele>254.31</ele>
        <time>2022-10-23T06:27:09Z</time>
      </trkpt>
      <trkpt lat="46.65856" lon="5.52075">
        <ele>254.3</ele>
        <time>2022-10-23T06:27:10Z</time>
      </trkpt>
      <trkpt lat="46.65855" lon="5.52076">
        <ele>254.3</ele>
        <time>2022-10-23T06:27:11Z</time>
      </trkpt>
      <trkpt lat="46.65854" lon="5.52077">
        <ele>254.3</ele>
        <time>2022-10-23T06:27:12Z</time>
      </trkpt>
      <trkpt lat="46.65851" lon="5.5208">
        <ele>254.31</ele>
        <time>2022-10-23T06:27:16Z</time>
      </trkpt>
      <trkpt lat="46.6585" lon="5.52081">
        <ele>254.31</ele>
        <time>2022-10-23T06:27:17Z</time>
      </trkpt>
      <trkpt lat="46.65849" lon="5.52082">
        <ele>254.32</ele>
        <time>2022-10-23T06:27:18Z</time>
      </trkpt>
      <trkpt lat="46.65848" lon="5.52083">
        <ele>254.31</ele>
        <time>2022-10-23T06:27:19Z</time>
      </trkpt>
      <trkpt lat="46.65847" lon="5.52083">
        <ele>254.32</ele>
        <time>2022-10-23T06:27:20Z</time>
      </trkpt>
      <trkpt lat="46.65846" lon="5.52084">
        <ele>254.32</ele>
        <time>2022-10-23T06:27:21Z</time>
      </trkpt>
      <trkpt lat="46.65844" lon="5.52084">
        <ele>254.33</ele>
        <time>2022-10-23T06:27:22Z</time>
      </trkpt>
      <trkpt lat="46.65843" lon="5.52084">
        <ele>254.33</ele>
        <time>2022-10-23T06:27:23Z</time>
      </trkpt>
      <trkpt lat="46.65842" lon="5.52084">
        <ele>254.33</ele>
        <time>2022-10-23T06:27:24Z</time>
      </trkpt>
      <trkpt lat="46.65841" lon="5.52083">
        <ele>254.33</ele>
        <time>2022-10-23T06:27:25Z</time>
      </trkpt>
      <trkpt lat="46.6584" lon="5.52082">
        <ele>254.33</ele>
        <time>2022-10-23T06:27:26Z</time>
      </trkpt>
      <trkpt lat="46.65839" lon="5.52081">
        <ele>254.33</ele>
        <time>2022-10-23T06:27:27Z</time>
      </trkpt>
      <trkpt lat="46.65838" lon="5.52079">
        <ele>254.34</ele>
        <time>2022-10-23T06:27:28Z</time>
      </trkpt>
      <trkpt lat="46.65837" lon="5.52078">
        <ele>254.34</ele>
        <time>2022-10-23T06:27:29Z</time>
      </trkpt>
      <trkpt lat="46.65836" lon="5.52076">
        <ele>254.34</ele>
        <time>2022-10-23T06:27:30Z</time>
      </trkpt>
      <trkpt lat="46.65835" lon="5.52075">
        <ele>254.35</ele>
        <time>2022-10-23T06:27:31Z</time>
      </trkpt>
      <trkpt lat="46.65834" lon="5.52073">
        <ele>254.33</ele>
        <time>2022-10-23T06:27:32Z</time>
      </trkpt>
      <trkpt lat="46.65833" lon="5.52071">
        <ele>254.33</ele>
        <time>2022-10-23T06:27:33Z</time>
      </trkpt>
      <trkpt lat="46.65825" lon="5.52053">
        <ele>255.12</ele>
        <time>2022-10-23T06:27:45Z</time>
      </trkpt>
      <trkpt lat="46.65823" lon="5.5205">
        <ele>255.1</ele>
        <time>2022-10-23T06:27:47Z</time>
      </trkpt>
      <trkpt lat="46.65812" lon="5.52023">
        <ele>256.63</ele>
        <time>2022-10-23T06:28:05Z</time>
      </trkpt>
      <trkpt lat="46.65804" lon="5.52003">
        <ele>258.36</ele>
        <time>2022-10-23T06:28:18Z</time>
      </trkpt>
      <trkpt lat="46.65801" lon="5.51997">
        <ele>259.33</ele>
        <time>2022-10-23T06:28:22Z</time>
      </trkpt>
      <trkpt lat="46.65799" lon="5.51995">
        <ele>259.34</ele>
        <time>2022-10-23T06:28:23Z</time>
      </trkpt>
      <trkpt lat="46.65798" lon="5.51994">
        <ele>259.35</ele>
        <time>2022-10-23T06:28:24Z</time>
      </trkpt>
      <trkpt lat="46.65779" lon="5.51989">
        <ele>261.09</ele>
        <time>2022-10-23T06:28:39Z</time>
      </trkpt>
      <trkpt lat="46.65771" lon="5.51989">
        <ele>261.93</ele>
        <time>2022-10-23T06:28:48Z</time>
      </trkpt>
      <trkpt lat="46.65764" lon="5.51982">
        <ele>262.91</ele>
        <time>2022-10-23T06:29:01Z</time>
      </trkpt>
      <trkpt lat="46.65744" lon="5.51977">
        <ele>262.96</ele>
        <time>2022-10-23T06:29:17Z</time>
      </trkpt>
      <trkpt lat="46.65742" lon="5.51976">
        <ele>262.96</ele>
        <time>2022-10-23T06:29:18Z</time>
      </trkpt>
      <trkpt lat="46.65739" lon="5.51975">
        <ele>262.97</ele>
        <time>2022-10-23T06:29:19Z</time>
      </trkpt>
      <trkpt lat="46.65737" lon="5.51975">
        <ele>262.97</ele>
        <time>2022-10-23T06:29:20Z</time>
      </trkpt>
      <trkpt lat="46.65734" lon="5.51974">
        <ele>262.97</ele>
        <time>2022-10-23T06:29:21Z</time>
      </trkpt>
      <trkpt lat="46.65732" lon="5.51974">
        <ele>262.97</ele>
        <time>2022-10-23T06:29:22Z</time>
      </trkpt>
      <trkpt lat="46.6573" lon="5.51974">
        <ele>262.98</ele>
        <time>2022-10-23T06:29:23Z</time>
      </trkpt>
      <trkpt lat="46.65713" lon="5.51966">
        <ele>263.78</ele>
        <time>2022-10-23T06:29:36Z</time>
      </trkpt>
      <trkpt lat="46.65709" lon="5.51959">
        <ele>264.55</ele>
        <time>2022-10-23T06:29:40Z</time>
      </trkpt>
      <trkpt lat="46.65708" lon="5.51957">
        <ele>264.55</ele>
        <time>2022-10-23T06:29:41Z</time>
      </trkpt>
      <trkpt lat="46.65695" lon="5.51947">
        <ele>266.46</ele>
        <time>2022-10-23T06:29:54Z</time>
      </trkpt>
      <trkpt lat="46.65682" lon="5.51943">
        <ele>269.18</ele>
        <time>2022-10-23T06:30:08Z</time>
      </trkpt>
      <trkpt lat="46.65663" lon="5.51947">
        <ele>270.77</ele>
        <time>2022-10-23T06:30:24Z</time>
      </trkpt>
      <trkpt lat="46.65649" lon="5.51951">
        <ele>273.12</ele>
        <time>2022-10-23T06:30:38Z</time>
      </trkpt>
      <trkpt lat="46.65633" lon="5.51959">
        <ele>275.78</ele>
        <time>2022-10-23T06:30:55Z</time>
      </trkpt>
      <trkpt lat="46.65615" lon="5.51971">
        <ele>277.81</ele>
        <time>2022-10-23T06:31:15Z</time>
      </trkpt>
      <trkpt lat="46.65598" lon="5.51967">
        <ele>280.66</ele>
        <time>2022-10-23T06:31:29Z</time>
      </trkpt>
      <trkpt lat="46.65592" lon="5.51975">
        <ele>284.09</ele>
        <time>2022-10-23T06:31:39Z</time>
      </trkpt>
      <trkpt lat="46.65585" lon="5.5199">
        <ele>285.54</ele>
        <time>2022-10-23T06:31:56Z</time>
      </trkpt>
      <trkpt lat="46.65583" lon="5.51995">
        <ele>286.52</ele>
        <time>2022-10-23T06:32:00Z</time>
      </trkpt>
      <trkpt lat="46.65575" lon="5.52009">
        <ele>288.08</ele>
        <time>2022-10-23T06:32:12Z</time>
      </trkpt>
      <trkpt lat="46.65571" lon="5.52016">
        <ele>288.87</ele>
        <time>2022-10-23T06:32:19Z</time>
      </trkpt>
      <trkpt lat="46.65563" lon="5.52029">
        <ele>292.24</ele>
        <time>2022-10-23T06:32:34Z</time>
      </trkpt>
      <trkpt lat="46.65562" lon="5.5203">
        <ele>292.26</ele>
        <time>2022-10-23T06:32:36Z</time>
      </trkpt>
      <trkpt lat="46.65551" lon="5.52036">
        <ele>295.74</ele>
        <time>2022-10-23T06:32:50Z</time>
      </trkpt>
      <trkpt lat="46.65542" lon="5.52042">
        <ele>298.28</ele>
        <time>2022-10-23T06:33:03Z</time>
      </trkpt>
      <trkpt lat="46.65536" lon="5.52042">
        <ele>301.79</ele>
        <time>2022-10-23T06:33:14Z</time>
      </trkpt>
      <trkpt lat="46.65528" lon="5.52056">
        <ele>304.36</ele>
        <time>2022-10-23T06:33:35Z</time>
      </trkpt>
      <trkpt lat="46.65516" lon="5.52068">
        <ele>306.66</ele>
        <time>2022-10-23T06:33:50Z</time>
      </trkpt>
      <trkpt lat="46.65506" lon="5.52075">
        <ele>310.12</ele>
        <time>2022-10-23T06:34:03Z</time>
      </trkpt>
      <trkpt lat="46.65497" lon="5.52088">
        <ele>310.88</ele>
        <time>2022-10-23T06:34:17Z</time>
      </trkpt>
      <trkpt lat="46.65492" lon="5.52093">
        <ele>312.57</ele>
        <time>2022-10-23T06:34:23Z</time>
      </trkpt>
      <trkpt lat="46.65485" lon="5.52113">
        <ele>314.29</ele>
        <time>2022-10-23T06:34:37Z</time>
      </trkpt>
      <trkpt lat="46.65479" lon="5.52119">
        <ele>315.86</ele>
        <time>2022-10-23T06:34:44Z</time>
      </trkpt>
      <trkpt lat="46.65462" lon="5.52119">
        <ele>317.81</ele>
        <time>2022-10-23T06:35:00Z</time>
      </trkpt>
      <trkpt lat="46.65451" lon="5.52115">
        <ele>319.51</ele>
        <time>2022-10-23T06:35:12Z</time>
      </trkpt>
      <trkpt lat="46.6544" lon="5.52111">
        <ele>320.32</ele>
        <time>2022-10-23T06:35:22Z</time>
      </trkpt>
      <trkpt lat="46.65423" lon="5.52103">
        <ele>322.09</ele>
        <time>2022-10-23T06:35:35Z</time>
      </trkpt>
      <trkpt lat="46.65408" lon="5.52095">
        <ele>322.09</ele>
        <time>2022-10-23T06:35:48Z</time>
      </trkpt>
      <trkpt lat="46.65387" lon="5.52083">
        <ele>323.85</ele>
        <time>2022-10-23T06:36:01Z</time>
      </trkpt>
      <trkpt lat="46.6537" lon="5.5208">
        <ele>323.7</ele>
        <time>2022-10-23T06:36:13Z</time>
      </trkpt>
      <trkpt lat="46.65366" lon="5.52078">
        <ele>324.49</ele>
        <time>2022-10-23T06:36:21Z</time>
      </trkpt>
      <trkpt lat="46.65358" lon="5.52078">
        <ele>325.31</ele>
        <time>2022-10-23T06:36:29Z</time>
      </trkpt>
      <trkpt lat="46.65352" lon="5.5208">
        <ele>328.05</ele>
        <time>2022-10-23T06:36:38Z</time>
      </trkpt>
      <trkpt lat="46.65351" lon="5.52081">
        <ele>328.04</ele>
        <time>2022-10-23T06:36:39Z</time>
      </trkpt>
      <trkpt lat="46.6535" lon="5.52081">
        <ele>328.15</ele>
        <time>2022-10-23T06:36:40Z</time>
      </trkpt>
      <trkpt lat="46.65349" lon="5.52081">
        <ele>328.02</ele>
        <time>2022-10-23T06:36:41Z</time>
      </trkpt>
      <trkpt lat="46.65348" lon="5.52082">
        <ele>328.02</ele>
        <time>2022-10-23T06:36:42Z</time>
      </trkpt>
      <trkpt lat="46.65347" lon="5.52082">
        <ele>328.01</ele>
        <time>2022-10-23T06:36:43Z</time>
      </trkpt>
      <trkpt lat="46.65346" lon="5.52082">
        <ele>328.16</ele>
        <time>2022-10-23T06:36:44Z</time>
      </trkpt>
      <trkpt lat="46.65345" lon="5.52082">
        <ele>328</ele>
        <time>2022-10-23T06:36:45Z</time>
      </trkpt>
      <trkpt lat="46.65341" lon="5.52083">
        <ele>328.78</ele>
        <time>2022-10-23T06:36:48Z</time>
      </trkpt>
      <trkpt lat="46.6534" lon="5.52083">
        <ele>328.77</ele>
        <time>2022-10-23T06:36:49Z</time>
      </trkpt>
      <trkpt lat="46.65339" lon="5.52084">
        <ele>328.88</ele>
        <time>2022-10-23T06:36:50Z</time>
      </trkpt>
      <trkpt lat="46.65335" lon="5.52084">
        <ele>329.61</ele>
        <time>2022-10-23T06:36:54Z</time>
      </trkpt>
      <trkpt lat="46.65334" lon="5.52085">
        <ele>329.61</ele>
        <time>2022-10-23T06:36:55Z</time>
      </trkpt>
      <trkpt lat="46.65333" lon="5.52085">
        <ele>329.6</ele>
        <time>2022-10-23T06:36:56Z</time>
      </trkpt>
      <trkpt lat="46.65332" lon="5.52086">
        <ele>329.59</ele>
        <time>2022-10-23T06:36:57Z</time>
      </trkpt>
      <trkpt lat="46.65319" lon="5.52089">
        <ele>330.36</ele>
        <time>2022-10-23T06:37:08Z</time>
      </trkpt>
      <trkpt lat="46.65318" lon="5.52089">
        <ele>330.3</ele>
        <time>2022-10-23T06:37:09Z</time>
      </trkpt>
      <trkpt lat="46.65316" lon="5.52089">
        <ele>330.3</ele>
        <time>2022-10-23T06:37:10Z</time>
      </trkpt>
      <trkpt lat="46.65315" lon="5.52089">
        <ele>330.3</ele>
        <time>2022-10-23T06:37:11Z</time>
      </trkpt>
      <trkpt lat="46.65313" lon="5.52089">
        <ele>330.35</ele>
        <time>2022-10-23T06:37:12Z</time>
      </trkpt>
      <trkpt lat="46.65311" lon="5.5209">
        <ele>331.18</ele>
        <time>2022-10-23T06:37:14Z</time>
      </trkpt>
      <trkpt lat="46.65308" lon="5.5209">
        <ele>331.12</ele>
        <time>2022-10-23T06:37:16Z</time>
      </trkpt>
      <trkpt lat="46.65307" lon="5.5209">
        <ele>331.11</ele>
        <time>2022-10-23T06:37:17Z</time>
      </trkpt>
      <trkpt lat="46.65306" lon="5.52091">
        <ele>331.11</ele>
        <time>2022-10-23T06:37:18Z</time>
      </trkpt>
      <trkpt lat="46.65305" lon="5.52092">
        <ele>331.11</ele>
        <time>2022-10-23T06:37:19Z</time>
      </trkpt>
      <trkpt lat="46.65304" lon="5.52092">
        <ele>332.31</ele>
        <time>2022-10-23T06:37:20Z</time>
      </trkpt>
      <trkpt lat="46.65303" lon="5.52093">
        <ele>332.31</ele>
        <time>2022-10-23T06:37:21Z</time>
      </trkpt>
      <trkpt lat="46.65302" lon="5.52093">
        <ele>332.42</ele>
        <time>2022-10-23T06:37:22Z</time>
      </trkpt>
      <trkpt lat="46.65301" lon="5.52093">
        <ele>333.18</ele>
        <time>2022-10-23T06:37:23Z</time>
      </trkpt>
      <trkpt lat="46.65299" lon="5.52094">
        <ele>333.18</ele>
        <time>2022-10-23T06:37:24Z</time>
      </trkpt>
      <trkpt lat="46.65298" lon="5.52094">
        <ele>333.4</ele>
        <time>2022-10-23T06:37:25Z</time>
      </trkpt>
      <trkpt lat="46.65297" lon="5.52095">
        <ele>334.22</ele>
        <time>2022-10-23T06:37:26Z</time>
      </trkpt>
      <trkpt lat="46.65296" lon="5.52095">
        <ele>334.02</ele>
        <time>2022-10-23T06:37:27Z</time>
      </trkpt>
      <trkpt lat="46.65295" lon="5.52095">
        <ele>334.02</ele>
        <time>2022-10-23T06:37:28Z</time>
      </trkpt>
      <trkpt lat="46.65294" lon="5.52095">
        <ele>334.02</ele>
        <time>2022-10-23T06:37:29Z</time>
      </trkpt>
      <trkpt lat="46.65292" lon="5.52096">
        <ele>334.2</ele>
        <time>2022-10-23T06:37:30Z</time>
      </trkpt>
      <trkpt lat="46.65291" lon="5.52096">
        <ele>334.02</ele>
        <time>2022-10-23T06:37:31Z</time>
      </trkpt>
      <trkpt lat="46.6529" lon="5.52097">
        <ele>334.02</ele>
        <time>2022-10-23T06:37:32Z</time>
      </trkpt>
      <trkpt lat="46.6529" lon="5.52099">
        <ele>334.02</ele>
        <time>2022-10-23T06:37:33Z</time>
      </trkpt>
      <trkpt lat="46.65288" lon="5.52099">
        <ele>334.02</ele>
        <time>2022-10-23T06:37:34Z</time>
      </trkpt>
      <trkpt lat="46.65287" lon="5.52099">
        <ele>334.02</ele>
        <time>2022-10-23T06:37:35Z</time>
      </trkpt>
      <trkpt lat="46.65286" lon="5.52099">
        <ele>334.02</ele>
        <time>2022-10-23T06:37:36Z</time>
      </trkpt>
      <trkpt lat="46.65285" lon="5.521">
        <ele>334.02</ele>
        <time>2022-10-23T06:37:37Z</time>
      </trkpt>
      <trkpt lat="46.65281" lon="5.521">
        <ele>334.02</ele>
        <time>2022-10-23T06:37:40Z</time>
      </trkpt>
      <trkpt lat="46.6528" lon="5.52101">
        <ele>335.07</ele>
        <time>2022-10-23T06:37:41Z</time>
      </trkpt>
      <trkpt lat="46.65278" lon="5.52101">
        <ele>335.07</ele>
        <time>2022-10-23T06:37:42Z</time>
      </trkpt>
      <trkpt lat="46.65277" lon="5.52101">
        <ele>335.07</ele>
        <time>2022-10-23T06:37:43Z</time>
      </trkpt>
      <trkpt lat="46.65276" lon="5.52101">
        <ele>335.11</ele>
        <time>2022-10-23T06:37:44Z</time>
      </trkpt>
      <trkpt lat="46.65274" lon="5.521">
        <ele>335.07</ele>
        <time>2022-10-23T06:37:45Z</time>
      </trkpt>
      <trkpt lat="46.65273" lon="5.521">
        <ele>335.07</ele>
        <time>2022-10-23T06:37:46Z</time>
      </trkpt>
      <trkpt lat="46.65272" lon="5.52101">
        <ele>335.07</ele>
        <time>2022-10-23T06:37:47Z</time>
      </trkpt>
      <trkpt lat="46.65271" lon="5.52101">
        <ele>335.1</ele>
        <time>2022-10-23T06:37:48Z</time>
      </trkpt>
      <trkpt lat="46.65263" lon="5.52102">
        <ele>335.93</ele>
        <time>2022-10-23T06:37:55Z</time>
      </trkpt>
      <trkpt lat="46.65242" lon="5.52106">
        <ele>336.79</ele>
        <time>2022-10-23T06:38:10Z</time>
      </trkpt>
      <trkpt lat="46.65223" lon="5.52109">
        <ele>338.42</ele>
        <time>2022-10-23T06:38:25Z</time>
      </trkpt>
      <trkpt lat="46.65204" lon="5.52105">
        <ele>339.87</ele>
        <time>2022-10-23T06:38:40Z</time>
      </trkpt>
      <trkpt lat="46.65202" lon="5.52106">
        <ele>339.87</ele>
        <time>2022-10-23T06:38:42Z</time>
      </trkpt>
      <trkpt lat="46.65199" lon="5.52108">
        <ele>339.86</ele>
        <time>2022-10-23T06:38:45Z</time>
      </trkpt>
      <trkpt lat="46.65188" lon="5.5211">
        <ele>342.39</ele>
        <time>2022-10-23T06:38:55Z</time>
      </trkpt>
      <trkpt lat="46.65169" lon="5.52112">
        <ele>343.48</ele>
        <time>2022-10-23T06:39:13Z</time>
      </trkpt>
      <trkpt lat="46.65161" lon="5.52112">
        <ele>343.42</ele>
        <time>2022-10-23T06:39:20Z</time>
      </trkpt>
      <trkpt lat="46.65159" lon="5.52112">
        <ele>344.16</ele>
        <time>2022-10-23T06:39:21Z</time>
      </trkpt>
      <trkpt lat="46.65145" lon="5.52115">
        <ele>345.12</ele>
        <time>2022-10-23T06:39:37Z</time>
      </trkpt>
      <trkpt lat="46.65129" lon="5.52116">
        <ele>346.86</ele>
        <time>2022-10-23T06:39:53Z</time>
      </trkpt>
      <trkpt lat="46.65116" lon="5.52114">
        <ele>346.75</ele>
        <time>2022-10-23T06:40:05Z</time>
      </trkpt>
      <trkpt lat="46.65102" lon="5.52113">
        <ele>347.31</ele>
        <time>2022-10-23T06:40:21Z</time>
      </trkpt>
      <trkpt lat="46.65088" lon="5.52112">
        <ele>348.98</ele>
        <time>2022-10-23T06:40:35Z</time>
      </trkpt>
      <trkpt lat="46.65064" lon="5.52113">
        <ele>349.51</ele>
        <time>2022-10-23T06:40:57Z</time>
      </trkpt>
      <trkpt lat="46.65044" lon="5.52117">
        <ele>347.24</ele>
        <time>2022-10-23T06:41:12Z</time>
      </trkpt>
      <trkpt lat="46.65042" lon="5.52117">
        <ele>349.83</ele>
        <time>2022-10-23T06:41:14Z</time>
      </trkpt>
      <trkpt lat="46.65032" lon="5.52114">
        <ele>349.53</ele>
        <time>2022-10-23T06:41:27Z</time>
      </trkpt>
      <trkpt lat="46.65014" lon="5.52126">
        <ele>350.12</ele>
        <time>2022-10-23T06:41:43Z</time>
      </trkpt>
      <trkpt lat="46.64997" lon="5.52145">
        <ele>349.61</ele>
        <time>2022-10-23T06:41:55Z</time>
      </trkpt>
      <trkpt lat="46.64995" lon="5.52146">
        <ele>349.69</ele>
        <time>2022-10-23T06:41:56Z</time>
      </trkpt>
      <trkpt lat="46.64992" lon="5.52152">
        <ele>349.6</ele>
        <time>2022-10-23T06:41:57Z</time>
      </trkpt>
      <trkpt lat="46.6499" lon="5.52155">
        <ele>350.41</ele>
        <time>2022-10-23T06:41:58Z</time>
      </trkpt>
      <trkpt lat="46.64976" lon="5.52167">
        <ele>351.24</ele>
        <time>2022-10-23T06:42:08Z</time>
      </trkpt>
      <trkpt lat="46.64975" lon="5.52168">
        <ele>351.13</ele>
        <time>2022-10-23T06:42:09Z</time>
      </trkpt>
      <trkpt lat="46.64974" lon="5.52168">
        <ele>351.2</ele>
        <time>2022-10-23T06:42:10Z</time>
      </trkpt>
      <trkpt lat="46.64972" lon="5.52169">
        <ele>351.15</ele>
        <time>2022-10-23T06:42:11Z</time>
      </trkpt>
      <trkpt lat="46.64971" lon="5.52169">
        <ele>351.2</ele>
        <time>2022-10-23T06:42:12Z</time>
      </trkpt>
      <trkpt lat="46.6497" lon="5.5217">
        <ele>351.06</ele>
        <time>2022-10-23T06:42:13Z</time>
      </trkpt>
      <trkpt lat="46.64969" lon="5.52169">
        <ele>351.07</ele>
        <time>2022-10-23T06:42:14Z</time>
      </trkpt>
      <trkpt lat="46.64967" lon="5.52169">
        <ele>350.95</ele>
        <time>2022-10-23T06:42:15Z</time>
      </trkpt>
      <trkpt lat="46.6495" lon="5.52173">
        <ele>350.76</ele>
        <time>2022-10-23T06:42:29Z</time>
      </trkpt>
      <trkpt lat="46.64949" lon="5.52173">
        <ele>350.7</ele>
        <time>2022-10-23T06:42:30Z</time>
      </trkpt>
      <trkpt lat="46.64948" lon="5.52173">
        <ele>350.67</ele>
        <time>2022-10-23T06:42:31Z</time>
      </trkpt>
      <trkpt lat="46.64947" lon="5.52174">
        <ele>350.69</ele>
        <time>2022-10-23T06:42:32Z</time>
      </trkpt>
      <trkpt lat="46.64951" lon="5.52175">
        <ele>350.67</ele>
        <time>2022-10-23T06:42:33Z</time>
      </trkpt>
      <trkpt lat="46.64953" lon="5.52175">
        <ele>350.65</ele>
        <time>2022-10-23T06:42:34Z</time>
      </trkpt>
      <trkpt lat="46.64953" lon="5.52175">
        <ele>350.6</ele>
        <time>2022-10-23T06:42:35Z</time>
      </trkpt>
      <trkpt lat="46.64952" lon="5.52175">
        <ele>350.61</ele>
        <time>2022-10-23T06:42:36Z</time>
      </trkpt>
      <trkpt lat="46.64942" lon="5.52177">
        <ele>350.48</ele>
        <time>2022-10-23T06:42:45Z</time>
      </trkpt>
      <trkpt lat="46.64941" lon="5.52177">
        <ele>350.44</ele>
        <time>2022-10-23T06:42:46Z</time>
      </trkpt>
      <trkpt lat="46.64939" lon="5.52177">
        <ele>350.39</ele>
        <time>2022-10-23T06:42:47Z</time>
      </trkpt>
      <trkpt lat="46.64938" lon="5.52177">
        <ele>350.48</ele>
        <time>2022-10-23T06:42:48Z</time>
      </trkpt>
      <trkpt lat="46.64937" lon="5.52177">
        <ele>350.41</ele>
        <time>2022-10-23T06:42:49Z</time>
      </trkpt>
      <trkpt lat="46.64935" lon="5.52177">
        <ele>350.43</ele>
        <time>2022-10-23T06:42:50Z</time>
      </trkpt>
      <trkpt lat="46.64934" lon="5.52177">
        <ele>350.36</ele>
        <time>2022-10-23T06:42:51Z</time>
      </trkpt>
      <trkpt lat="46.64932" lon="5.52178">
        <ele>350.39</ele>
        <time>2022-10-23T06:42:52Z</time>
      </trkpt>
      <trkpt lat="46.64931" lon="5.52178">
        <ele>350.24</ele>
        <time>2022-10-23T06:42:53Z</time>
      </trkpt>
      <trkpt lat="46.64917" lon="5.52176">
        <ele>351.54</ele>
        <time>2022-10-23T06:43:02Z</time>
      </trkpt>
      <trkpt lat="46.64896" lon="5.52176">
        <ele>351.34</ele>
        <time>2022-10-23T06:43:17Z</time>
      </trkpt>
      <trkpt lat="46.64886" lon="5.52175">
        <ele>351.09</ele>
        <time>2022-10-23T06:43:23Z</time>
      </trkpt>
      <trkpt lat="46.64885" lon="5.52175">
        <ele>351.22</ele>
        <time>2022-10-23T06:43:24Z</time>
      </trkpt>
      <trkpt lat="46.64872" lon="5.52177">
        <ele>348.57</ele>
        <time>2022-10-23T06:43:33Z</time>
      </trkpt>
      <trkpt lat="46.64853" lon="5.52179">
        <ele>348.27</ele>
        <time>2022-10-23T06:43:46Z</time>
      </trkpt>
      <trkpt lat="46.6485" lon="5.52179">
        <ele>348.39</ele>
        <time>2022-10-23T06:43:48Z</time>
      </trkpt>
      <trkpt lat="46.64848" lon="5.5218">
        <ele>348.28</ele>
        <time>2022-10-23T06:43:49Z</time>
      </trkpt>
      <trkpt lat="46.64847" lon="5.5218">
        <ele>348.26</ele>
        <time>2022-10-23T06:43:50Z</time>
      </trkpt>
      <trkpt lat="46.64845" lon="5.5218">
        <ele>348.25</ele>
        <time>2022-10-23T06:43:51Z</time>
      </trkpt>
      <trkpt lat="46.64844" lon="5.52181">
        <ele>348.24</ele>
        <time>2022-10-23T06:43:52Z</time>
      </trkpt>
      <trkpt lat="46.64837" lon="5.52179">
        <ele>350.67</ele>
        <time>2022-10-23T06:43:57Z</time>
      </trkpt>
      <trkpt lat="46.64812" lon="5.52178">
        <ele>351.26</ele>
        <time>2022-10-23T06:44:14Z</time>
      </trkpt>
      <trkpt lat="46.64789" lon="5.52177">
        <ele>352.02</ele>
        <time>2022-10-23T06:44:31Z</time>
      </trkpt>
      <trkpt lat="46.6477" lon="5.52175">
        <ele>351.81</ele>
        <time>2022-10-23T06:44:45Z</time>
      </trkpt>
      <trkpt lat="46.6476" lon="5.52176">
        <ele>351.56</ele>
        <time>2022-10-23T06:44:52Z</time>
      </trkpt>
      <trkpt lat="46.64758" lon="5.52176">
        <ele>351.56</ele>
        <time>2022-10-23T06:44:53Z</time>
      </trkpt>
      <trkpt lat="46.64747" lon="5.52176">
        <ele>351.59</ele>
        <time>2022-10-23T06:45:01Z</time>
      </trkpt>
      <trkpt lat="46.64746" lon="5.52176">
        <ele>351.58</ele>
        <time>2022-10-23T06:45:02Z</time>
      </trkpt>
      <trkpt lat="46.64744" lon="5.52177">
        <ele>351.59</ele>
        <time>2022-10-23T06:45:03Z</time>
      </trkpt>
      <trkpt lat="46.64741" lon="5.52176">
        <ele>351.53</ele>
        <time>2022-10-23T06:45:04Z</time>
      </trkpt>
      <trkpt lat="46.64739" lon="5.52176">
        <ele>351.57</ele>
        <time>2022-10-23T06:45:05Z</time>
      </trkpt>
      <trkpt lat="46.64737" lon="5.52176">
        <ele>351.53</ele>
        <time>2022-10-23T06:45:06Z</time>
      </trkpt>
      <trkpt lat="46.64735" lon="5.52176">
        <ele>351.5</ele>
        <time>2022-10-23T06:45:07Z</time>
      </trkpt>
      <trkpt lat="46.64733" lon="5.52176">
        <ele>351.52</ele>
        <time>2022-10-23T06:45:08Z</time>
      </trkpt>
      <trkpt lat="46.64731" lon="5.52176">
        <ele>351.55</ele>
        <time>2022-10-23T06:45:09Z</time>
      </trkpt>
      <trkpt lat="46.6473" lon="5.52176">
        <ele>351.54</ele>
        <time>2022-10-23T06:45:10Z</time>
      </trkpt>
      <trkpt lat="46.64728" lon="5.52175">
        <ele>348.61</ele>
        <time>2022-10-23T06:45:11Z</time>
      </trkpt>
      <trkpt lat="46.64726" lon="5.52176">
        <ele>348.64</ele>
        <time>2022-10-23T06:45:12Z</time>
      </trkpt>
      <trkpt lat="46.64724" lon="5.52176">
        <ele>348.58</ele>
        <time>2022-10-23T06:45:13Z</time>
      </trkpt>
      <trkpt lat="46.64723" lon="5.52177">
        <ele>348.59</ele>
        <time>2022-10-23T06:45:14Z</time>
      </trkpt>
      <trkpt lat="46.64721" lon="5.52177">
        <ele>348.59</ele>
        <time>2022-10-23T06:45:15Z</time>
      </trkpt>
      <trkpt lat="46.6472" lon="5.52177">
        <ele>348.57</ele>
        <time>2022-10-23T06:45:16Z</time>
      </trkpt>
      <trkpt lat="46.64718" lon="5.52177">
        <ele>348.58</ele>
        <time>2022-10-23T06:45:17Z</time>
      </trkpt>
      <trkpt lat="46.64716" lon="5.52177">
        <ele>348.55</ele>
        <time>2022-10-23T06:45:18Z</time>
      </trkpt>
      <trkpt lat="46.64694" lon="5.5218">
        <ele>351.32</ele>
        <time>2022-10-23T06:45:32Z</time>
      </trkpt>
      <trkpt lat="46.64689" lon="5.52181">
        <ele>351.17</ele>
        <time>2022-10-23T06:45:36Z</time>
      </trkpt>
      <trkpt lat="46.64688" lon="5.52181">
        <ele>351.15</ele>
        <time>2022-10-23T06:45:37Z</time>
      </trkpt>
      <trkpt lat="46.64687" lon="5.52181">
        <ele>351.14</ele>
        <time>2022-10-23T06:45:38Z</time>
      </trkpt>
      <trkpt lat="46.64685" lon="5.52181">
        <ele>348.41</ele>
        <time>2022-10-23T06:45:39Z</time>
      </trkpt>
      <trkpt lat="46.64684" lon="5.52181">
        <ele>348.42</ele>
        <time>2022-10-23T06:45:40Z</time>
      </trkpt>
      <trkpt lat="46.64683" lon="5.52181">
        <ele>348.39</ele>
        <time>2022-10-23T06:45:41Z</time>
      </trkpt>
      <trkpt lat="46.64673" lon="5.5218">
        <ele>350.87</ele>
        <time>2022-10-23T06:45:49Z</time>
      </trkpt>
      <trkpt lat="46.64657" lon="5.52181">
        <ele>350.78</ele>
        <time>2022-10-23T06:46:02Z</time>
      </trkpt>
      <trkpt lat="46.64654" lon="5.52182">
        <ele>348.2</ele>
        <time>2022-10-23T06:46:05Z</time>
      </trkpt>
      <trkpt lat="46.64652" lon="5.52183">
        <ele>347.99</ele>
        <time>2022-10-23T06:46:06Z</time>
      </trkpt>
      <trkpt lat="46.6465" lon="5.52184">
        <ele>348.05</ele>
        <time>2022-10-23T06:46:08Z</time>
      </trkpt>
      <trkpt lat="46.64636" lon="5.52186">
        <ele>348.08</ele>
        <time>2022-10-23T06:46:18Z</time>
      </trkpt>
      <trkpt lat="46.64622" lon="5.52196">
        <ele>347.99</ele>
        <time>2022-10-23T06:46:32Z</time>
      </trkpt>
      <trkpt lat="46.64621" lon="5.52197">
        <ele>348.05</ele>
        <time>2022-10-23T06:46:33Z</time>
      </trkpt>
      <trkpt lat="46.64606" lon="5.522">
        <ele>346.95</ele>
        <time>2022-10-23T06:46:45Z</time>
      </trkpt>
      <trkpt lat="46.64575" lon="5.52206">
        <ele>346.73</ele>
        <time>2022-10-23T06:47:08Z</time>
      </trkpt>
      <trkpt lat="46.64562" lon="5.52204">
        <ele>348.97</ele>
        <time>2022-10-23T06:47:17Z</time>
      </trkpt>
      <trkpt lat="46.64544" lon="5.52217">
        <ele>348.67</ele>
        <time>2022-10-23T06:47:33Z</time>
      </trkpt>
      <trkpt lat="46.64516" lon="5.52229">
        <ele>350.46</ele>
        <time>2022-10-23T06:47:56Z</time>
      </trkpt>
      <trkpt lat="46.64484" lon="5.52235">
        <ele>351.14</ele>
        <time>2022-10-23T06:48:19Z</time>
      </trkpt>
      <trkpt lat="46.6446" lon="5.52243">
        <ele>353.64</ele>
        <time>2022-10-23T06:48:39Z</time>
      </trkpt>
      <trkpt lat="46.64432" lon="5.52263">
        <ele>354.42</ele>
        <time>2022-10-23T06:49:01Z</time>
      </trkpt>
      <trkpt lat="46.64414" lon="5.5226">
        <ele>355.24</ele>
        <time>2022-10-23T06:49:17Z</time>
      </trkpt>
      <trkpt lat="46.64394" lon="5.5226">
        <ele>352.56</ele>
        <time>2022-10-23T06:49:31Z</time>
      </trkpt>
      <trkpt lat="46.64379" lon="5.5226">
        <ele>354.79</ele>
        <time>2022-10-23T06:49:42Z</time>
      </trkpt>
      <trkpt lat="46.6436" lon="5.52265">
        <ele>354.91</ele>
        <time>2022-10-23T06:49:56Z</time>
      </trkpt>
      <trkpt lat="46.64358" lon="5.52265">
        <ele>354.92</ele>
        <time>2022-10-23T06:49:57Z</time>
      </trkpt>
      <trkpt lat="46.64344" lon="5.52267">
        <ele>354.72</ele>
        <time>2022-10-23T06:50:08Z</time>
      </trkpt>
      <trkpt lat="46.64343" lon="5.52267">
        <ele>354.68</ele>
        <time>2022-10-23T06:50:09Z</time>
      </trkpt>
      <trkpt lat="46.64342" lon="5.52268">
        <ele>354.72</ele>
        <time>2022-10-23T06:50:10Z</time>
      </trkpt>
      <trkpt lat="46.6434" lon="5.52268">
        <ele>354.68</ele>
        <time>2022-10-23T06:50:11Z</time>
      </trkpt>
      <trkpt lat="46.64325" lon="5.5227">
        <ele>354.64</ele>
        <time>2022-10-23T06:50:24Z</time>
      </trkpt>
      <trkpt lat="46.64322" lon="5.52271">
        <ele>354.67</ele>
        <time>2022-10-23T06:50:27Z</time>
      </trkpt>
      <trkpt lat="46.64321" lon="5.52272">
        <ele>354.73</ele>
        <time>2022-10-23T06:50:28Z</time>
      </trkpt>
      <trkpt lat="46.6432" lon="5.52272">
        <ele>354.67</ele>
        <time>2022-10-23T06:50:29Z</time>
      </trkpt>
      <trkpt lat="46.64305" lon="5.52277">
        <ele>354.62</ele>
        <time>2022-10-23T06:50:43Z</time>
      </trkpt>
      <trkpt lat="46.64304" lon="5.52277">
        <ele>354.61</ele>
        <time>2022-10-23T06:50:44Z</time>
      </trkpt>
      <trkpt lat="46.64303" lon="5.52278">
        <ele>354.54</ele>
        <time>2022-10-23T06:50:45Z</time>
      </trkpt>
      <trkpt lat="46.64298" lon="5.5228">
        <ele>355.77</ele>
        <time>2022-10-23T06:50:50Z</time>
      </trkpt>
      <trkpt lat="46.64295" lon="5.52281">
        <ele>355.72</ele>
        <time>2022-10-23T06:50:53Z</time>
      </trkpt>
      <trkpt lat="46.64289" lon="5.52286">
        <ele>355.69</ele>
        <time>2022-10-23T06:50:58Z</time>
      </trkpt>
      <trkpt lat="46.64286" lon="5.52287">
        <ele>356.86</ele>
        <time>2022-10-23T06:51:02Z</time>
      </trkpt>
      <trkpt lat="46.64268" lon="5.52287">
        <ele>359.15</ele>
        <time>2022-10-23T06:51:22Z</time>
      </trkpt>
      <trkpt lat="46.64267" lon="5.52287">
        <ele>359.08</ele>
        <time>2022-10-23T06:51:23Z</time>
      </trkpt>
      <trkpt lat="46.6426" lon="5.52283">
        <ele>360.55</ele>
        <time>2022-10-23T06:51:32Z</time>
      </trkpt>
      <trkpt lat="46.64249" lon="5.5228">
        <ele>361.35</ele>
        <time>2022-10-23T06:51:48Z</time>
      </trkpt>
      <trkpt lat="46.64246" lon="5.52281">
        <ele>361.23</ele>
        <time>2022-10-23T06:51:50Z</time>
      </trkpt>
      <trkpt lat="46.64239" lon="5.52281">
        <ele>362.13</ele>
        <time>2022-10-23T06:51:56Z</time>
      </trkpt>
      <trkpt lat="46.64233" lon="5.52282">
        <ele>363.96</ele>
        <time>2022-10-23T06:52:01Z</time>
      </trkpt>
      <trkpt lat="46.64232" lon="5.52283">
        <ele>364.12</ele>
        <time>2022-10-23T06:52:02Z</time>
      </trkpt>
      <trkpt lat="46.64226" lon="5.52282">
        <ele>363.9</ele>
        <time>2022-10-23T06:52:07Z</time>
      </trkpt>
      <trkpt lat="46.64223" lon="5.52283">
        <ele>363.88</ele>
        <time>2022-10-23T06:52:11Z</time>
      </trkpt>
      <trkpt lat="46.64218" lon="5.52288">
        <ele>364.66</ele>
        <time>2022-10-23T06:52:19Z</time>
      </trkpt>
      <trkpt lat="46.64205" lon="5.52308">
        <ele>364.34</ele>
        <time>2022-10-23T06:52:32Z</time>
      </trkpt>
      <trkpt lat="46.64183" lon="5.52325">
        <ele>364.13</ele>
        <time>2022-10-23T06:52:53Z</time>
      </trkpt>
      <trkpt lat="46.64191" lon="5.52306">
        <ele>363.95</ele>
        <time>2022-10-23T06:53:18Z</time>
      </trkpt>
      <trkpt lat="46.64182" lon="5.52286">
        <ele>363.89</ele>
        <time>2022-10-23T06:53:37Z</time>
      </trkpt>
      <trkpt lat="46.64158" lon="5.52274">
        <ele>365.79</ele>
        <time>2022-10-23T06:53:58Z</time>
      </trkpt>
      <trkpt lat="46.64151" lon="5.52271">
        <ele>364.19</ele>
        <time>2022-10-23T06:54:06Z</time>
      </trkpt>
      <trkpt lat="46.6415" lon="5.52271">
        <ele>366.86</ele>
        <time>2022-10-23T06:54:08Z</time>
      </trkpt>
      <trkpt lat="46.64148" lon="5.5227">
        <ele>368.25</ele>
        <time>2022-10-23T06:54:10Z</time>
      </trkpt>
      <trkpt lat="46.64142" lon="5.52266">
        <ele>368.41</ele>
        <time>2022-10-23T06:54:21Z</time>
      </trkpt>
      <trkpt lat="46.64138" lon="5.52262">
        <ele>371.49</ele>
        <time>2022-10-23T06:54:26Z</time>
      </trkpt>
      <trkpt lat="46.64138" lon="5.52262">
        <ele>371.49</ele>
        <time>2022-10-23T06:54:27Z</time>
      </trkpt>
      <trkpt lat="46.64122" lon="5.52253">
        <ele>373.05</ele>
        <time>2022-10-23T06:54:44Z</time>
      </trkpt>
      <trkpt lat="46.64096" lon="5.52252">
        <ele>374.46</ele>
        <time>2022-10-23T06:55:05Z</time>
      </trkpt>
      <trkpt lat="46.64079" lon="5.52233">
        <ele>377.41</ele>
        <time>2022-10-23T06:55:25Z</time>
      </trkpt>
      <trkpt lat="46.64067" lon="5.52224">
        <ele>378.35</ele>
        <time>2022-10-23T06:55:36Z</time>
      </trkpt>
      <trkpt lat="46.64061" lon="5.52224">
        <ele>379</ele>
        <time>2022-10-23T06:55:41Z</time>
      </trkpt>
      <trkpt lat="46.6405" lon="5.52219">
        <ele>380.73</ele>
        <time>2022-10-23T06:55:50Z</time>
      </trkpt>
      <trkpt lat="46.64041" lon="5.52213">
        <ele>381.37</ele>
        <time>2022-10-23T06:56:01Z</time>
      </trkpt>
      <trkpt lat="46.64039" lon="5.52213">
        <ele>381.43</ele>
        <time>2022-10-23T06:56:03Z</time>
      </trkpt>
      <trkpt lat="46.64023" lon="5.52195">
        <ele>383.06</ele>
        <time>2022-10-23T06:56:19Z</time>
      </trkpt>
      <trkpt lat="46.63995" lon="5.52185">
        <ele>385.73</ele>
        <time>2022-10-23T06:56:44Z</time>
      </trkpt>
      <trkpt lat="46.63971" lon="5.52183">
        <ele>388.5</ele>
        <time>2022-10-23T06:57:06Z</time>
      </trkpt>
      <trkpt lat="46.63946" lon="5.52171">
        <ele>391.13</ele>
        <time>2022-10-23T06:57:29Z</time>
      </trkpt>
      <trkpt lat="46.63931" lon="5.52162">
        <ele>393.96</ele>
        <time>2022-10-23T06:57:46Z</time>
      </trkpt>
      <trkpt lat="46.63917" lon="5.52154">
        <ele>395.77</ele>
        <time>2022-10-23T06:58:00Z</time>
      </trkpt>
      <trkpt lat="46.63903" lon="5.5215">
        <ele>399.06</ele>
        <time>2022-10-23T06:58:18Z</time>
      </trkpt>
      <trkpt lat="46.63902" lon="5.52151">
        <ele>399.04</ele>
        <time>2022-10-23T06:58:19Z</time>
      </trkpt>
      <trkpt lat="46.6388" lon="5.5214">
        <ele>399.4</ele>
        <time>2022-10-23T06:58:43Z</time>
      </trkpt>
      <trkpt lat="46.63878" lon="5.52138">
        <ele>400.72</ele>
        <time>2022-10-23T06:58:45Z</time>
      </trkpt>
      <trkpt lat="46.63875" lon="5.52138">
        <ele>402.11</ele>
        <time>2022-10-23T06:58:48Z</time>
      </trkpt>
      <trkpt lat="46.63863" lon="5.52138">
        <ele>403</ele>
        <time>2022-10-23T06:59:00Z</time>
      </trkpt>
      <trkpt lat="46.63849" lon="5.52138">
        <ele>404.93</ele>
        <time>2022-10-23T06:59:14Z</time>
      </trkpt>
      <trkpt lat="46.63827" lon="5.52159">
        <ele>408.27</ele>
        <time>2022-10-23T06:59:31Z</time>
      </trkpt>
      <trkpt lat="46.63826" lon="5.52161">
        <ele>408.27</ele>
        <time>2022-10-23T06:59:32Z</time>
      </trkpt>
      <trkpt lat="46.63823" lon="5.52167">
        <ele>408.23</ele>
        <time>2022-10-23T06:59:35Z</time>
      </trkpt>
      <trkpt lat="46.63806" lon="5.5219">
        <ele>411.09</ele>
        <time>2022-10-23T06:59:49Z</time>
      </trkpt>
      <trkpt lat="46.638" lon="5.52205">
        <ele>413.09</ele>
        <time>2022-10-23T06:59:57Z</time>
      </trkpt>
      <trkpt lat="46.638" lon="5.52208">
        <ele>413.01</ele>
        <time>2022-10-23T06:59:59Z</time>
      </trkpt>
      <trkpt lat="46.638" lon="5.52236">
        <ele>416.28</ele>
        <time>2022-10-23T07:00:17Z</time>
      </trkpt>
      <trkpt lat="46.6381" lon="5.52251">
        <ele>418.5</ele>
        <time>2022-10-23T07:00:34Z</time>
      </trkpt>
      <trkpt lat="46.63821" lon="5.52254">
        <ele>419.84</ele>
        <time>2022-10-23T07:00:42Z</time>
      </trkpt>
      <trkpt lat="46.63822" lon="5.52254">
        <ele>419.79</ele>
        <time>2022-10-23T07:00:43Z</time>
      </trkpt>
      <trkpt lat="46.63825" lon="5.52254">
        <ele>419.86</ele>
        <time>2022-10-23T07:00:44Z</time>
      </trkpt>
      <trkpt lat="46.63827" lon="5.52254">
        <ele>419.75</ele>
        <time>2022-10-23T07:00:45Z</time>
      </trkpt>
      <trkpt lat="46.63832" lon="5.52258">
        <ele>419.76</ele>
        <time>2022-10-23T07:00:51Z</time>
      </trkpt>
      <trkpt lat="46.63834" lon="5.52258">
        <ele>419.72</ele>
        <time>2022-10-23T07:00:52Z</time>
      </trkpt>
      <trkpt lat="46.63835" lon="5.52259">
        <ele>419.76</ele>
        <time>2022-10-23T07:00:53Z</time>
      </trkpt>
      <trkpt lat="46.63837" lon="5.52259">
        <ele>419.68</ele>
        <time>2022-10-23T07:00:54Z</time>
      </trkpt>
      <trkpt lat="46.63838" lon="5.5226">
        <ele>419.65</ele>
        <time>2022-10-23T07:00:55Z</time>
      </trkpt>
      <trkpt lat="46.63839" lon="5.52263">
        <ele>419.66</ele>
        <time>2022-10-23T07:00:57Z</time>
      </trkpt>
      <trkpt lat="46.63844" lon="5.5227">
        <ele>419.6</ele>
        <time>2022-10-23T07:01:03Z</time>
      </trkpt>
      <trkpt lat="46.63846" lon="5.52273">
        <ele>421.08</ele>
        <time>2022-10-23T07:01:06Z</time>
      </trkpt>
      <trkpt lat="46.6385" lon="5.52276">
        <ele>421.04</ele>
        <time>2022-10-23T07:01:10Z</time>
      </trkpt>
      <trkpt lat="46.63853" lon="5.52281">
        <ele>422.11</ele>
        <time>2022-10-23T07:01:13Z</time>
      </trkpt>
      <trkpt lat="46.63853" lon="5.52283">
        <ele>422.1</ele>
        <time>2022-10-23T07:01:14Z</time>
      </trkpt>
      <trkpt lat="46.63854" lon="5.52287">
        <ele>422.06</ele>
        <time>2022-10-23T07:01:17Z</time>
      </trkpt>
      <trkpt lat="46.63869" lon="5.52304">
        <ele>422.94</ele>
        <time>2022-10-23T07:01:31Z</time>
      </trkpt>
      <trkpt lat="46.63871" lon="5.52306">
        <ele>422.93</ele>
        <time>2022-10-23T07:01:33Z</time>
      </trkpt>
      <trkpt lat="46.63876" lon="5.52314">
        <ele>424.14</ele>
        <time>2022-10-23T07:01:39Z</time>
      </trkpt>
      <trkpt lat="46.63878" lon="5.52322">
        <ele>425.01</ele>
        <time>2022-10-23T07:01:45Z</time>
      </trkpt>
      <trkpt lat="46.63885" lon="5.52334">
        <ele>426.45</ele>
        <time>2022-10-23T07:01:54Z</time>
      </trkpt>
      <trkpt lat="46.63888" lon="5.5234">
        <ele>427.82</ele>
        <time>2022-10-23T07:01:58Z</time>
      </trkpt>
      <trkpt lat="46.63888" lon="5.52345">
        <ele>427.82</ele>
        <time>2022-10-23T07:02:02Z</time>
      </trkpt>
      <trkpt lat="46.63888" lon="5.52347">
        <ele>427.79</ele>
        <time>2022-10-23T07:02:03Z</time>
      </trkpt>
      <trkpt lat="46.63888" lon="5.52351">
        <ele>427.77</ele>
        <time>2022-10-23T07:02:05Z</time>
      </trkpt>
      <trkpt lat="46.63894" lon="5.52362">
        <ele>428.95</ele>
        <time>2022-10-23T07:02:12Z</time>
      </trkpt>
      <trkpt lat="46.63897" lon="5.52379">
        <ele>429.8</ele>
        <time>2022-10-23T07:02:24Z</time>
      </trkpt>
      <trkpt lat="46.63901" lon="5.52382">
        <ele>430.92</ele>
        <time>2022-10-23T07:02:28Z</time>
      </trkpt>
      <trkpt lat="46.63902" lon="5.52387">
        <ele>432.16</ele>
        <time>2022-10-23T07:02:32Z</time>
      </trkpt>
      <trkpt lat="46.63902" lon="5.52389">
        <ele>432.46</ele>
        <time>2022-10-23T07:02:33Z</time>
      </trkpt>
      <trkpt lat="46.63904" lon="5.52403">
        <ele>433.28</ele>
        <time>2022-10-23T07:02:43Z</time>
      </trkpt>
      <trkpt lat="46.63901" lon="5.52407">
        <ele>433.21</ele>
        <time>2022-10-23T07:02:46Z</time>
      </trkpt>
      <trkpt lat="46.63901" lon="5.5241">
        <ele>434.76</ele>
        <time>2022-10-23T07:02:48Z</time>
      </trkpt>
      <trkpt lat="46.63897" lon="5.52415">
        <ele>435.36</ele>
        <time>2022-10-23T07:02:53Z</time>
      </trkpt>
      <trkpt lat="46.63896" lon="5.52418">
        <ele>436.52</ele>
        <time>2022-10-23T07:02:57Z</time>
      </trkpt>
      <trkpt lat="46.63898" lon="5.52427">
        <ele>437.39</ele>
        <time>2022-10-23T07:03:07Z</time>
      </trkpt>
      <trkpt lat="46.6389" lon="5.5246">
        <ele>438.32</ele>
        <time>2022-10-23T07:03:28Z</time>
      </trkpt>
      <trkpt lat="46.63882" lon="5.52481">
        <ele>437.28</ele>
        <time>2022-10-23T07:03:39Z</time>
      </trkpt>
      <trkpt lat="46.63881" lon="5.52483">
        <ele>439.7</ele>
        <time>2022-10-23T07:03:41Z</time>
      </trkpt>
      <trkpt lat="46.63879" lon="5.52486">
        <ele>439.63</ele>
        <time>2022-10-23T07:03:45Z</time>
      </trkpt>
      <trkpt lat="46.63884" lon="5.52485">
        <ele>439.52</ele>
        <time>2022-10-23T07:04:07Z</time>
      </trkpt>
      <trkpt lat="46.63879" lon="5.52489">
        <ele>439.45</ele>
        <time>2022-10-23T07:04:35Z</time>
      </trkpt>
      <trkpt lat="46.63886" lon="5.52488">
        <ele>439.44</ele>
        <time>2022-10-23T07:04:47Z</time>
      </trkpt>
      <trkpt lat="46.63889" lon="5.52493">
        <ele>439.47</ele>
        <time>2022-10-23T07:05:17Z</time>
      </trkpt>
      <trkpt lat="46.63894" lon="5.52492">
        <ele>439.65</ele>
        <time>2022-10-23T07:05:59Z</time>
      </trkpt>
      <trkpt lat="46.63895" lon="5.52492">
        <ele>437.41</ele>
        <time>2022-10-23T07:06:02Z</time>
      </trkpt>
      <trkpt lat="46.63894" lon="5.52491">
        <ele>437.65</ele>
        <time>2022-10-23T07:06:31Z</time>
      </trkpt>
      <trkpt lat="46.63894" lon="5.5249">
        <ele>434.62</ele>
        <time>2022-10-23T07:06:40Z</time>
      </trkpt>
      <trkpt lat="46.63894" lon="5.52489">
        <ele>438.61</ele>
        <time>2022-10-23T07:06:41Z</time>
      </trkpt>
      <trkpt lat="46.63893" lon="5.52488">
        <ele>438.91</ele>
        <time>2022-10-23T07:07:13Z</time>
      </trkpt>
      <trkpt lat="46.63894" lon="5.5249">
        <ele>439.18</ele>
        <time>2022-10-23T07:07:45Z</time>
      </trkpt>
      <trkpt lat="46.63897" lon="5.5249">
        <ele>439.43</ele>
        <time>2022-10-23T07:08:11Z</time>
      </trkpt>
      <trkpt lat="46.63902" lon="5.52487">
        <ele>439.9</ele>
        <time>2022-10-23T07:09:00Z</time>
      </trkpt>
      <trkpt lat="46.63901" lon="5.52487">
        <ele>440.31</ele>
        <time>2022-10-23T07:09:43Z</time>
      </trkpt>
      <trkpt lat="46.63901" lon="5.52488">
        <ele>440.76</ele>
        <time>2022-10-23T07:10:26Z</time>
      </trkpt>
      <trkpt lat="46.63897" lon="5.5249">
        <ele>441.23</ele>
        <time>2022-10-23T07:11:17Z</time>
      </trkpt>
      <trkpt lat="46.63894" lon="5.52492">
        <ele>441.57</ele>
        <time>2022-10-23T07:12:01Z</time>
      </trkpt>
      <trkpt lat="46.63893" lon="5.52493">
        <ele>441.91</ele>
        <time>2022-10-23T07:12:51Z</time>
      </trkpt>
      <trkpt lat="46.63894" lon="5.52492">
        <ele>442.18</ele>
        <time>2022-10-23T07:13:27Z</time>
      </trkpt>
      <trkpt lat="46.63895" lon="5.52494">
        <ele>442.41</ele>
        <time>2022-10-23T07:13:59Z</time>
      </trkpt>
      <trkpt lat="46.63894" lon="5.52494">
        <ele>442.67</ele>
        <time>2022-10-23T07:14:32Z</time>
      </trkpt>
      <trkpt lat="46.63894" lon="5.52494">
        <ele>442.89</ele>
        <time>2022-10-23T07:15:03Z</time>
      </trkpt>
      <trkpt lat="46.63894" lon="5.52495">
        <ele>443.32</ele>
        <time>2022-10-23T07:16:03Z</time>
      </trkpt>
      <trkpt lat="46.63892" lon="5.52494">
        <ele>443.72</ele>
        <time>2022-10-23T07:17:02Z</time>
      </trkpt>
      <trkpt lat="46.63892" lon="5.52492">
        <ele>443.89</ele>
        <time>2022-10-23T07:17:28Z</time>
      </trkpt>
      <trkpt lat="46.63894" lon="5.5249">
        <ele>444.05</ele>
        <time>2022-10-23T07:17:56Z</time>
      </trkpt>
      <trkpt lat="46.63896" lon="5.52488">
        <ele>444.2</ele>
        <time>2022-10-23T07:18:24Z</time>
      </trkpt>
      <trkpt lat="46.63896" lon="5.52489">
        <ele>444.4</ele>
        <time>2022-10-23T07:18:55Z</time>
      </trkpt>
      <trkpt lat="46.63898" lon="5.52496">
        <ele>444.5</ele>
        <time>2022-10-23T07:19:14Z</time>
      </trkpt>
      <trkpt lat="46.63898" lon="5.52517">
        <ele>445.83</ele>
        <time>2022-10-23T07:19:35Z</time>
      </trkpt>
      <trkpt lat="46.63898" lon="5.52527">
        <ele>447.22</ele>
        <time>2022-10-23T07:19:43Z</time>
      </trkpt>
      <trkpt lat="46.63899" lon="5.5255">
        <ele>447.29</ele>
        <time>2022-10-23T07:19:56Z</time>
      </trkpt>
      <trkpt lat="46.63912" lon="5.52588">
        <ele>447.36</ele>
        <time>2022-10-23T07:20:24Z</time>
      </trkpt>
      <trkpt lat="46.6393" lon="5.52605">
        <ele>449.16</ele>
        <time>2022-10-23T07:20:43Z</time>
      </trkpt>
      <trkpt lat="46.63943" lon="5.52624">
        <ele>449.14</ele>
        <time>2022-10-23T07:21:00Z</time>
      </trkpt>
      <trkpt lat="46.6396" lon="5.52642">
        <ele>451.08</ele>
        <time>2022-10-23T07:21:24Z</time>
      </trkpt>
      <trkpt lat="46.63976" lon="5.52669">
        <ele>451.98</ele>
        <time>2022-10-23T07:21:48Z</time>
      </trkpt>
      <trkpt lat="46.63985" lon="5.52678">
        <ele>449.62</ele>
        <time>2022-10-23T07:22:08Z</time>
      </trkpt>
      <trkpt lat="46.63988" lon="5.5268">
        <ele>449.64</ele>
        <time>2022-10-23T07:22:34Z</time>
      </trkpt>
      <trkpt lat="46.63985" lon="5.52695">
        <ele>448.51</ele>
        <time>2022-10-23T07:22:54Z</time>
      </trkpt>
      <trkpt lat="46.63985" lon="5.52697">
        <ele>446.94</ele>
        <time>2022-10-23T07:22:58Z</time>
      </trkpt>
      <trkpt lat="46.63979" lon="5.52699">
        <ele>446.02</ele>
        <time>2022-10-23T07:23:23Z</time>
      </trkpt>
      <trkpt lat="46.63978" lon="5.527">
        <ele>448.39</ele>
        <time>2022-10-23T07:23:35Z</time>
      </trkpt>
      <trkpt lat="46.63961" lon="5.5269">
        <ele>449.52</ele>
        <time>2022-10-23T07:23:58Z</time>
      </trkpt>
      <trkpt lat="46.63943" lon="5.52686">
        <ele>449.49</ele>
        <time>2022-10-23T07:24:14Z</time>
      </trkpt>
      <trkpt lat="46.63928" lon="5.52683">
        <ele>450.39</ele>
        <time>2022-10-23T07:24:28Z</time>
      </trkpt>
      <trkpt lat="46.63917" lon="5.52683">
        <ele>451.17</ele>
        <time>2022-10-23T07:24:38Z</time>
      </trkpt>
      <trkpt lat="46.63903" lon="5.52682">
        <ele>453.26</ele>
        <time>2022-10-23T07:24:53Z</time>
      </trkpt>
      <trkpt lat="46.63903" lon="5.52683">
        <ele>453.25</ele>
        <time>2022-10-23T07:24:54Z</time>
      </trkpt>
      <trkpt lat="46.63877" lon="5.52701">
        <ele>453.1</ele>
        <time>2022-10-23T07:25:14Z</time>
      </trkpt>
      <trkpt lat="46.63865" lon="5.52713">
        <ele>453.96</ele>
        <time>2022-10-23T07:25:24Z</time>
      </trkpt>
      <trkpt lat="46.63852" lon="5.52722">
        <ele>453.83</ele>
        <time>2022-10-23T07:25:36Z</time>
      </trkpt>
      <trkpt lat="46.63849" lon="5.52726">
        <ele>453.8</ele>
        <time>2022-10-23T07:25:39Z</time>
      </trkpt>
      <trkpt lat="46.63836" lon="5.52737">
        <ele>455.4</ele>
        <time>2022-10-23T07:25:51Z</time>
      </trkpt>
      <trkpt lat="46.63808" lon="5.52754">
        <ele>455.08</ele>
        <time>2022-10-23T07:26:15Z</time>
      </trkpt>
      <trkpt lat="46.63796" lon="5.52757">
        <ele>455.02</ele>
        <time>2022-10-23T07:26:25Z</time>
      </trkpt>
      <trkpt lat="46.63795" lon="5.52758">
        <ele>454.93</ele>
        <time>2022-10-23T07:26:26Z</time>
      </trkpt>
      <trkpt lat="46.63793" lon="5.52758">
        <ele>454.92</ele>
        <time>2022-10-23T07:26:27Z</time>
      </trkpt>
      <trkpt lat="46.63792" lon="5.52758">
        <ele>454.9</ele>
        <time>2022-10-23T07:26:28Z</time>
      </trkpt>
      <trkpt lat="46.6379" lon="5.52758">
        <ele>454.91</ele>
        <time>2022-10-23T07:26:29Z</time>
      </trkpt>
      <trkpt lat="46.63789" lon="5.52759">
        <ele>454.88</ele>
        <time>2022-10-23T07:26:30Z</time>
      </trkpt>
      <trkpt lat="46.63787" lon="5.52759">
        <ele>454.87</ele>
        <time>2022-10-23T07:26:31Z</time>
      </trkpt>
      <trkpt lat="46.63786" lon="5.5276">
        <ele>454.86</ele>
        <time>2022-10-23T07:26:32Z</time>
      </trkpt>
      <trkpt lat="46.63784" lon="5.5276">
        <ele>454.86</ele>
        <time>2022-10-23T07:26:33Z</time>
      </trkpt>
      <trkpt lat="46.63783" lon="5.52762">
        <ele>454.86</ele>
        <time>2022-10-23T07:26:34Z</time>
      </trkpt>
      <trkpt lat="46.63782" lon="5.52763">
        <ele>454.83</ele>
        <time>2022-10-23T07:26:35Z</time>
      </trkpt>
      <trkpt lat="46.6378" lon="5.52763">
        <ele>454.62</ele>
        <time>2022-10-23T07:26:36Z</time>
      </trkpt>
      <trkpt lat="46.63779" lon="5.52764">
        <ele>454.59</ele>
        <time>2022-10-23T07:26:37Z</time>
      </trkpt>
      <trkpt lat="46.63777" lon="5.52764">
        <ele>454.66</ele>
        <time>2022-10-23T07:26:38Z</time>
      </trkpt>
      <trkpt lat="46.63776" lon="5.52764">
        <ele>454.79</ele>
        <time>2022-10-23T07:26:39Z</time>
      </trkpt>
      <trkpt lat="46.63775" lon="5.52764">
        <ele>454.77</ele>
        <time>2022-10-23T07:26:40Z</time>
      </trkpt>
      <trkpt lat="46.63774" lon="5.52764">
        <ele>452.41</ele>
        <time>2022-10-23T07:26:41Z</time>
      </trkpt>
      <trkpt lat="46.63772" lon="5.52765">
        <ele>452.39</ele>
        <time>2022-10-23T07:26:42Z</time>
      </trkpt>
      <trkpt lat="46.63771" lon="5.52765">
        <ele>452.38</ele>
        <time>2022-10-23T07:26:43Z</time>
      </trkpt>
      <trkpt lat="46.63769" lon="5.52765">
        <ele>452.38</ele>
        <time>2022-10-23T07:26:44Z</time>
      </trkpt>
      <trkpt lat="46.6375" lon="5.52768">
        <ele>452.23</ele>
        <time>2022-10-23T07:26:58Z</time>
      </trkpt>
      <trkpt lat="46.63742" lon="5.5277">
        <ele>452.17</ele>
        <time>2022-10-23T07:27:03Z</time>
      </trkpt>
      <trkpt lat="46.6373" lon="5.52773">
        <ele>451.3</ele>
        <time>2022-10-23T07:27:10Z</time>
      </trkpt>
      <trkpt lat="46.63729" lon="5.52774">
        <ele>451.29</ele>
        <time>2022-10-23T07:27:11Z</time>
      </trkpt>
      <trkpt lat="46.63728" lon="5.52774">
        <ele>451.28</ele>
        <time>2022-10-23T07:27:12Z</time>
      </trkpt>
      <trkpt lat="46.63725" lon="5.52776">
        <ele>451.26</ele>
        <time>2022-10-23T07:27:14Z</time>
      </trkpt>
      <trkpt lat="46.63723" lon="5.52777">
        <ele>451.25</ele>
        <time>2022-10-23T07:27:15Z</time>
      </trkpt>
      <trkpt lat="46.63712" lon="5.52779">
        <ele>451.15</ele>
        <time>2022-10-23T07:27:23Z</time>
      </trkpt>
      <trkpt lat="46.63698" lon="5.5278">
        <ele>451.07</ele>
        <time>2022-10-23T07:27:35Z</time>
      </trkpt>
      <trkpt lat="46.63676" lon="5.52774">
        <ele>450.76</ele>
        <time>2022-10-23T07:27:50Z</time>
      </trkpt>
      <trkpt lat="46.63666" lon="5.52773">
        <ele>449.81</ele>
        <time>2022-10-23T07:27:57Z</time>
      </trkpt>
      <trkpt lat="46.63665" lon="5.52773">
        <ele>449.79</ele>
        <time>2022-10-23T07:27:58Z</time>
      </trkpt>
      <trkpt lat="46.63664" lon="5.52773">
        <ele>449.79</ele>
        <time>2022-10-23T07:27:59Z</time>
      </trkpt>
      <trkpt lat="46.63642" lon="5.5277">
        <ele>447.96</ele>
        <time>2022-10-23T07:28:13Z</time>
      </trkpt>
      <trkpt lat="46.63633" lon="5.52769">
        <ele>447.85</ele>
        <time>2022-10-23T07:28:19Z</time>
      </trkpt>
      <trkpt lat="46.63631" lon="5.52769">
        <ele>447.81</ele>
        <time>2022-10-23T07:28:20Z</time>
      </trkpt>
      <trkpt lat="46.6363" lon="5.52769">
        <ele>447.84</ele>
        <time>2022-10-23T07:28:21Z</time>
      </trkpt>
      <trkpt lat="46.63628" lon="5.52768">
        <ele>447.83</ele>
        <time>2022-10-23T07:28:22Z</time>
      </trkpt>
      <trkpt lat="46.63627" lon="5.52768">
        <ele>447.81</ele>
        <time>2022-10-23T07:28:23Z</time>
      </trkpt>
      <trkpt lat="46.63625" lon="5.52768">
        <ele>447.8</ele>
        <time>2022-10-23T07:28:24Z</time>
      </trkpt>
      <trkpt lat="46.63612" lon="5.52766">
        <ele>445.79</ele>
        <time>2022-10-23T07:28:34Z</time>
      </trkpt>
      <trkpt lat="46.63602" lon="5.52766">
        <ele>448.05</ele>
        <time>2022-10-23T07:28:41Z</time>
      </trkpt>
      <trkpt lat="46.63585" lon="5.52761">
        <ele>449.31</ele>
        <time>2022-10-23T07:28:53Z</time>
      </trkpt>
      <trkpt lat="46.63561" lon="5.52761">
        <ele>450.14</ele>
        <time>2022-10-23T07:29:07Z</time>
      </trkpt>
      <trkpt lat="46.63556" lon="5.52761">
        <ele>448.47</ele>
        <time>2022-10-23T07:29:10Z</time>
      </trkpt>
      <trkpt lat="46.63553" lon="5.52761">
        <ele>446.76</ele>
        <time>2022-10-23T07:29:12Z</time>
      </trkpt>
      <trkpt lat="46.6353" lon="5.52763">
        <ele>446.67</ele>
        <time>2022-10-23T07:29:26Z</time>
      </trkpt>
      <trkpt lat="46.63517" lon="5.5276">
        <ele>448.87</ele>
        <time>2022-10-23T07:29:36Z</time>
      </trkpt>
      <trkpt lat="46.63499" lon="5.5276">
        <ele>448.88</ele>
        <time>2022-10-23T07:29:50Z</time>
      </trkpt>
      <trkpt lat="46.63496" lon="5.5276">
        <ele>446.43</ele>
        <time>2022-10-23T07:29:52Z</time>
      </trkpt>
      <trkpt lat="46.63495" lon="5.5276">
        <ele>446.42</ele>
        <time>2022-10-23T07:29:53Z</time>
      </trkpt>
      <trkpt lat="46.63481" lon="5.52761">
        <ele>445.56</ele>
        <time>2022-10-23T07:30:06Z</time>
      </trkpt>
      <trkpt lat="46.6345" lon="5.52751">
        <ele>445.44</ele>
        <time>2022-10-23T07:30:26Z</time>
      </trkpt>
      <trkpt lat="46.63436" lon="5.52742">
        <ele>444.49</ele>
        <time>2022-10-23T07:30:38Z</time>
      </trkpt>
      <trkpt lat="46.63434" lon="5.52741">
        <ele>444.44</ele>
        <time>2022-10-23T07:30:39Z</time>
      </trkpt>
      <trkpt lat="46.63414" lon="5.52756">
        <ele>442.93</ele>
        <time>2022-10-23T07:30:52Z</time>
      </trkpt>
      <trkpt lat="46.63399" lon="5.52773">
        <ele>445.52</ele>
        <time>2022-10-23T07:31:04Z</time>
      </trkpt>
      <trkpt lat="46.6339" lon="5.52789">
        <ele>442.72</ele>
        <time>2022-10-23T07:31:13Z</time>
      </trkpt>
      <trkpt lat="46.63377" lon="5.5281">
        <ele>440.79</ele>
        <time>2022-10-23T07:31:27Z</time>
      </trkpt>
      <trkpt lat="46.63359" lon="5.52824">
        <ele>438.63</ele>
        <time>2022-10-23T07:31:41Z</time>
      </trkpt>
      <trkpt lat="46.63344" lon="5.52835">
        <ele>437.29</ele>
        <time>2022-10-23T07:31:52Z</time>
      </trkpt>
      <trkpt lat="46.63325" lon="5.5284">
        <ele>435.25</ele>
        <time>2022-10-23T07:32:06Z</time>
      </trkpt>
      <trkpt lat="46.63305" lon="5.52834">
        <ele>433.31</ele>
        <time>2022-10-23T07:32:20Z</time>
      </trkpt>
      <trkpt lat="46.63298" lon="5.52832">
        <ele>435.65</ele>
        <time>2022-10-23T07:32:24Z</time>
      </trkpt>
      <trkpt lat="46.63295" lon="5.52832">
        <ele>432.43</ele>
        <time>2022-10-23T07:32:26Z</time>
      </trkpt>
      <trkpt lat="46.63293" lon="5.52831">
        <ele>432.42</ele>
        <time>2022-10-23T07:32:27Z</time>
      </trkpt>
      <trkpt lat="46.63276" lon="5.52834">
        <ele>432.28</ele>
        <time>2022-10-23T07:32:40Z</time>
      </trkpt>
      <trkpt lat="46.63275" lon="5.52835">
        <ele>432.29</ele>
        <time>2022-10-23T07:32:41Z</time>
      </trkpt>
      <trkpt lat="46.63274" lon="5.52835">
        <ele>432.18</ele>
        <time>2022-10-23T07:32:42Z</time>
      </trkpt>
      <trkpt lat="46.63272" lon="5.52836">
        <ele>432.19</ele>
        <time>2022-10-23T07:32:43Z</time>
      </trkpt>
      <trkpt lat="46.63271" lon="5.52836">
        <ele>432.25</ele>
        <time>2022-10-23T07:32:44Z</time>
      </trkpt>
      <trkpt lat="46.6327" lon="5.52837">
        <ele>432.24</ele>
        <time>2022-10-23T07:32:45Z</time>
      </trkpt>
      <trkpt lat="46.63268" lon="5.52837">
        <ele>432.17</ele>
        <time>2022-10-23T07:32:46Z</time>
      </trkpt>
      <trkpt lat="46.63267" lon="5.52838">
        <ele>432.12</ele>
        <time>2022-10-23T07:32:47Z</time>
      </trkpt>
      <trkpt lat="46.63266" lon="5.52838">
        <ele>432.09</ele>
        <time>2022-10-23T07:32:48Z</time>
      </trkpt>
      <trkpt lat="46.63264" lon="5.52836">
        <ele>432.04</ele>
        <time>2022-10-23T07:32:49Z</time>
      </trkpt>
      <trkpt lat="46.63263" lon="5.52836">
        <ele>432.07</ele>
        <time>2022-10-23T07:32:50Z</time>
      </trkpt>
      <trkpt lat="46.63239" lon="5.52831">
        <ele>431.24</ele>
        <time>2022-10-23T07:33:05Z</time>
      </trkpt>
      <trkpt lat="46.63215" lon="5.52834">
        <ele>430.17</ele>
        <time>2022-10-23T07:33:21Z</time>
      </trkpt>
      <trkpt lat="46.63213" lon="5.52835">
        <ele>430.13</ele>
        <time>2022-10-23T07:33:23Z</time>
      </trkpt>
      <trkpt lat="46.63211" lon="5.52835">
        <ele>430.22</ele>
        <time>2022-10-23T07:33:24Z</time>
      </trkpt>
      <trkpt lat="46.63191" lon="5.52839">
        <ele>430.09</ele>
        <time>2022-10-23T07:33:38Z</time>
      </trkpt>
      <trkpt lat="46.6319" lon="5.5284">
        <ele>430.08</ele>
        <time>2022-10-23T07:33:39Z</time>
      </trkpt>
      <trkpt lat="46.63173" lon="5.52849">
        <ele>429.16</ele>
        <time>2022-10-23T07:33:52Z</time>
      </trkpt>
      <trkpt lat="46.63152" lon="5.52852">
        <ele>428.99</ele>
        <time>2022-10-23T07:34:08Z</time>
      </trkpt>
      <trkpt lat="46.6315" lon="5.52853">
        <ele>429.04</ele>
        <time>2022-10-23T07:34:09Z</time>
      </trkpt>
      <trkpt lat="46.63149" lon="5.52853">
        <ele>428.2</ele>
        <time>2022-10-23T07:34:10Z</time>
      </trkpt>
      <trkpt lat="46.63129" lon="5.52871">
        <ele>428.15</ele>
        <time>2022-10-23T07:34:25Z</time>
      </trkpt>
      <trkpt lat="46.63113" lon="5.5289">
        <ele>428.21</ele>
        <time>2022-10-23T07:34:40Z</time>
      </trkpt>
      <trkpt lat="46.63094" lon="5.52913">
        <ele>427.27</ele>
        <time>2022-10-23T07:34:56Z</time>
      </trkpt>
      <trkpt lat="46.63077" lon="5.52931">
        <ele>427.21</ele>
        <time>2022-10-23T07:35:12Z</time>
      </trkpt>
      <trkpt lat="46.63075" lon="5.52932">
        <ele>429.61</ele>
        <time>2022-10-23T07:35:14Z</time>
      </trkpt>
      <trkpt lat="46.6306" lon="5.52944">
        <ele>429.51</ele>
        <time>2022-10-23T07:35:25Z</time>
      </trkpt>
      <trkpt lat="46.63059" lon="5.52945">
        <ele>429.59</ele>
        <time>2022-10-23T07:35:26Z</time>
      </trkpt>
      <trkpt lat="46.63039" lon="5.52961">
        <ele>430.52</ele>
        <time>2022-10-23T07:35:41Z</time>
      </trkpt>
      <trkpt lat="46.63016" lon="5.52974">
        <ele>430.59</ele>
        <time>2022-10-23T07:35:58Z</time>
      </trkpt>
      <trkpt lat="46.62997" lon="5.52978">
        <ele>428.32</ele>
        <time>2022-10-23T07:36:11Z</time>
      </trkpt>
      <trkpt lat="46.6297" lon="5.52969">
        <ele>426.56</ele>
        <time>2022-10-23T07:36:31Z</time>
      </trkpt>
      <trkpt lat="46.62939" lon="5.52952">
        <ele>425.78</ele>
        <time>2022-10-23T07:36:54Z</time>
      </trkpt>
      <trkpt lat="46.62916" lon="5.52927">
        <ele>425</ele>
        <time>2022-10-23T07:37:15Z</time>
      </trkpt>
      <trkpt lat="46.62889" lon="5.52909">
        <ele>424.4</ele>
        <time>2022-10-23T07:37:37Z</time>
      </trkpt>
      <trkpt lat="46.62864" lon="5.52899">
        <ele>422.41</ele>
        <time>2022-10-23T07:37:55Z</time>
      </trkpt>
      <trkpt lat="46.62858" lon="5.52897">
        <ele>425.29</ele>
        <time>2022-10-23T07:37:59Z</time>
      </trkpt>
      <trkpt lat="46.62855" lon="5.52895">
        <ele>421.41</ele>
        <time>2022-10-23T07:38:02Z</time>
      </trkpt>
      <trkpt lat="46.62854" lon="5.52894">
        <ele>421.48</ele>
        <time>2022-10-23T07:38:03Z</time>
      </trkpt>
      <trkpt lat="46.62845" lon="5.5289">
        <ele>423.94</ele>
        <time>2022-10-23T07:38:10Z</time>
      </trkpt>
      <trkpt lat="46.62824" lon="5.52894">
        <ele>423.83</ele>
        <time>2022-10-23T07:38:25Z</time>
      </trkpt>
      <trkpt lat="46.62802" lon="5.52893">
        <ele>424.84</ele>
        <time>2022-10-23T07:38:42Z</time>
      </trkpt>
      <trkpt lat="46.628" lon="5.52893">
        <ele>422.49</ele>
        <time>2022-10-23T07:38:44Z</time>
      </trkpt>
      <trkpt lat="46.62773" lon="5.52891">
        <ele>425.43</ele>
        <time>2022-10-23T07:39:03Z</time>
      </trkpt>
      <trkpt lat="46.62772" lon="5.52891">
        <ele>425.48</ele>
        <time>2022-10-23T07:39:04Z</time>
      </trkpt>
      <trkpt lat="46.62746" lon="5.52884">
        <ele>423.04</ele>
        <time>2022-10-23T07:39:24Z</time>
      </trkpt>
      <trkpt lat="46.62733" lon="5.52881">
        <ele>420.46</ele>
        <time>2022-10-23T07:39:34Z</time>
      </trkpt>
      <trkpt lat="46.62729" lon="5.5288">
        <ele>422.89</ele>
        <time>2022-10-23T07:39:37Z</time>
      </trkpt>
      <trkpt lat="46.62709" lon="5.52871">
        <ele>420.54</ele>
        <time>2022-10-23T07:39:51Z</time>
      </trkpt>
      <trkpt lat="46.6269" lon="5.52876">
        <ele>420.81</ele>
        <time>2022-10-23T07:40:06Z</time>
      </trkpt>
      <trkpt lat="46.62677" lon="5.52891">
        <ele>423.41</ele>
        <time>2022-10-23T07:40:19Z</time>
      </trkpt>
      <trkpt lat="46.62665" lon="5.52919">
        <ele>423.45</ele>
        <time>2022-10-23T07:40:36Z</time>
      </trkpt>
      <trkpt lat="46.62656" lon="5.52947">
        <ele>426.17</ele>
        <time>2022-10-23T07:40:52Z</time>
      </trkpt>
      <trkpt lat="46.62652" lon="5.52966">
        <ele>427.74</ele>
        <time>2022-10-23T07:41:02Z</time>
      </trkpt>
      <trkpt lat="46.62648" lon="5.52989">
        <ele>425.52</ele>
        <time>2022-10-23T07:41:14Z</time>
      </trkpt>
      <trkpt lat="46.62641" lon="5.53026">
        <ele>423.39</ele>
        <time>2022-10-23T07:41:34Z</time>
      </trkpt>
      <trkpt lat="46.62632" lon="5.53061">
        <ele>422.83</ele>
        <time>2022-10-23T07:41:52Z</time>
      </trkpt>
      <trkpt lat="46.6262" lon="5.53102">
        <ele>421.1</ele>
        <time>2022-10-23T07:42:15Z</time>
      </trkpt>
      <trkpt lat="46.626" lon="5.53143">
        <ele>419.65</ele>
        <time>2022-10-23T07:42:39Z</time>
      </trkpt>
      <trkpt lat="46.62592" lon="5.53155">
        <ele>417.96</ele>
        <time>2022-10-23T07:42:48Z</time>
      </trkpt>
      <trkpt lat="46.62591" lon="5.53157">
        <ele>417.98</ele>
        <time>2022-10-23T07:42:49Z</time>
      </trkpt>
      <trkpt lat="46.6259" lon="5.53159">
        <ele>417.98</ele>
        <time>2022-10-23T07:42:50Z</time>
      </trkpt>
      <trkpt lat="46.6259" lon="5.53161">
        <ele>417.94</ele>
        <time>2022-10-23T07:42:51Z</time>
      </trkpt>
      <trkpt lat="46.62589" lon="5.53162">
        <ele>417.97</ele>
        <time>2022-10-23T07:42:52Z</time>
      </trkpt>
      <trkpt lat="46.62588" lon="5.53164">
        <ele>417.98</ele>
        <time>2022-10-23T07:42:53Z</time>
      </trkpt>
      <trkpt lat="46.62587" lon="5.53165">
        <ele>417.99</ele>
        <time>2022-10-23T07:42:54Z</time>
      </trkpt>
      <trkpt lat="46.62587" lon="5.53167">
        <ele>417.99</ele>
        <time>2022-10-23T07:42:55Z</time>
      </trkpt>
      <trkpt lat="46.62571" lon="5.5319">
        <ele>418.07</ele>
        <time>2022-10-23T07:43:12Z</time>
      </trkpt>
      <trkpt lat="46.62551" lon="5.5321">
        <ele>418.24</ele>
        <time>2022-10-23T07:43:31Z</time>
      </trkpt>
      <trkpt lat="46.62528" lon="5.53211">
        <ele>418.26</ele>
        <time>2022-10-23T07:43:48Z</time>
      </trkpt>
      <trkpt lat="46.62509" lon="5.53214">
        <ele>418.29</ele>
        <time>2022-10-23T07:44:03Z</time>
      </trkpt>
      <trkpt lat="46.62494" lon="5.53209">
        <ele>420.86</ele>
        <time>2022-10-23T07:44:16Z</time>
      </trkpt>
      <trkpt lat="46.62485" lon="5.53208">
        <ele>420.81</ele>
        <time>2022-10-23T07:44:23Z</time>
      </trkpt>
      <trkpt lat="46.62484" lon="5.53209">
        <ele>417.55</ele>
        <time>2022-10-23T07:44:24Z</time>
      </trkpt>
      <trkpt lat="46.62483" lon="5.5321">
        <ele>417.54</ele>
        <time>2022-10-23T07:44:25Z</time>
      </trkpt>
      <trkpt lat="46.62481" lon="5.5321">
        <ele>420.64</ele>
        <time>2022-10-23T07:44:26Z</time>
      </trkpt>
      <trkpt lat="46.62478" lon="5.5321">
        <ele>422.12</ele>
        <time>2022-10-23T07:44:28Z</time>
      </trkpt>
      <trkpt lat="46.62475" lon="5.53207">
        <ele>418.25</ele>
        <time>2022-10-23T07:44:30Z</time>
      </trkpt>
      <trkpt lat="46.62473" lon="5.53206">
        <ele>418.25</ele>
        <time>2022-10-23T07:44:31Z</time>
      </trkpt>
      <trkpt lat="46.62456" lon="5.53198">
        <ele>420.77</ele>
        <time>2022-10-23T07:44:45Z</time>
      </trkpt>
      <trkpt lat="46.62435" lon="5.53202">
        <ele>420.7</ele>
        <time>2022-10-23T07:45:00Z</time>
      </trkpt>
      <trkpt lat="46.62428" lon="5.53209">
        <ele>418.31</ele>
        <time>2022-10-23T07:45:07Z</time>
      </trkpt>
      <trkpt lat="46.62414" lon="5.53208">
        <ele>414.34</ele>
        <time>2022-10-23T07:45:18Z</time>
      </trkpt>
      <trkpt lat="46.62413" lon="5.53208">
        <ele>421.92</ele>
        <time>2022-10-23T07:45:19Z</time>
      </trkpt>
      <trkpt lat="46.6241" lon="5.53208">
        <ele>423.6</ele>
        <time>2022-10-23T07:45:21Z</time>
      </trkpt>
      <trkpt lat="46.62408" lon="5.53208">
        <ele>419.95</ele>
        <time>2022-10-23T07:45:23Z</time>
      </trkpt>
      <trkpt lat="46.62406" lon="5.53208">
        <ele>419.95</ele>
        <time>2022-10-23T07:45:24Z</time>
      </trkpt>
      <trkpt lat="46.62397" lon="5.53208">
        <ele>416.17</ele>
        <time>2022-10-23T07:45:32Z</time>
      </trkpt>
      <trkpt lat="46.62395" lon="5.53208">
        <ele>416.16</ele>
        <time>2022-10-23T07:45:33Z</time>
      </trkpt>
      <trkpt lat="46.62391" lon="5.53208">
        <ele>418.97</ele>
        <time>2022-10-23T07:45:37Z</time>
      </trkpt>
      <trkpt lat="46.62375" lon="5.53211">
        <ele>420.28</ele>
        <time>2022-10-23T07:45:50Z</time>
      </trkpt>
      <trkpt lat="46.62374" lon="5.53212">
        <ele>415.97</ele>
        <time>2022-10-23T07:45:51Z</time>
      </trkpt>
      <trkpt lat="46.62373" lon="5.53212">
        <ele>420.52</ele>
        <time>2022-10-23T07:45:52Z</time>
      </trkpt>
      <trkpt lat="46.6237" lon="5.53212">
        <ele>421.36</ele>
        <time>2022-10-23T07:45:54Z</time>
      </trkpt>
      <trkpt lat="46.62348" lon="5.5322">
        <ele>421.33</ele>
        <time>2022-10-23T07:46:10Z</time>
      </trkpt>
      <trkpt lat="46.62331" lon="5.5323">
        <ele>422.51</ele>
        <time>2022-10-23T07:46:26Z</time>
      </trkpt>
      <trkpt lat="46.62323" lon="5.53231">
        <ele>423.54</ele>
        <time>2022-10-23T07:46:41Z</time>
      </trkpt>
      <trkpt lat="46.623" lon="5.53248">
        <ele>424.54</ele>
        <time>2022-10-23T07:47:02Z</time>
      </trkpt>
      <trkpt lat="46.62282" lon="5.53263">
        <ele>425.53</ele>
        <time>2022-10-23T07:47:19Z</time>
      </trkpt>
      <trkpt lat="46.62261" lon="5.53281">
        <ele>426.58</ele>
        <time>2022-10-23T07:47:38Z</time>
      </trkpt>
      <trkpt lat="46.62256" lon="5.53284">
        <ele>427.84</ele>
        <time>2022-10-23T07:47:43Z</time>
      </trkpt>
      <trkpt lat="46.62247" lon="5.53289">
        <ele>427.99</ele>
        <time>2022-10-23T07:47:52Z</time>
      </trkpt>
      <trkpt lat="46.62238" lon="5.53296">
        <ele>427.58</ele>
        <time>2022-10-23T07:48:01Z</time>
      </trkpt>
      <trkpt lat="46.62234" lon="5.53297">
        <ele>429.89</ele>
        <time>2022-10-23T07:48:05Z</time>
      </trkpt>
      <trkpt lat="46.62229" lon="5.53299">
        <ele>430.94</ele>
        <time>2022-10-23T07:48:11Z</time>
      </trkpt>
      <trkpt lat="46.62217" lon="5.53304">
        <ele>432.06</ele>
        <time>2022-10-23T07:48:23Z</time>
      </trkpt>
      <trkpt lat="46.62206" lon="5.53307">
        <ele>433.26</ele>
        <time>2022-10-23T07:48:33Z</time>
      </trkpt>
      <trkpt lat="46.62195" lon="5.53308">
        <ele>433.3</ele>
        <time>2022-10-23T07:48:42Z</time>
      </trkpt>
      <trkpt lat="46.62185" lon="5.5331">
        <ele>434.16</ele>
        <time>2022-10-23T07:48:52Z</time>
      </trkpt>
      <trkpt lat="46.62172" lon="5.53315">
        <ele>435.04</ele>
        <time>2022-10-23T07:49:01Z</time>
      </trkpt>
      <trkpt lat="46.62158" lon="5.53316">
        <ele>435</ele>
        <time>2022-10-23T07:49:13Z</time>
      </trkpt>
      <trkpt lat="46.62134" lon="5.53323">
        <ele>436.21</ele>
        <time>2022-10-23T07:49:35Z</time>
      </trkpt>
      <trkpt lat="46.62112" lon="5.53331">
        <ele>436.19</ele>
        <time>2022-10-23T07:49:53Z</time>
      </trkpt>
      <trkpt lat="46.62087" lon="5.53344">
        <ele>434.38</ele>
        <time>2022-10-23T07:50:14Z</time>
      </trkpt>
      <trkpt lat="46.62073" lon="5.53344">
        <ele>437.02</ele>
        <time>2022-10-23T07:50:24Z</time>
      </trkpt>
      <trkpt lat="46.62063" lon="5.53344">
        <ele>437.08</ele>
        <time>2022-10-23T07:50:32Z</time>
      </trkpt>
      <trkpt lat="46.62062" lon="5.53344">
        <ele>437.05</ele>
        <time>2022-10-23T07:50:33Z</time>
      </trkpt>
      <trkpt lat="46.62059" lon="5.53343">
        <ele>437.09</ele>
        <time>2022-10-23T07:50:35Z</time>
      </trkpt>
      <trkpt lat="46.62058" lon="5.53342">
        <ele>434.77</ele>
        <time>2022-10-23T07:50:36Z</time>
      </trkpt>
      <trkpt lat="46.62056" lon="5.53342">
        <ele>434.77</ele>
        <time>2022-10-23T07:50:37Z</time>
      </trkpt>
      <trkpt lat="46.6205" lon="5.53341">
        <ele>437.22</ele>
        <time>2022-10-23T07:50:41Z</time>
      </trkpt>
      <trkpt lat="46.62027" lon="5.5334">
        <ele>434.58</ele>
        <time>2022-10-23T07:50:58Z</time>
      </trkpt>
      <trkpt lat="46.62004" lon="5.53337">
        <ele>437.07</ele>
        <time>2022-10-23T07:51:15Z</time>
      </trkpt>
      <trkpt lat="46.61972" lon="5.53342">
        <ele>437.18</ele>
        <time>2022-10-23T07:51:39Z</time>
      </trkpt>
      <trkpt lat="46.61949" lon="5.53346">
        <ele>440.03</ele>
        <time>2022-10-23T07:51:56Z</time>
      </trkpt>
      <trkpt lat="46.61946" lon="5.53346">
        <ele>437.63</ele>
        <time>2022-10-23T07:52:01Z</time>
      </trkpt>
      <trkpt lat="46.61942" lon="5.53349">
        <ele>437.61</ele>
        <time>2022-10-23T07:52:05Z</time>
      </trkpt>
      <trkpt lat="46.61929" lon="5.53367">
        <ele>437.68</ele>
        <time>2022-10-23T07:52:18Z</time>
      </trkpt>
      <trkpt lat="46.61912" lon="5.53387">
        <ele>437.7</ele>
        <time>2022-10-23T07:52:34Z</time>
      </trkpt>
      <trkpt lat="46.61902" lon="5.53399">
        <ele>437.81</ele>
        <time>2022-10-23T07:52:45Z</time>
      </trkpt>
      <trkpt lat="46.61876" lon="5.53411">
        <ele>437.83</ele>
        <time>2022-10-23T07:53:05Z</time>
      </trkpt>
      <trkpt lat="46.6186" lon="5.53416">
        <ele>435.41</ele>
        <time>2022-10-23T07:53:18Z</time>
      </trkpt>
      <trkpt lat="46.61839" lon="5.53438">
        <ele>435.36</ele>
        <time>2022-10-23T07:53:33Z</time>
      </trkpt>
      <trkpt lat="46.61836" lon="5.53445">
        <ele>433.83</ele>
        <time>2022-10-23T07:53:37Z</time>
      </trkpt>
      <trkpt lat="46.61834" lon="5.53448">
        <ele>432.48</ele>
        <time>2022-10-23T07:53:39Z</time>
      </trkpt>
      <trkpt lat="46.61828" lon="5.53453">
        <ele>434.81</ele>
        <time>2022-10-23T07:53:43Z</time>
      </trkpt>
      <trkpt lat="46.61816" lon="5.53463">
        <ele>432.32</ele>
        <time>2022-10-23T07:53:52Z</time>
      </trkpt>
      <trkpt lat="46.618" lon="5.53471">
        <ele>431.29</ele>
        <time>2022-10-23T07:54:05Z</time>
      </trkpt>
      <trkpt lat="46.61778" lon="5.53473">
        <ele>431.45</ele>
        <time>2022-10-23T07:54:21Z</time>
      </trkpt>
      <trkpt lat="46.61768" lon="5.53474">
        <ele>431.53</ele>
        <time>2022-10-23T07:54:29Z</time>
      </trkpt>
      <trkpt lat="46.61756" lon="5.53475">
        <ele>430.66</ele>
        <time>2022-10-23T07:54:40Z</time>
      </trkpt>
      <trkpt lat="46.61746" lon="5.53476">
        <ele>430.78</ele>
        <time>2022-10-23T07:54:49Z</time>
      </trkpt>
      <trkpt lat="46.61744" lon="5.53476">
        <ele>430.79</ele>
        <time>2022-10-23T07:54:50Z</time>
      </trkpt>
      <trkpt lat="46.6173" lon="5.53479">
        <ele>430.87</ele>
        <time>2022-10-23T07:55:00Z</time>
      </trkpt>
      <trkpt lat="46.61729" lon="5.53478">
        <ele>430.84</ele>
        <time>2022-10-23T07:55:01Z</time>
      </trkpt>
      <trkpt lat="46.61727" lon="5.53478">
        <ele>430.83</ele>
        <time>2022-10-23T07:55:02Z</time>
      </trkpt>
      <trkpt lat="46.61725" lon="5.53477">
        <ele>430.86</ele>
        <time>2022-10-23T07:55:03Z</time>
      </trkpt>
      <trkpt lat="46.61723" lon="5.53477">
        <ele>430.88</ele>
        <time>2022-10-23T07:55:04Z</time>
      </trkpt>
      <trkpt lat="46.61721" lon="5.53477">
        <ele>430.89</ele>
        <time>2022-10-23T07:55:05Z</time>
      </trkpt>
      <trkpt lat="46.61716" lon="5.53475">
        <ele>430.93</ele>
        <time>2022-10-23T07:55:08Z</time>
      </trkpt>
      <trkpt lat="46.61706" lon="5.53471">
        <ele>433.27</ele>
        <time>2022-10-23T07:55:14Z</time>
      </trkpt>
      <trkpt lat="46.61688" lon="5.53471">
        <ele>432.21</ele>
        <time>2022-10-23T07:55:25Z</time>
      </trkpt>
      <trkpt lat="46.61674" lon="5.53469">
        <ele>432.29</ele>
        <time>2022-10-23T07:55:34Z</time>
      </trkpt>
      <trkpt lat="46.61672" lon="5.53469">
        <ele>434.62</ele>
        <time>2022-10-23T07:55:36Z</time>
      </trkpt>
      <trkpt lat="46.61654" lon="5.53464">
        <ele>435.53</ele>
        <time>2022-10-23T07:55:52Z</time>
      </trkpt>
      <trkpt lat="46.6164" lon="5.5346">
        <ele>436.47</ele>
        <time>2022-10-23T07:56:04Z</time>
      </trkpt>
      <trkpt lat="46.61628" lon="5.53461">
        <ele>437.38</ele>
        <time>2022-10-23T07:56:13Z</time>
      </trkpt>
      <trkpt lat="46.61606" lon="5.53464">
        <ele>439.55</ele>
        <time>2022-10-23T07:56:28Z</time>
      </trkpt>
      <trkpt lat="46.61588" lon="5.53477">
        <ele>440.66</ele>
        <time>2022-10-23T07:56:44Z</time>
      </trkpt>
      <trkpt lat="46.61584" lon="5.53482">
        <ele>441.98</ele>
        <time>2022-10-23T07:56:49Z</time>
      </trkpt>
      <trkpt lat="46.61581" lon="5.53486">
        <ele>442.08</ele>
        <time>2022-10-23T07:56:53Z</time>
      </trkpt>
      <trkpt lat="46.61573" lon="5.53495">
        <ele>444.38</ele>
        <time>2022-10-23T07:57:04Z</time>
      </trkpt>
      <trkpt lat="46.61564" lon="5.53509">
        <ele>448.88</ele>
        <time>2022-10-23T07:57:22Z</time>
      </trkpt>
      <trkpt lat="46.61562" lon="5.53514">
        <ele>450.41</ele>
        <time>2022-10-23T07:57:24Z</time>
      </trkpt>
      <trkpt lat="46.61558" lon="5.53524">
        <ele>447.93</ele>
        <time>2022-10-23T07:57:34Z</time>
      </trkpt>
      <trkpt lat="46.61555" lon="5.53533">
        <ele>450.35</ele>
        <time>2022-10-23T07:57:43Z</time>
      </trkpt>
      <trkpt lat="46.6155" lon="5.53541">
        <ele>453.37</ele>
        <time>2022-10-23T07:57:53Z</time>
      </trkpt>
      <trkpt lat="46.61541" lon="5.5355">
        <ele>455.58</ele>
        <time>2022-10-23T07:58:09Z</time>
      </trkpt>
      <trkpt lat="46.6154" lon="5.53554">
        <ele>457.64</ele>
        <time>2022-10-23T07:58:12Z</time>
      </trkpt>
      <trkpt lat="46.61536" lon="5.53563">
        <ele>458.59</ele>
        <time>2022-10-23T07:58:23Z</time>
      </trkpt>
      <trkpt lat="46.61535" lon="5.53566">
        <ele>459.96</ele>
        <time>2022-10-23T07:58:26Z</time>
      </trkpt>
      <trkpt lat="46.61533" lon="5.53572">
        <ele>461.82</ele>
        <time>2022-10-23T07:58:31Z</time>
      </trkpt>
      <trkpt lat="46.61527" lon="5.53585">
        <ele>462.9</ele>
        <time>2022-10-23T07:58:46Z</time>
      </trkpt>
      <trkpt lat="46.6152" lon="5.53604">
        <ele>465.68</ele>
        <time>2022-10-23T07:59:01Z</time>
      </trkpt>
      <trkpt lat="46.61515" lon="5.53618">
        <ele>467.81</ele>
        <time>2022-10-23T07:59:13Z</time>
      </trkpt>
      <trkpt lat="46.61511" lon="5.5363">
        <ele>470.04</ele>
        <time>2022-10-23T07:59:23Z</time>
      </trkpt>
      <trkpt lat="46.6151" lon="5.53636">
        <ele>471.36</ele>
        <time>2022-10-23T07:59:27Z</time>
      </trkpt>
      <trkpt lat="46.6151" lon="5.53637">
        <ele>471.38</ele>
        <time>2022-10-23T07:59:28Z</time>
      </trkpt>
      <trkpt lat="46.61506" lon="5.5365">
        <ele>474.57</ele>
        <time>2022-10-23T07:59:42Z</time>
      </trkpt>
      <trkpt lat="46.61504" lon="5.53653">
        <ele>475.4</ele>
        <time>2022-10-23T07:59:49Z</time>
      </trkpt>
      <trkpt lat="46.61503" lon="5.53659">
        <ele>476.64</ele>
        <time>2022-10-23T07:59:58Z</time>
      </trkpt>
      <trkpt lat="46.61502" lon="5.53678">
        <ele>480.7</ele>
        <time>2022-10-23T08:00:16Z</time>
      </trkpt>
      <trkpt lat="46.61508" lon="5.53708">
        <ele>483.85</ele>
        <time>2022-10-23T08:00:33Z</time>
      </trkpt>
      <trkpt lat="46.61509" lon="5.53709">
        <ele>483.87</ele>
        <time>2022-10-23T08:00:34Z</time>
      </trkpt>
      <trkpt lat="46.61513" lon="5.53709">
        <ele>481.46</ele>
        <time>2022-10-23T08:00:43Z</time>
      </trkpt>
      <trkpt lat="46.6154" lon="5.53715">
        <ele>481.51</ele>
        <time>2022-10-23T08:01:06Z</time>
      </trkpt>
      <trkpt lat="46.61561" lon="5.53721">
        <ele>483.3</ele>
        <time>2022-10-23T08:01:27Z</time>
      </trkpt>
      <trkpt lat="46.6158" lon="5.53732">
        <ele>482.93</ele>
        <time>2022-10-23T08:01:48Z</time>
      </trkpt>
      <trkpt lat="46.61601" lon="5.53743">
        <ele>482.94</ele>
        <time>2022-10-23T08:02:09Z</time>
      </trkpt>
      <trkpt lat="46.61619" lon="5.53751">
        <ele>482.95</ele>
        <time>2022-10-23T08:02:25Z</time>
      </trkpt>
      <trkpt lat="46.61623" lon="5.53752">
        <ele>479.85</ele>
        <time>2022-10-23T08:02:29Z</time>
      </trkpt>
      <trkpt lat="46.61624" lon="5.53753">
        <ele>479.85</ele>
        <time>2022-10-23T08:02:30Z</time>
      </trkpt>
      <trkpt lat="46.6163" lon="5.53758">
        <ele>483.81</ele>
        <time>2022-10-23T08:02:39Z</time>
      </trkpt>
      <trkpt lat="46.61631" lon="5.53759">
        <ele>483.84</ele>
        <time>2022-10-23T08:02:40Z</time>
      </trkpt>
      <trkpt lat="46.61635" lon="5.5376">
        <ele>483.84</ele>
        <time>2022-10-23T08:02:47Z</time>
      </trkpt>
      <trkpt lat="46.61639" lon="5.53765">
        <ele>481.56</ele>
        <time>2022-10-23T08:02:51Z</time>
      </trkpt>
      <trkpt lat="46.6164" lon="5.53767">
        <ele>481.51</ele>
        <time>2022-10-23T08:02:53Z</time>
      </trkpt>
      <trkpt lat="46.61655" lon="5.53774">
        <ele>481.47</ele>
        <time>2022-10-23T08:03:05Z</time>
      </trkpt>
      <trkpt lat="46.61673" lon="5.53779">
        <ele>480.55</ele>
        <time>2022-10-23T08:03:19Z</time>
      </trkpt>
      <trkpt lat="46.61679" lon="5.53777">
        <ele>479.71</ele>
        <time>2022-10-23T08:03:25Z</time>
      </trkpt>
      <trkpt lat="46.61693" lon="5.5378">
        <ele>479.69</ele>
        <time>2022-10-23T08:03:39Z</time>
      </trkpt>
      <trkpt lat="46.61699" lon="5.53784">
        <ele>479.59</ele>
        <time>2022-10-23T08:03:49Z</time>
      </trkpt>
      <trkpt lat="46.61713" lon="5.53794">
        <ele>478.64</ele>
        <time>2022-10-23T08:04:03Z</time>
      </trkpt>
      <trkpt lat="46.61718" lon="5.53795">
        <ele>478.59</ele>
        <time>2022-10-23T08:04:08Z</time>
      </trkpt>
      <trkpt lat="46.61737" lon="5.53802">
        <ele>477.71</ele>
        <time>2022-10-23T08:04:22Z</time>
      </trkpt>
      <trkpt lat="46.61737" lon="5.53802">
        <ele>477.7</ele>
        <time>2022-10-23T08:04:23Z</time>
      </trkpt>
      <trkpt lat="46.61743" lon="5.53801">
        <ele>477.68</ele>
        <time>2022-10-23T08:04:26Z</time>
      </trkpt>
      <trkpt lat="46.61766" lon="5.53803">
        <ele>477.55</ele>
        <time>2022-10-23T08:04:39Z</time>
      </trkpt>
      <trkpt lat="46.61788" lon="5.53802">
        <ele>476.52</ele>
        <time>2022-10-23T08:04:53Z</time>
      </trkpt>
      <trkpt lat="46.61808" lon="5.53812">
        <ele>476.36</ele>
        <time>2022-10-23T08:05:08Z</time>
      </trkpt>
      <trkpt lat="46.61826" lon="5.53817">
        <ele>476.21</ele>
        <time>2022-10-23T08:05:20Z</time>
      </trkpt>
      <trkpt lat="46.6183" lon="5.53818">
        <ele>476.18</ele>
        <time>2022-10-23T08:05:23Z</time>
      </trkpt>
      <trkpt lat="46.6184" lon="5.53817">
        <ele>475.1</ele>
        <time>2022-10-23T08:05:34Z</time>
      </trkpt>
      <trkpt lat="46.61843" lon="5.53817">
        <ele>475.06</ele>
        <time>2022-10-23T08:05:37Z</time>
      </trkpt>
      <trkpt lat="46.61864" lon="5.5382">
        <ele>474.08</ele>
        <time>2022-10-23T08:05:52Z</time>
      </trkpt>
      <trkpt lat="46.61873" lon="5.53827">
        <ele>476.37</ele>
        <time>2022-10-23T08:06:00Z</time>
      </trkpt>
      <trkpt lat="46.61884" lon="5.53824">
        <ele>473.84</ele>
        <time>2022-10-23T08:06:05Z</time>
      </trkpt>
      <trkpt lat="46.61889" lon="5.53823">
        <ele>472.45</ele>
        <time>2022-10-23T08:06:08Z</time>
      </trkpt>
      <trkpt lat="46.61915" lon="5.53824">
        <ele>472.29</ele>
        <time>2022-10-23T08:06:23Z</time>
      </trkpt>
      <trkpt lat="46.61934" lon="5.53831">
        <ele>472.22</ele>
        <time>2022-10-23T08:06:36Z</time>
      </trkpt>
      <trkpt lat="46.61959" lon="5.53832">
        <ele>472.16</ele>
        <time>2022-10-23T08:06:53Z</time>
      </trkpt>
      <trkpt lat="46.61971" lon="5.53836">
        <ele>472.12</ele>
        <time>2022-10-23T08:07:11Z</time>
      </trkpt>
      <trkpt lat="46.61982" lon="5.53846">
        <ele>472.03</ele>
        <time>2022-10-23T08:07:28Z</time>
      </trkpt>
      <trkpt lat="46.62017" lon="5.53852">
        <ele>471.87</ele>
        <time>2022-10-23T08:07:51Z</time>
      </trkpt>
      <trkpt lat="46.62044" lon="5.53858">
        <ele>471.72</ele>
        <time>2022-10-23T08:08:13Z</time>
      </trkpt>
      <trkpt lat="46.62077" lon="5.5387">
        <ele>470.74</ele>
        <time>2022-10-23T08:08:38Z</time>
      </trkpt>
      <trkpt lat="46.62098" lon="5.53878">
        <ele>470.57</ele>
        <time>2022-10-23T08:08:59Z</time>
      </trkpt>
      <trkpt lat="46.62124" lon="5.53888">
        <ele>470.32</ele>
        <time>2022-10-23T08:09:22Z</time>
      </trkpt>
      <trkpt lat="46.62156" lon="5.53885">
        <ele>470.07</ele>
        <time>2022-10-23T08:09:42Z</time>
      </trkpt>
      <trkpt lat="46.62163" lon="5.539">
        <ele>472.46</ele>
        <time>2022-10-23T08:09:57Z</time>
      </trkpt>
      <trkpt lat="46.6216" lon="5.53902">
        <ele>472.41</ele>
        <time>2022-10-23T08:10:01Z</time>
      </trkpt>
      <trkpt lat="46.62144" lon="5.53908">
        <ele>473.84</ele>
        <time>2022-10-23T08:10:18Z</time>
      </trkpt>
      <trkpt lat="46.62129" lon="5.53911">
        <ele>477.08</ele>
        <time>2022-10-23T08:10:39Z</time>
      </trkpt>
      <trkpt lat="46.62098" lon="5.5392">
        <ele>478.38</ele>
        <time>2022-10-23T08:11:02Z</time>
      </trkpt>
      <trkpt lat="46.62075" lon="5.53922">
        <ele>481.37</ele>
        <time>2022-10-23T08:11:24Z</time>
      </trkpt>
      <trkpt lat="46.62057" lon="5.53925">
        <ele>482.47</ele>
        <time>2022-10-23T08:11:48Z</time>
      </trkpt>
      <trkpt lat="46.62052" lon="5.53928">
        <ele>483.4</ele>
        <time>2022-10-23T08:11:54Z</time>
      </trkpt>
      <trkpt lat="46.6205" lon="5.53929">
        <ele>484.26</ele>
        <time>2022-10-23T08:11:57Z</time>
      </trkpt>
      <trkpt lat="46.62026" lon="5.53934">
        <ele>485.74</ele>
        <time>2022-10-23T08:12:18Z</time>
      </trkpt>
      <trkpt lat="46.62021" lon="5.53934">
        <ele>486.95</ele>
        <time>2022-10-23T08:12:22Z</time>
      </trkpt>
      <trkpt lat="46.62008" lon="5.53938">
        <ele>487.47</ele>
        <time>2022-10-23T08:12:35Z</time>
      </trkpt>
      <trkpt lat="46.61994" lon="5.53944">
        <ele>488.37</ele>
        <time>2022-10-23T08:12:50Z</time>
      </trkpt>
      <trkpt lat="46.61986" lon="5.53948">
        <ele>489.91</ele>
        <time>2022-10-23T08:13:05Z</time>
      </trkpt>
      <trkpt lat="46.61965" lon="5.5395">
        <ele>491.16</ele>
        <time>2022-10-23T08:13:24Z</time>
      </trkpt>
      <trkpt lat="46.61937" lon="5.53959">
        <ele>494.26</ele>
        <time>2022-10-23T08:13:44Z</time>
      </trkpt>
      <trkpt lat="46.61916" lon="5.53962">
        <ele>491.74</ele>
        <time>2022-10-23T08:13:56Z</time>
      </trkpt>
      <trkpt lat="46.61912" lon="5.53962">
        <ele>490.28</ele>
        <time>2022-10-23T08:13:58Z</time>
      </trkpt>
      <trkpt lat="46.61907" lon="5.53964">
        <ele>492.9</ele>
        <time>2022-10-23T08:14:02Z</time>
      </trkpt>
      <trkpt lat="46.61892" lon="5.53968">
        <ele>490.37</ele>
        <time>2022-10-23T08:14:14Z</time>
      </trkpt>
      <trkpt lat="46.61877" lon="5.53979">
        <ele>492</ele>
        <time>2022-10-23T08:14:26Z</time>
      </trkpt>
      <trkpt lat="46.61872" lon="5.53981">
        <ele>489.32</ele>
        <time>2022-10-23T08:14:30Z</time>
      </trkpt>
      <trkpt lat="46.61837" lon="5.53985">
        <ele>487.44</ele>
        <time>2022-10-23T08:14:57Z</time>
      </trkpt>
      <trkpt lat="46.61816" lon="5.53999">
        <ele>487.38</ele>
        <time>2022-10-23T08:15:16Z</time>
      </trkpt>
      <trkpt lat="46.61801" lon="5.54017">
        <ele>487.43</ele>
        <time>2022-10-23T08:15:38Z</time>
      </trkpt>
      <trkpt lat="46.618" lon="5.54019">
        <ele>487.56</ele>
        <time>2022-10-23T08:15:59Z</time>
      </trkpt>
      <trkpt lat="46.61796" lon="5.54021">
        <ele>487.62</ele>
        <time>2022-10-23T08:16:06Z</time>
      </trkpt>
      <trkpt lat="46.61779" lon="5.5402">
        <ele>485.96</ele>
        <time>2022-10-23T08:16:21Z</time>
      </trkpt>
      <trkpt lat="46.61764" lon="5.54021">
        <ele>486.08</ele>
        <time>2022-10-23T08:16:35Z</time>
      </trkpt>
      <trkpt lat="46.61749" lon="5.54022">
        <ele>482.44</ele>
        <time>2022-10-23T08:16:47Z</time>
      </trkpt>
      <trkpt lat="46.61721" lon="5.54024">
        <ele>481.11</ele>
        <time>2022-10-23T08:17:05Z</time>
      </trkpt>
      <trkpt lat="46.61696" lon="5.54027">
        <ele>480.17</ele>
        <time>2022-10-23T08:17:20Z</time>
      </trkpt>
      <trkpt lat="46.61673" lon="5.54032">
        <ele>479.33</ele>
        <time>2022-10-23T08:17:34Z</time>
      </trkpt>
      <trkpt lat="46.61655" lon="5.54036">
        <ele>477.72</ele>
        <time>2022-10-23T08:17:48Z</time>
      </trkpt>
      <trkpt lat="46.6163" lon="5.54036">
        <ele>475.12</ele>
        <time>2022-10-23T08:18:05Z</time>
      </trkpt>
      <trkpt lat="46.61607" lon="5.54034">
        <ele>473.09</ele>
        <time>2022-10-23T08:18:20Z</time>
      </trkpt>
      <trkpt lat="46.61588" lon="5.54033">
        <ele>470.66</ele>
        <time>2022-10-23T08:18:31Z</time>
      </trkpt>
      <trkpt lat="46.61585" lon="5.54033">
        <ele>469.29</ele>
        <time>2022-10-23T08:18:32Z</time>
      </trkpt>
      <trkpt lat="46.61577" lon="5.54031">
        <ele>472.34</ele>
        <time>2022-10-23T08:18:38Z</time>
      </trkpt>
      <trkpt lat="46.61576" lon="5.54031">
        <ele>472.34</ele>
        <time>2022-10-23T08:18:39Z</time>
      </trkpt>
      <trkpt lat="46.61572" lon="5.5403">
        <ele>472.36</ele>
        <time>2022-10-23T08:18:47Z</time>
      </trkpt>
      <trkpt lat="46.61559" lon="5.54039">
        <ele>469.9</ele>
        <time>2022-10-23T08:18:57Z</time>
      </trkpt>
      <trkpt lat="46.61554" lon="5.54049">
        <ele>469.17</ele>
        <time>2022-10-23T08:19:02Z</time>
      </trkpt>
      <trkpt lat="46.61556" lon="5.54063">
        <ele>467.91</ele>
        <time>2022-10-23T08:19:09Z</time>
      </trkpt>
      <trkpt lat="46.61541" lon="5.54085">
        <ele>465.52</ele>
        <time>2022-10-23T08:19:24Z</time>
      </trkpt>
      <trkpt lat="46.61529" lon="5.54105">
        <ele>463.61</ele>
        <time>2022-10-23T08:19:36Z</time>
      </trkpt>
      <trkpt lat="46.61515" lon="5.5413">
        <ele>461.85</ele>
        <time>2022-10-23T08:19:51Z</time>
      </trkpt>
      <trkpt lat="46.61511" lon="5.54158">
        <ele>461.37</ele>
        <time>2022-10-23T08:20:06Z</time>
      </trkpt>
      <trkpt lat="46.61507" lon="5.54167">
        <ele>461.48</ele>
        <time>2022-10-23T08:20:12Z</time>
      </trkpt>
      <trkpt lat="46.61493" lon="5.54194">
        <ele>461.75</ele>
        <time>2022-10-23T08:20:29Z</time>
      </trkpt>
      <trkpt lat="46.61476" lon="5.54236">
        <ele>462.04</ele>
        <time>2022-10-23T08:20:55Z</time>
      </trkpt>
      <trkpt lat="46.61468" lon="5.54246">
        <ele>462.13</ele>
        <time>2022-10-23T08:21:04Z</time>
      </trkpt>
      <trkpt lat="46.6145" lon="5.54282">
        <ele>462.54</ele>
        <time>2022-10-23T08:21:29Z</time>
      </trkpt>
      <trkpt lat="46.61427" lon="5.54303">
        <ele>462.82</ele>
        <time>2022-10-23T08:21:51Z</time>
      </trkpt>
      <trkpt lat="46.61403" lon="5.54319">
        <ele>463.12</ele>
        <time>2022-10-23T08:22:12Z</time>
      </trkpt>
      <trkpt lat="46.61386" lon="5.54335">
        <ele>463.33</ele>
        <time>2022-10-23T08:22:31Z</time>
      </trkpt>
      <trkpt lat="46.61375" lon="5.54343">
        <ele>463.45</ele>
        <time>2022-10-23T08:22:50Z</time>
      </trkpt>
      <trkpt lat="46.61374" lon="5.54344">
        <ele>463.43</ele>
        <time>2022-10-23T08:22:51Z</time>
      </trkpt>
      <trkpt lat="46.61366" lon="5.54358">
        <ele>463.71</ele>
        <time>2022-10-23T08:23:20Z</time>
      </trkpt>
      <trkpt lat="46.6136" lon="5.54373">
        <ele>463.79</ele>
        <time>2022-10-23T08:23:41Z</time>
      </trkpt>
      <trkpt lat="46.61347" lon="5.54392">
        <ele>463.96</ele>
        <time>2022-10-23T08:24:02Z</time>
      </trkpt>
      <trkpt lat="46.61345" lon="5.54395">
        <ele>461.62</ele>
        <time>2022-10-23T08:24:07Z</time>
      </trkpt>
      <trkpt lat="46.61337" lon="5.54408">
        <ele>462.97</ele>
        <time>2022-10-23T08:24:19Z</time>
      </trkpt>
      <trkpt lat="46.61336" lon="5.54409">
        <ele>463.03</ele>
        <time>2022-10-23T08:24:20Z</time>
      </trkpt>
      <trkpt lat="46.61331" lon="5.54427">
        <ele>460.16</ele>
        <time>2022-10-23T08:24:32Z</time>
      </trkpt>
      <trkpt lat="46.61328" lon="5.5444">
        <ele>458.77</ele>
        <time>2022-10-23T08:24:44Z</time>
      </trkpt>
      <trkpt lat="46.61327" lon="5.54443">
        <ele>458.97</ele>
        <time>2022-10-23T08:24:46Z</time>
      </trkpt>
      <trkpt lat="46.61325" lon="5.54452">
        <ele>458.82</ele>
        <time>2022-10-23T08:24:50Z</time>
      </trkpt>
      <trkpt lat="46.61322" lon="5.54456">
        <ele>459.29</ele>
        <time>2022-10-23T08:25:19Z</time>
      </trkpt>
      <trkpt lat="46.61324" lon="5.54466">
        <ele>455.8</ele>
        <time>2022-10-23T08:25:34Z</time>
      </trkpt>
      <trkpt lat="46.61325" lon="5.54468">
        <ele>455.01</ele>
        <time>2022-10-23T08:25:36Z</time>
      </trkpt>
      <trkpt lat="46.61329" lon="5.54486">
        <ele>451.43</ele>
        <time>2022-10-23T08:25:48Z</time>
      </trkpt>
      <trkpt lat="46.61336" lon="5.54513">
        <ele>448.7</ele>
        <time>2022-10-23T08:26:07Z</time>
      </trkpt>
      <trkpt lat="46.61348" lon="5.54539">
        <ele>447.14</ele>
        <time>2022-10-23T08:26:28Z</time>
      </trkpt>
      <trkpt lat="46.61358" lon="5.54556">
        <ele>444.28</ele>
        <time>2022-10-23T08:26:42Z</time>
      </trkpt>
      <trkpt lat="46.61388" lon="5.54566">
        <ele>441.5</ele>
        <time>2022-10-23T08:27:02Z</time>
      </trkpt>
      <trkpt lat="46.61398" lon="5.54565">
        <ele>439.5</ele>
        <time>2022-10-23T08:27:09Z</time>
      </trkpt>
      <trkpt lat="46.61403" lon="5.54576">
        <ele>435.88</ele>
        <time>2022-10-23T08:27:22Z</time>
      </trkpt>
      <trkpt lat="46.61413" lon="5.54575">
        <ele>432.73</ele>
        <time>2022-10-23T08:27:30Z</time>
      </trkpt>
      <trkpt lat="46.61443" lon="5.54576">
        <ele>431.92</ele>
        <time>2022-10-23T08:27:44Z</time>
      </trkpt>
      <trkpt lat="46.61452" lon="5.54583">
        <ele>434.31</ele>
        <time>2022-10-23T08:27:51Z</time>
      </trkpt>
      <trkpt lat="46.61464" lon="5.54584">
        <ele>433.95</ele>
        <time>2022-10-23T08:28:09Z</time>
      </trkpt>
      <trkpt lat="46.61463" lon="5.54585">
        <ele>431.3</ele>
        <time>2022-10-23T08:28:16Z</time>
      </trkpt>
      <trkpt lat="46.61477" lon="5.54585">
        <ele>427.98</ele>
        <time>2022-10-23T08:28:30Z</time>
      </trkpt>
      <trkpt lat="46.61519" lon="5.54574">
        <ele>423.97</ele>
        <time>2022-10-23T08:28:45Z</time>
      </trkpt>
      <trkpt lat="46.61533" lon="5.54578">
        <ele>420.03</ele>
        <time>2022-10-23T08:28:56Z</time>
      </trkpt>
      <trkpt lat="46.61555" lon="5.54569">
        <ele>416.15</ele>
        <time>2022-10-23T08:29:10Z</time>
      </trkpt>
      <trkpt lat="46.61581" lon="5.54557">
        <ele>411.99</ele>
        <time>2022-10-23T08:29:24Z</time>
      </trkpt>
      <trkpt lat="46.61582" lon="5.54557">
        <ele>411.99</ele>
        <time>2022-10-23T08:29:25Z</time>
      </trkpt>
      <trkpt lat="46.61593" lon="5.54556">
        <ele>410.36</ele>
        <time>2022-10-23T08:29:34Z</time>
      </trkpt>
      <trkpt lat="46.61618" lon="5.54579">
        <ele>406.93</ele>
        <time>2022-10-23T08:29:51Z</time>
      </trkpt>
      <trkpt lat="46.61634" lon="5.54584">
        <ele>403.49</ele>
        <time>2022-10-23T08:30:03Z</time>
      </trkpt>
      <trkpt lat="46.61655" lon="5.54595">
        <ele>401.16</ele>
        <time>2022-10-23T08:30:19Z</time>
      </trkpt>
      <trkpt lat="46.6168" lon="5.54607">
        <ele>399.49</ele>
        <time>2022-10-23T08:30:39Z</time>
      </trkpt>
      <trkpt lat="46.61701" lon="5.54616">
        <ele>396.34</ele>
        <time>2022-10-23T08:30:59Z</time>
      </trkpt>
      <trkpt lat="46.61716" lon="5.54618">
        <ele>393.3</ele>
        <time>2022-10-23T08:31:11Z</time>
      </trkpt>
      <trkpt lat="46.61717" lon="5.54617">
        <ele>393.28</ele>
        <time>2022-10-23T08:31:12Z</time>
      </trkpt>
      <trkpt lat="46.61738" lon="5.54622">
        <ele>390.2</ele>
        <time>2022-10-23T08:31:25Z</time>
      </trkpt>
      <trkpt lat="46.61741" lon="5.54631">
        <ele>389.43</ele>
        <time>2022-10-23T08:31:30Z</time>
      </trkpt>
      <trkpt lat="46.6176" lon="5.54626">
        <ele>385.61</ele>
        <time>2022-10-23T08:31:46Z</time>
      </trkpt>
      <trkpt lat="46.61765" lon="5.54622">
        <ele>384.52</ele>
        <time>2022-10-23T08:31:52Z</time>
      </trkpt>
      <trkpt lat="46.61779" lon="5.54627">
        <ele>380.96</ele>
        <time>2022-10-23T08:32:07Z</time>
      </trkpt>
      <trkpt lat="46.61795" lon="5.54635">
        <ele>377.87</ele>
        <time>2022-10-23T08:32:20Z</time>
      </trkpt>
      <trkpt lat="46.61809" lon="5.54643">
        <ele>374.46</ele>
        <time>2022-10-23T08:32:30Z</time>
      </trkpt>
      <trkpt lat="46.6181" lon="5.54643">
        <ele>374.41</ele>
        <time>2022-10-23T08:32:31Z</time>
      </trkpt>
      <trkpt lat="46.6182" lon="5.54643">
        <ele>370.77</ele>
        <time>2022-10-23T08:32:40Z</time>
      </trkpt>
      <trkpt lat="46.61825" lon="5.54642">
        <ele>370.72</ele>
        <time>2022-10-23T08:32:42Z</time>
      </trkpt>
      <trkpt lat="46.61844" lon="5.54655">
        <ele>365.61</ele>
        <time>2022-10-23T08:32:56Z</time>
      </trkpt>
      <trkpt lat="46.61846" lon="5.54658">
        <ele>365.57</ele>
        <time>2022-10-23T08:32:57Z</time>
      </trkpt>
      <trkpt lat="46.61868" lon="5.54652">
        <ele>361.91</ele>
        <time>2022-10-23T08:33:16Z</time>
      </trkpt>
      <trkpt lat="46.61893" lon="5.54652">
        <ele>359.05</ele>
        <time>2022-10-23T08:33:33Z</time>
      </trkpt>
      <trkpt lat="46.61925" lon="5.54682">
        <ele>356.21</ele>
        <time>2022-10-23T08:33:55Z</time>
      </trkpt>
      <trkpt lat="46.61935" lon="5.54688">
        <ele>354.25</ele>
        <time>2022-10-23T08:34:03Z</time>
      </trkpt>
      <trkpt lat="46.61951" lon="5.54684">
        <ele>353.27</ele>
        <time>2022-10-23T08:34:15Z</time>
      </trkpt>
      <trkpt lat="46.61984" lon="5.547">
        <ele>349.39</ele>
        <time>2022-10-23T08:34:37Z</time>
      </trkpt>
      <trkpt lat="46.62007" lon="5.54738">
        <ele>345.74</ele>
        <time>2022-10-23T08:34:57Z</time>
      </trkpt>
      <trkpt lat="46.62027" lon="5.5478">
        <ele>342.97</ele>
        <time>2022-10-23T08:35:15Z</time>
      </trkpt>
      <trkpt lat="46.62045" lon="5.54792">
        <ele>339.97</ele>
        <time>2022-10-23T08:35:31Z</time>
      </trkpt>
      <trkpt lat="46.62066" lon="5.54805">
        <ele>336.21</ele>
        <time>2022-10-23T08:35:47Z</time>
      </trkpt>
      <trkpt lat="46.62092" lon="5.54812">
        <ele>332.84</ele>
        <time>2022-10-23T08:36:07Z</time>
      </trkpt>
      <trkpt lat="46.62111" lon="5.54836">
        <ele>328.97</ele>
        <time>2022-10-23T08:36:26Z</time>
      </trkpt>
      <trkpt lat="46.62111" lon="5.54839">
        <ele>328.96</ele>
        <time>2022-10-23T08:36:27Z</time>
      </trkpt>
      <trkpt lat="46.62131" lon="5.5485">
        <ele>325.1</ele>
        <time>2022-10-23T08:36:43Z</time>
      </trkpt>
      <trkpt lat="46.62135" lon="5.54851">
        <ele>323.6</ele>
        <time>2022-10-23T08:36:47Z</time>
      </trkpt>
      <trkpt lat="46.62143" lon="5.54847">
        <ele>322.65</ele>
        <time>2022-10-23T08:36:58Z</time>
      </trkpt>
      <trkpt lat="46.62148" lon="5.54841">
        <ele>321.81</ele>
        <time>2022-10-23T08:37:05Z</time>
      </trkpt>
      <trkpt lat="46.62158" lon="5.54835">
        <ele>320.15</ele>
        <time>2022-10-23T08:37:18Z</time>
      </trkpt>
      <trkpt lat="46.62161" lon="5.54838">
        <ele>320.05</ele>
        <time>2022-10-23T08:37:24Z</time>
      </trkpt>
      <trkpt lat="46.62183" lon="5.54824">
        <ele>319.05</ele>
        <time>2022-10-23T08:37:39Z</time>
      </trkpt>
      <trkpt lat="46.62199" lon="5.54818">
        <ele>318.03</ele>
        <time>2022-10-23T08:37:52Z</time>
      </trkpt>
      <trkpt lat="46.62203" lon="5.54816">
        <ele>317.15</ele>
        <time>2022-10-23T08:37:58Z</time>
      </trkpt>
      <trkpt lat="46.62226" lon="5.54824">
        <ele>316.06</ele>
        <time>2022-10-23T08:38:11Z</time>
      </trkpt>
      <trkpt lat="46.62249" lon="5.54828">
        <ele>314.14</ele>
        <time>2022-10-23T08:38:26Z</time>
      </trkpt>
      <trkpt lat="46.62265" lon="5.54827">
        <ele>313.96</ele>
        <time>2022-10-23T08:38:36Z</time>
      </trkpt>
      <trkpt lat="46.62282" lon="5.54828">
        <ele>313.66</ele>
        <time>2022-10-23T08:38:52Z</time>
      </trkpt>
      <trkpt lat="46.62283" lon="5.54828">
        <ele>313.61</ele>
        <time>2022-10-23T08:38:54Z</time>
      </trkpt>
      <trkpt lat="46.62314" lon="5.54819">
        <ele>313.38</ele>
        <time>2022-10-23T08:39:08Z</time>
      </trkpt>
      <trkpt lat="46.62349" lon="5.54813">
        <ele>313.16</ele>
        <time>2022-10-23T08:39:25Z</time>
      </trkpt>
      <trkpt lat="46.62354" lon="5.54818">
        <ele>316.72</ele>
        <time>2022-10-23T08:39:32Z</time>
      </trkpt>
      <trkpt lat="46.62355" lon="5.54818">
        <ele>316.71</ele>
        <time>2022-10-23T08:39:33Z</time>
      </trkpt>
      <trkpt lat="46.62355" lon="5.54818">
        <ele>309.83</ele>
        <time>2022-10-23T08:39:39Z</time>
      </trkpt>
      <trkpt lat="46.62355" lon="5.54818">
        <ele>315.91</ele>
        <time>2022-10-23T08:39:40Z</time>
      </trkpt>
      <trkpt lat="46.62355" lon="5.54819">
        <ele>316.99</ele>
        <time>2022-10-23T08:39:42Z</time>
      </trkpt>
      <trkpt lat="46.62357" lon="5.54821">
        <ele>314.56</ele>
        <time>2022-10-23T08:39:48Z</time>
      </trkpt>
      <trkpt lat="46.62372" lon="5.54821">
        <ele>314.61</ele>
        <time>2022-10-23T08:40:02Z</time>
      </trkpt>
      <trkpt lat="46.62387" lon="5.5482">
        <ele>316.8</ele>
        <time>2022-10-23T08:40:13Z</time>
      </trkpt>
      <trkpt lat="46.62401" lon="5.54828">
        <ele>316.67</ele>
        <time>2022-10-23T08:40:25Z</time>
      </trkpt>
      <trkpt lat="46.62405" lon="5.54831">
        <ele>316.54</ele>
        <time>2022-10-23T08:40:37Z</time>
      </trkpt>
      <trkpt lat="46.62407" lon="5.54831">
        <ele>316.52</ele>
        <time>2022-10-23T08:40:39Z</time>
      </trkpt>
      <trkpt lat="46.62409" lon="5.54834">
        <ele>316.49</ele>
        <time>2022-10-23T08:40:44Z</time>
      </trkpt>
      <trkpt lat="46.62427" lon="5.54837">
        <ele>316.41</ele>
        <time>2022-10-23T08:41:00Z</time>
      </trkpt>
      <trkpt lat="46.62442" lon="5.54832">
        <ele>316.32</ele>
        <time>2022-10-23T08:41:17Z</time>
      </trkpt>
      <trkpt lat="46.62456" lon="5.54829">
        <ele>312.38</ele>
        <time>2022-10-23T08:41:29Z</time>
      </trkpt>
      <trkpt lat="46.62457" lon="5.54829">
        <ele>312.38</ele>
        <time>2022-10-23T08:41:30Z</time>
      </trkpt>
      <trkpt lat="46.6249" lon="5.54822">
        <ele>312.26</ele>
        <time>2022-10-23T08:41:51Z</time>
      </trkpt>
      <trkpt lat="46.62508" lon="5.54818">
        <ele>311.47</ele>
        <time>2022-10-23T08:42:04Z</time>
      </trkpt>
      <trkpt lat="46.62513" lon="5.54815">
        <ele>311.45</ele>
        <time>2022-10-23T08:42:09Z</time>
      </trkpt>
      <trkpt lat="46.62543" lon="5.54797">
        <ele>309.88</ele>
        <time>2022-10-23T08:42:32Z</time>
      </trkpt>
      <trkpt lat="46.62567" lon="5.54782">
        <ele>309.77</ele>
        <time>2022-10-23T08:42:53Z</time>
      </trkpt>
      <trkpt lat="46.62587" lon="5.54775">
        <ele>307.98</ele>
        <time>2022-10-23T08:43:15Z</time>
      </trkpt>
      <trkpt lat="46.62621" lon="5.54775">
        <ele>307.04</ele>
        <time>2022-10-23T08:43:38Z</time>
      </trkpt>
      <trkpt lat="46.62651" lon="5.54761">
        <ele>306.84</ele>
        <time>2022-10-23T08:43:58Z</time>
      </trkpt>
      <trkpt lat="46.62671" lon="5.54739">
        <ele>306.61</ele>
        <time>2022-10-23T08:44:14Z</time>
      </trkpt>
      <trkpt lat="46.62691" lon="5.54711">
        <ele>304.79</ele>
        <time>2022-10-23T08:44:29Z</time>
      </trkpt>
      <trkpt lat="46.62712" lon="5.54687">
        <ele>304.59</ele>
        <time>2022-10-23T08:44:46Z</time>
      </trkpt>
      <trkpt lat="46.62731" lon="5.54689">
        <ele>303.1</ele>
        <time>2022-10-23T08:44:59Z</time>
      </trkpt>
      <trkpt lat="46.62751" lon="5.54686">
        <ele>301.79</ele>
        <time>2022-10-23T08:45:14Z</time>
      </trkpt>
      <trkpt lat="46.62764" lon="5.54686">
        <ele>300.68</ele>
        <time>2022-10-23T08:45:26Z</time>
      </trkpt>
      <trkpt lat="46.62773" lon="5.54687">
        <ele>298.91</ele>
        <time>2022-10-23T08:45:39Z</time>
      </trkpt>
      <trkpt lat="46.62794" lon="5.54687">
        <ele>296.23</ele>
        <time>2022-10-23T08:45:54Z</time>
      </trkpt>
      <trkpt lat="46.6281" lon="5.54686">
        <ele>295.38</ele>
        <time>2022-10-23T08:46:03Z</time>
      </trkpt>
      <trkpt lat="46.62822" lon="5.54682">
        <ele>292.71</ele>
        <time>2022-10-23T08:46:14Z</time>
      </trkpt>
      <trkpt lat="46.62842" lon="5.54673">
        <ele>289.87</ele>
        <time>2022-10-23T08:46:28Z</time>
      </trkpt>
      <trkpt lat="46.6286" lon="5.54662">
        <ele>288.24</ele>
        <time>2022-10-23T08:46:41Z</time>
      </trkpt>
      <trkpt lat="46.62877" lon="5.54654">
        <ele>286.56</ele>
        <time>2022-10-23T08:46:55Z</time>
      </trkpt>
      <trkpt lat="46.62888" lon="5.54646">
        <ele>284.71</ele>
        <time>2022-10-23T08:47:06Z</time>
      </trkpt>
      <trkpt lat="46.62905" lon="5.54644">
        <ele>283.8</ele>
        <time>2022-10-23T08:47:16Z</time>
      </trkpt>
      <trkpt lat="46.6292" lon="5.54643">
        <ele>283.73</ele>
        <time>2022-10-23T08:47:25Z</time>
      </trkpt>
      <trkpt lat="46.62925" lon="5.54643">
        <ele>283.69</ele>
        <time>2022-10-23T08:47:28Z</time>
      </trkpt>
      <trkpt lat="46.6293" lon="5.54643">
        <ele>283.69</ele>
        <time>2022-10-23T08:47:31Z</time>
      </trkpt>
      <trkpt lat="46.62949" lon="5.54642">
        <ele>282.74</ele>
        <time>2022-10-23T08:47:42Z</time>
      </trkpt>
      <trkpt lat="46.6297" lon="5.54636">
        <ele>282.63</ele>
        <time>2022-10-23T08:47:54Z</time>
      </trkpt>
      <trkpt lat="46.62986" lon="5.54635">
        <ele>281.84</ele>
        <time>2022-10-23T08:48:05Z</time>
      </trkpt>
      <trkpt lat="46.63013" lon="5.54632">
        <ele>281.04</ele>
        <time>2022-10-23T08:48:24Z</time>
      </trkpt>
      <trkpt lat="46.63037" lon="5.54643">
        <ele>281.08</ele>
        <time>2022-10-23T08:48:39Z</time>
      </trkpt>
      <trkpt lat="46.63051" lon="5.54653">
        <ele>281.21</ele>
        <time>2022-10-23T08:48:58Z</time>
      </trkpt>
      <trkpt lat="46.63051" lon="5.54658">
        <ele>281.29</ele>
        <time>2022-10-23T08:49:04Z</time>
      </trkpt>
      <trkpt lat="46.63036" lon="5.54668">
        <ele>281.57</ele>
        <time>2022-10-23T08:49:26Z</time>
      </trkpt>
      <trkpt lat="46.63032" lon="5.54667">
        <ele>281.61</ele>
        <time>2022-10-23T08:49:29Z</time>
      </trkpt>
      <trkpt lat="46.63025" lon="5.54668">
        <ele>284</ele>
        <time>2022-10-23T08:49:37Z</time>
      </trkpt>
      <trkpt lat="46.63001" lon="5.54673">
        <ele>285.04</ele>
        <time>2022-10-23T08:49:59Z</time>
      </trkpt>
      <trkpt lat="46.62975" lon="5.54678">
        <ele>285.99</ele>
        <time>2022-10-23T08:50:18Z</time>
      </trkpt>
      <trkpt lat="46.62955" lon="5.54681">
        <ele>286.93</ele>
        <time>2022-10-23T08:50:37Z</time>
      </trkpt>
      <trkpt lat="46.62927" lon="5.54694">
        <ele>287.84</ele>
        <time>2022-10-23T08:50:58Z</time>
      </trkpt>
      <trkpt lat="46.62894" lon="5.54708">
        <ele>287.83</ele>
        <time>2022-10-23T08:51:24Z</time>
      </trkpt>
      <trkpt lat="46.62872" lon="5.54727">
        <ele>288.58</ele>
        <time>2022-10-23T08:51:42Z</time>
      </trkpt>
      <trkpt lat="46.62863" lon="5.54753">
        <ele>289.31</ele>
        <time>2022-10-23T08:51:57Z</time>
      </trkpt>
      <trkpt lat="46.6285" lon="5.5477">
        <ele>290.44</ele>
        <time>2022-10-23T08:52:17Z</time>
      </trkpt>
      <trkpt lat="46.6282" lon="5.54798">
        <ele>293.05</ele>
        <time>2022-10-23T08:52:42Z</time>
      </trkpt>
      <trkpt lat="46.62806" lon="5.54816">
        <ele>296.66</ele>
        <time>2022-10-23T08:53:03Z</time>
      </trkpt>
      <trkpt lat="46.62787" lon="5.54841">
        <ele>299.18</ele>
        <time>2022-10-23T08:53:26Z</time>
      </trkpt>
      <trkpt lat="46.6278" lon="5.54854">
        <ele>300.83</ele>
        <time>2022-10-23T08:53:36Z</time>
      </trkpt>
      <trkpt lat="46.62763" lon="5.54869">
        <ele>302.32</ele>
        <time>2022-10-23T08:53:57Z</time>
      </trkpt>
      <trkpt lat="46.62756" lon="5.5488">
        <ele>303.96</ele>
        <time>2022-10-23T08:54:09Z</time>
      </trkpt>
      <trkpt lat="46.62751" lon="5.54884">
        <ele>304.87</ele>
        <time>2022-10-23T08:54:15Z</time>
      </trkpt>
      <trkpt lat="46.62723" lon="5.549">
        <ele>308.95</ele>
        <time>2022-10-23T08:54:36Z</time>
      </trkpt>
      <trkpt lat="46.62702" lon="5.54907">
        <ele>312.47</ele>
        <time>2022-10-23T08:54:54Z</time>
      </trkpt>
      <trkpt lat="46.62682" lon="5.54914">
        <ele>315.99</ele>
        <time>2022-10-23T08:55:09Z</time>
      </trkpt>
      <trkpt lat="46.62672" lon="5.54918">
        <ele>317.84</ele>
        <time>2022-10-23T08:55:27Z</time>
      </trkpt>
      <trkpt lat="46.62664" lon="5.54911">
        <ele>321.54</ele>
        <time>2022-10-23T08:55:43Z</time>
      </trkpt>
      <trkpt lat="46.62651" lon="5.54912">
        <ele>323.32</ele>
        <time>2022-10-23T08:56:05Z</time>
      </trkpt>
      <trkpt lat="46.62629" lon="5.54914">
        <ele>326.74</ele>
        <time>2022-10-23T08:56:22Z</time>
      </trkpt>
      <trkpt lat="46.62612" lon="5.54931">
        <ele>328.33</ele>
        <time>2022-10-23T08:56:43Z</time>
      </trkpt>
      <trkpt lat="46.62591" lon="5.54942">
        <ele>330.72</ele>
        <time>2022-10-23T08:57:02Z</time>
      </trkpt>
      <trkpt lat="46.6257" lon="5.54957">
        <ele>332.04</ele>
        <time>2022-10-23T08:57:20Z</time>
      </trkpt>
      <trkpt lat="46.62545" lon="5.54988">
        <ele>334.71</ele>
        <time>2022-10-23T08:57:43Z</time>
      </trkpt>
      <trkpt lat="46.6253" lon="5.54998">
        <ele>336.4</ele>
        <time>2022-10-23T08:58:04Z</time>
      </trkpt>
      <trkpt lat="46.62508" lon="5.55002">
        <ele>337.71</ele>
        <time>2022-10-23T08:58:28Z</time>
      </trkpt>
      <trkpt lat="46.6249" lon="5.55014">
        <ele>339.2</ele>
        <time>2022-10-23T08:58:50Z</time>
      </trkpt>
      <trkpt lat="46.62483" lon="5.55023">
        <ele>341.98</ele>
        <time>2022-10-23T08:59:02Z</time>
      </trkpt>
      <trkpt lat="46.6248" lon="5.55036">
        <ele>345.61</ele>
        <time>2022-10-23T08:59:15Z</time>
      </trkpt>
      <trkpt lat="46.62472" lon="5.55056">
        <ele>348.18</ele>
        <time>2022-10-23T08:59:36Z</time>
      </trkpt>
      <trkpt lat="46.62462" lon="5.55066">
        <ele>351.56</ele>
        <time>2022-10-23T08:59:47Z</time>
      </trkpt>
      <trkpt lat="46.62451" lon="5.55078">
        <ele>353.12</ele>
        <time>2022-10-23T09:00:10Z</time>
      </trkpt>
      <trkpt lat="46.62437" lon="5.55104">
        <ele>355.9</ele>
        <time>2022-10-23T09:00:34Z</time>
      </trkpt>
      <trkpt lat="46.62436" lon="5.55111">
        <ele>359.32</ele>
        <time>2022-10-23T09:00:54Z</time>
      </trkpt>
      <trkpt lat="46.62451" lon="5.55103">
        <ele>363.12</ele>
        <time>2022-10-23T09:01:13Z</time>
      </trkpt>
      <trkpt lat="46.62461" lon="5.55114">
        <ele>365.9</ele>
        <time>2022-10-23T09:01:33Z</time>
      </trkpt>
      <trkpt lat="46.62457" lon="5.55126">
        <ele>366.65</ele>
        <time>2022-10-23T09:01:39Z</time>
      </trkpt>
      <trkpt lat="46.6245" lon="5.55137">
        <ele>366.67</ele>
        <time>2022-10-23T09:01:47Z</time>
      </trkpt>
      <trkpt lat="46.62455" lon="5.55141">
        <ele>367.44</ele>
        <time>2022-10-23T09:01:56Z</time>
      </trkpt>
      <trkpt lat="46.62461" lon="5.55141">
        <ele>367.44</ele>
        <time>2022-10-23T09:02:03Z</time>
      </trkpt>
      <trkpt lat="46.62472" lon="5.55125">
        <ele>370.98</ele>
        <time>2022-10-23T09:02:21Z</time>
      </trkpt>
      <trkpt lat="46.62484" lon="5.55113">
        <ele>371.73</ele>
        <time>2022-10-23T09:02:35Z</time>
      </trkpt>
      <trkpt lat="46.625" lon="5.55107">
        <ele>372.58</ele>
        <time>2022-10-23T09:02:55Z</time>
      </trkpt>
      <trkpt lat="46.62513" lon="5.55101">
        <ele>374.22</ele>
        <time>2022-10-23T09:03:14Z</time>
      </trkpt>
      <trkpt lat="46.62538" lon="5.55088">
        <ele>376.8</ele>
        <time>2022-10-23T09:03:37Z</time>
      </trkpt>
      <trkpt lat="46.62548" lon="5.55088">
        <ele>376.71</ele>
        <time>2022-10-23T09:03:45Z</time>
      </trkpt>
      <trkpt lat="46.62585" lon="5.55082">
        <ele>379.03</ele>
        <time>2022-10-23T09:04:15Z</time>
      </trkpt>
      <trkpt lat="46.62613" lon="5.55083">
        <ele>381.41</ele>
        <time>2022-10-23T09:04:39Z</time>
      </trkpt>
      <trkpt lat="46.62648" lon="5.55074">
        <ele>383.21</ele>
        <time>2022-10-23T09:05:03Z</time>
      </trkpt>
      <trkpt lat="46.62667" lon="5.55064">
        <ele>384.91</ele>
        <time>2022-10-23T09:05:17Z</time>
      </trkpt>
      <trkpt lat="46.62686" lon="5.55054">
        <ele>385</ele>
        <time>2022-10-23T09:05:32Z</time>
      </trkpt>
      <trkpt lat="46.62701" lon="5.55053">
        <ele>385.12</ele>
        <time>2022-10-23T09:05:49Z</time>
      </trkpt>
      <trkpt lat="46.62715" lon="5.55053">
        <ele>388.98</ele>
        <time>2022-10-23T09:06:08Z</time>
      </trkpt>
      <trkpt lat="46.62718" lon="5.55053">
        <ele>389.81</ele>
        <time>2022-10-23T09:06:10Z</time>
      </trkpt>
      <trkpt lat="46.62742" lon="5.55054">
        <ele>390.67</ele>
        <time>2022-10-23T09:06:34Z</time>
      </trkpt>
      <trkpt lat="46.62757" lon="5.55052">
        <ele>394.46</ele>
        <time>2022-10-23T09:06:45Z</time>
      </trkpt>
      <trkpt lat="46.6277" lon="5.55048">
        <ele>392.04</ele>
        <time>2022-10-23T09:06:56Z</time>
      </trkpt>
      <trkpt lat="46.62776" lon="5.55046">
        <ele>394.56</ele>
        <time>2022-10-23T09:07:01Z</time>
      </trkpt>
      <trkpt lat="46.62798" lon="5.55039">
        <ele>394.16</ele>
        <time>2022-10-23T09:07:16Z</time>
      </trkpt>
      <trkpt lat="46.62802" lon="5.55036">
        <ele>394.17</ele>
        <time>2022-10-23T09:07:20Z</time>
      </trkpt>
      <trkpt lat="46.62821" lon="5.55032">
        <ele>394.18</ele>
        <time>2022-10-23T09:07:37Z</time>
      </trkpt>
      <trkpt lat="46.62838" lon="5.5502">
        <ele>396.5</ele>
        <time>2022-10-23T09:07:54Z</time>
      </trkpt>
      <trkpt lat="46.62842" lon="5.55016">
        <ele>397.79</ele>
        <time>2022-10-23T09:07:59Z</time>
      </trkpt>
      <trkpt lat="46.62847" lon="5.5501">
        <ele>399.44</ele>
        <time>2022-10-23T09:08:06Z</time>
      </trkpt>
      <trkpt lat="46.62857" lon="5.55001">
        <ele>402.46</ele>
        <time>2022-10-23T09:08:15Z</time>
      </trkpt>
      <trkpt lat="46.62868" lon="5.54986">
        <ele>405.78</ele>
        <time>2022-10-23T09:08:31Z</time>
      </trkpt>
      <trkpt lat="46.62888" lon="5.54976">
        <ele>409.26</ele>
        <time>2022-10-23T09:08:53Z</time>
      </trkpt>
      <trkpt lat="46.6291" lon="5.54967">
        <ele>412.31</ele>
        <time>2022-10-23T09:09:15Z</time>
      </trkpt>
      <trkpt lat="46.62928" lon="5.5496">
        <ele>412.25</ele>
        <time>2022-10-23T09:09:32Z</time>
      </trkpt>
      <trkpt lat="46.62932" lon="5.54958">
        <ele>413.54</ele>
        <time>2022-10-23T09:09:35Z</time>
      </trkpt>
      <trkpt lat="46.62951" lon="5.54951">
        <ele>416.99</ele>
        <time>2022-10-23T09:09:51Z</time>
      </trkpt>
      <trkpt lat="46.62973" lon="5.54937">
        <ele>417.8</ele>
        <time>2022-10-23T09:10:10Z</time>
      </trkpt>
      <trkpt lat="46.62981" lon="5.54929">
        <ele>415.18</ele>
        <time>2022-10-23T09:10:17Z</time>
      </trkpt>
      <trkpt lat="46.62991" lon="5.5492">
        <ele>412.98</ele>
        <time>2022-10-23T09:10:29Z</time>
      </trkpt>
      <trkpt lat="46.62999" lon="5.54923">
        <ele>411.93</ele>
        <time>2022-10-23T09:10:44Z</time>
      </trkpt>
      <trkpt lat="46.63005" lon="5.5492">
        <ele>414.53</ele>
        <time>2022-10-23T09:10:54Z</time>
      </trkpt>
      <trkpt lat="46.63016" lon="5.54923">
        <ele>414.45</ele>
        <time>2022-10-23T09:11:05Z</time>
      </trkpt>
      <trkpt lat="46.63047" lon="5.54933">
        <ele>412.09</ele>
        <time>2022-10-23T09:11:29Z</time>
      </trkpt>
      <trkpt lat="46.63062" lon="5.54934">
        <ele>409.04</ele>
        <time>2022-10-23T09:11:44Z</time>
      </trkpt>
      <trkpt lat="46.63086" lon="5.54933">
        <ele>406.8</ele>
        <time>2022-10-23T09:12:08Z</time>
      </trkpt>
      <trkpt lat="46.6309" lon="5.54935">
        <ele>406.86</ele>
        <time>2022-10-23T09:12:14Z</time>
      </trkpt>
      <trkpt lat="46.63106" lon="5.54948">
        <ele>406.87</ele>
        <time>2022-10-23T09:12:38Z</time>
      </trkpt>
      <trkpt lat="46.63106" lon="5.54947">
        <ele>402.71</ele>
        <time>2022-10-23T09:12:53Z</time>
      </trkpt>
      <trkpt lat="46.63106" lon="5.54947">
        <ele>402.72</ele>
        <time>2022-10-23T09:12:54Z</time>
      </trkpt>
      <trkpt lat="46.6311" lon="5.54947">
        <ele>401.37</ele>
        <time>2022-10-23T09:13:07Z</time>
      </trkpt>
      <trkpt lat="46.63135" lon="5.54949">
        <ele>403.95</ele>
        <time>2022-10-23T09:13:16Z</time>
      </trkpt>
      <trkpt lat="46.63139" lon="5.54949">
        <ele>403.97</ele>
        <time>2022-10-23T09:13:17Z</time>
      </trkpt>
      <trkpt lat="46.63148" lon="5.54953">
        <ele>406.39</ele>
        <time>2022-10-23T09:13:23Z</time>
      </trkpt>
      <trkpt lat="46.63159" lon="5.54956">
        <ele>407.06</ele>
        <time>2022-10-23T09:13:32Z</time>
      </trkpt>
      <trkpt lat="46.6316" lon="5.54957">
        <ele>407.24</ele>
        <time>2022-10-23T09:13:34Z</time>
      </trkpt>
      <trkpt lat="46.63162" lon="5.54958">
        <ele>407.21</ele>
        <time>2022-10-23T09:13:36Z</time>
      </trkpt>
      <trkpt lat="46.63168" lon="5.54973">
        <ele>408.06</ele>
        <time>2022-10-23T09:13:57Z</time>
      </trkpt>
      <trkpt lat="46.63163" lon="5.55021">
        <ele>408.06</ele>
        <time>2022-10-23T09:14:15Z</time>
      </trkpt>
      <trkpt lat="46.63161" lon="5.55037">
        <ele>405.63</ele>
        <time>2022-10-23T09:14:24Z</time>
      </trkpt>
      <trkpt lat="46.63152" lon="5.55073">
        <ele>405.6</ele>
        <time>2022-10-23T09:14:50Z</time>
      </trkpt>
      <trkpt lat="46.63151" lon="5.55076">
        <ele>405.58</ele>
        <time>2022-10-23T09:14:52Z</time>
      </trkpt>
      <trkpt lat="46.6314" lon="5.55124">
        <ele>402.65</ele>
        <time>2022-10-23T09:15:14Z</time>
      </trkpt>
      <trkpt lat="46.6314" lon="5.55143">
        <ele>402.66</ele>
        <time>2022-10-23T09:15:32Z</time>
      </trkpt>
      <trkpt lat="46.63138" lon="5.55152">
        <ele>402.62</ele>
        <time>2022-10-23T09:15:43Z</time>
      </trkpt>
      <trkpt lat="46.63136" lon="5.55175">
        <ele>399.49</ele>
        <time>2022-10-23T09:15:59Z</time>
      </trkpt>
      <trkpt lat="46.63136" lon="5.55179">
        <ele>399.57</ele>
        <time>2022-10-23T09:16:08Z</time>
      </trkpt>
      <trkpt lat="46.63132" lon="5.55194">
        <ele>399.66</ele>
        <time>2022-10-23T09:16:30Z</time>
      </trkpt>
      <trkpt lat="46.6313" lon="5.55196">
        <ele>399.31</ele>
        <time>2022-10-23T09:17:17Z</time>
      </trkpt>
      <trkpt lat="46.63129" lon="5.55197">
        <ele>399.74</ele>
        <time>2022-10-23T09:17:58Z</time>
      </trkpt>
      <trkpt lat="46.63129" lon="5.55198">
        <ele>400.27</ele>
        <time>2022-10-23T09:18:50Z</time>
      </trkpt>
      <trkpt lat="46.6313" lon="5.552">
        <ele>400.63</ele>
        <time>2022-10-23T09:19:21Z</time>
      </trkpt>
      <trkpt lat="46.63145" lon="5.55212">
        <ele>400.7</ele>
        <time>2022-10-23T09:19:36Z</time>
      </trkpt>
      <trkpt lat="46.63161" lon="5.55225">
        <ele>400.82</ele>
        <time>2022-10-23T09:19:50Z</time>
      </trkpt>
      <trkpt lat="46.63163" lon="5.55227">
        <ele>400.85</ele>
        <time>2022-10-23T09:19:52Z</time>
      </trkpt>
      <trkpt lat="46.6317" lon="5.5523">
        <ele>400.9</ele>
        <time>2022-10-23T09:19:58Z</time>
      </trkpt>
      <trkpt lat="46.6319" lon="5.55237">
        <ele>400.98</ele>
        <time>2022-10-23T09:20:14Z</time>
      </trkpt>
      <trkpt lat="46.63205" lon="5.55254">
        <ele>399.96</ele>
        <time>2022-10-23T09:20:30Z</time>
      </trkpt>
      <trkpt lat="46.63205" lon="5.55274">
        <ele>400.11</ele>
        <time>2022-10-23T09:20:41Z</time>
      </trkpt>
      <trkpt lat="46.63203" lon="5.55285">
        <ele>402.7</ele>
        <time>2022-10-23T09:20:47Z</time>
      </trkpt>
      <trkpt lat="46.63203" lon="5.55293">
        <ele>402.72</ele>
        <time>2022-10-23T09:20:51Z</time>
      </trkpt>
      <trkpt lat="46.63211" lon="5.55299">
        <ele>400.32</ele>
        <time>2022-10-23T09:20:58Z</time>
      </trkpt>
      <trkpt lat="46.63214" lon="5.55301">
        <ele>400.32</ele>
        <time>2022-10-23T09:21:01Z</time>
      </trkpt>
      <trkpt lat="46.63224" lon="5.55309">
        <ele>397.4</ele>
        <time>2022-10-23T09:21:18Z</time>
      </trkpt>
      <trkpt lat="46.63237" lon="5.55318">
        <ele>395.75</ele>
        <time>2022-10-23T09:21:31Z</time>
      </trkpt>
      <trkpt lat="46.63256" lon="5.55332">
        <ele>393.1</ele>
        <time>2022-10-23T09:21:48Z</time>
      </trkpt>
      <trkpt lat="46.63264" lon="5.55338">
        <ele>393.11</ele>
        <time>2022-10-23T09:21:54Z</time>
      </trkpt>
      <trkpt lat="46.63283" lon="5.55349">
        <ele>389.61</ele>
        <time>2022-10-23T09:22:09Z</time>
      </trkpt>
      <trkpt lat="46.63307" lon="5.55349">
        <ele>387.97</ele>
        <time>2022-10-23T09:22:25Z</time>
      </trkpt>
      <trkpt lat="46.63329" lon="5.55345">
        <ele>386.42</ele>
        <time>2022-10-23T09:22:40Z</time>
      </trkpt>
      <trkpt lat="46.63352" lon="5.55337">
        <ele>385.74</ele>
        <time>2022-10-23T09:22:56Z</time>
      </trkpt>
      <trkpt lat="46.63371" lon="5.55313">
        <ele>382.75</ele>
        <time>2022-10-23T09:23:14Z</time>
      </trkpt>
      <trkpt lat="46.63372" lon="5.55311">
        <ele>382.76</ele>
        <time>2022-10-23T09:23:15Z</time>
      </trkpt>
      <trkpt lat="46.63377" lon="5.55302">
        <ele>385.46</ele>
        <time>2022-10-23T09:23:20Z</time>
      </trkpt>
      <trkpt lat="46.63389" lon="5.55272">
        <ele>385.6</ele>
        <time>2022-10-23T09:23:37Z</time>
      </trkpt>
      <trkpt lat="46.63397" lon="5.55256">
        <ele>382.41</ele>
        <time>2022-10-23T09:23:47Z</time>
      </trkpt>
      <trkpt lat="46.63398" lon="5.55254">
        <ele>382.44</ele>
        <time>2022-10-23T09:23:48Z</time>
      </trkpt>
      <trkpt lat="46.63401" lon="5.5525">
        <ele>385.18</ele>
        <time>2022-10-23T09:23:51Z</time>
      </trkpt>
      <trkpt lat="46.63409" lon="5.5524">
        <ele>382.26</ele>
        <time>2022-10-23T09:23:59Z</time>
      </trkpt>
      <trkpt lat="46.63427" lon="5.55219">
        <ele>382.38</ele>
        <time>2022-10-23T09:24:14Z</time>
      </trkpt>
      <trkpt lat="46.63447" lon="5.55195">
        <ele>381.65</ele>
        <time>2022-10-23T09:24:31Z</time>
      </trkpt>
      <trkpt lat="46.63474" lon="5.55174">
        <ele>380.03</ele>
        <time>2022-10-23T09:24:50Z</time>
      </trkpt>
      <trkpt lat="46.6349" lon="5.55162">
        <ele>379.37</ele>
        <time>2022-10-23T09:25:02Z</time>
      </trkpt>
      <trkpt lat="46.6351" lon="5.55148">
        <ele>377.86</ele>
        <time>2022-10-23T09:25:18Z</time>
      </trkpt>
      <trkpt lat="46.63529" lon="5.55142">
        <ele>375.47</ele>
        <time>2022-10-23T09:25:31Z</time>
      </trkpt>
      <trkpt lat="46.63541" lon="5.55132">
        <ele>373.95</ele>
        <time>2022-10-23T09:25:42Z</time>
      </trkpt>
      <trkpt lat="46.63559" lon="5.55118">
        <ele>373.23</ele>
        <time>2022-10-23T09:25:57Z</time>
      </trkpt>
      <trkpt lat="46.63579" lon="5.55102">
        <ele>373.36</ele>
        <time>2022-10-23T09:26:12Z</time>
      </trkpt>
      <trkpt lat="46.63598" lon="5.55089">
        <ele>373.4</ele>
        <time>2022-10-23T09:26:25Z</time>
      </trkpt>
      <trkpt lat="46.63609" lon="5.55081">
        <ele>372.5</ele>
        <time>2022-10-23T09:26:31Z</time>
      </trkpt>
      <trkpt lat="46.63629" lon="5.55064">
        <ele>372.58</ele>
        <time>2022-10-23T09:26:45Z</time>
      </trkpt>
      <trkpt lat="46.63653" lon="5.55044">
        <ele>371.92</ele>
        <time>2022-10-23T09:27:01Z</time>
      </trkpt>
      <trkpt lat="46.63665" lon="5.55032">
        <ele>371.98</ele>
        <time>2022-10-23T09:27:10Z</time>
      </trkpt>
      <trkpt lat="46.63666" lon="5.55031">
        <ele>371.99</ele>
        <time>2022-10-23T09:27:11Z</time>
      </trkpt>
      <trkpt lat="46.63676" lon="5.55021">
        <ele>372.06</ele>
        <time>2022-10-23T09:27:20Z</time>
      </trkpt>
      <trkpt lat="46.63676" lon="5.5502">
        <ele>371.03</ele>
        <time>2022-10-23T09:27:21Z</time>
      </trkpt>
      <trkpt lat="46.63677" lon="5.5502">
        <ele>371.03</ele>
        <time>2022-10-23T09:27:22Z</time>
      </trkpt>
      <trkpt lat="46.63678" lon="5.55019">
        <ele>371.03</ele>
        <time>2022-10-23T09:27:23Z</time>
      </trkpt>
      <trkpt lat="46.63679" lon="5.55018">
        <ele>371.05</ele>
        <time>2022-10-23T09:27:24Z</time>
      </trkpt>
      <trkpt lat="46.6368" lon="5.55016">
        <ele>371.06</ele>
        <time>2022-10-23T09:27:25Z</time>
      </trkpt>
      <trkpt lat="46.63681" lon="5.55015">
        <ele>371.08</ele>
        <time>2022-10-23T09:27:26Z</time>
      </trkpt>
      <trkpt lat="46.63695" lon="5.55">
        <ele>370.22</ele>
        <time>2022-10-23T09:27:39Z</time>
      </trkpt>
      <trkpt lat="46.63708" lon="5.5499">
        <ele>369.35</ele>
        <time>2022-10-23T09:27:51Z</time>
      </trkpt>
      <trkpt lat="46.6372" lon="5.54983">
        <ele>366.64</ele>
        <time>2022-10-23T09:28:02Z</time>
      </trkpt>
      <trkpt lat="46.63741" lon="5.54972">
        <ele>363.91</ele>
        <time>2022-10-23T09:28:20Z</time>
      </trkpt>
      <trkpt lat="46.63768" lon="5.54963">
        <ele>362.03</ele>
        <time>2022-10-23T09:28:36Z</time>
      </trkpt>
      <trkpt lat="46.63775" lon="5.54957">
        <ele>362.02</ele>
        <time>2022-10-23T09:28:41Z</time>
      </trkpt>
      <trkpt lat="46.63777" lon="5.54956">
        <ele>362.01</ele>
        <time>2022-10-23T09:28:42Z</time>
      </trkpt>
      <trkpt lat="46.63778" lon="5.54954">
        <ele>362.02</ele>
        <time>2022-10-23T09:28:43Z</time>
      </trkpt>
      <trkpt lat="46.63791" lon="5.54943">
        <ele>360.17</ele>
        <time>2022-10-23T09:28:54Z</time>
      </trkpt>
      <trkpt lat="46.63792" lon="5.54942">
        <ele>360.15</ele>
        <time>2022-10-23T09:28:55Z</time>
      </trkpt>
      <trkpt lat="46.63794" lon="5.54941">
        <ele>360.13</ele>
        <time>2022-10-23T09:28:56Z</time>
      </trkpt>
      <trkpt lat="46.63811" lon="5.54929">
        <ele>358.15</ele>
        <time>2022-10-23T09:29:07Z</time>
      </trkpt>
      <trkpt lat="46.63824" lon="5.54922">
        <ele>358.24</ele>
        <time>2022-10-23T09:29:17Z</time>
      </trkpt>
      <trkpt lat="46.63826" lon="5.54921">
        <ele>357.38</ele>
        <time>2022-10-23T09:29:19Z</time>
      </trkpt>
      <trkpt lat="46.63828" lon="5.5492">
        <ele>357.38</ele>
        <time>2022-10-23T09:29:20Z</time>
      </trkpt>
      <trkpt lat="46.63844" lon="5.54909">
        <ele>356.43</ele>
        <time>2022-10-23T09:29:33Z</time>
      </trkpt>
      <trkpt lat="46.63857" lon="5.54903">
        <ele>356.51</ele>
        <time>2022-10-23T09:29:44Z</time>
      </trkpt>
      <trkpt lat="46.63859" lon="5.54903">
        <ele>356.5</ele>
        <time>2022-10-23T09:29:45Z</time>
      </trkpt>
      <trkpt lat="46.6386" lon="5.54902">
        <ele>356.51</ele>
        <time>2022-10-23T09:29:46Z</time>
      </trkpt>
      <trkpt lat="46.63862" lon="5.54902">
        <ele>356.51</ele>
        <time>2022-10-23T09:29:47Z</time>
      </trkpt>
      <trkpt lat="46.63864" lon="5.54901">
        <ele>356.52</ele>
        <time>2022-10-23T09:29:48Z</time>
      </trkpt>
      <trkpt lat="46.63865" lon="5.549">
        <ele>356.52</ele>
        <time>2022-10-23T09:29:49Z</time>
      </trkpt>
      <trkpt lat="46.63885" lon="5.54895">
        <ele>356.47</ele>
        <time>2022-10-23T09:30:03Z</time>
      </trkpt>
      <trkpt lat="46.63886" lon="5.54895">
        <ele>356.47</ele>
        <time>2022-10-23T09:30:04Z</time>
      </trkpt>
      <trkpt lat="46.63894" lon="5.54893">
        <ele>355.5</ele>
        <time>2022-10-23T09:30:10Z</time>
      </trkpt>
      <trkpt lat="46.6392" lon="5.54885">
        <ele>355.47</ele>
        <time>2022-10-23T09:30:25Z</time>
      </trkpt>
      <trkpt lat="46.6393" lon="5.54882">
        <ele>355.43</ele>
        <time>2022-10-23T09:30:29Z</time>
      </trkpt>
      <trkpt lat="46.63931" lon="5.54881">
        <ele>355.41</ele>
        <time>2022-10-23T09:30:30Z</time>
      </trkpt>
      <trkpt lat="46.63933" lon="5.54879">
        <ele>355.41</ele>
        <time>2022-10-23T09:30:31Z</time>
      </trkpt>
      <trkpt lat="46.63959" lon="5.54868">
        <ele>354.61</ele>
        <time>2022-10-23T09:30:46Z</time>
      </trkpt>
      <trkpt lat="46.63978" lon="5.54863">
        <ele>352.73</ele>
        <time>2022-10-23T09:30:59Z</time>
      </trkpt>
      <trkpt lat="46.63997" lon="5.54863">
        <ele>350.9</ele>
        <time>2022-10-23T09:31:12Z</time>
      </trkpt>
      <trkpt lat="46.64003" lon="5.54863">
        <ele>350.08</ele>
        <time>2022-10-23T09:31:16Z</time>
      </trkpt>
      <trkpt lat="46.64021" lon="5.54865">
        <ele>347.8</ele>
        <time>2022-10-23T09:31:28Z</time>
      </trkpt>
      <trkpt lat="46.64037" lon="5.54868">
        <ele>345.24</ele>
        <time>2022-10-23T09:31:40Z</time>
      </trkpt>
      <trkpt lat="46.6404" lon="5.54869">
        <ele>345.28</ele>
        <time>2022-10-23T09:31:42Z</time>
      </trkpt>
      <trkpt lat="46.64045" lon="5.54868">
        <ele>344.44</ele>
        <time>2022-10-23T09:31:46Z</time>
      </trkpt>
      <trkpt lat="46.64046" lon="5.54868">
        <ele>344.44</ele>
        <time>2022-10-23T09:31:47Z</time>
      </trkpt>
      <trkpt lat="46.64051" lon="5.54868">
        <ele>344.47</ele>
        <time>2022-10-23T09:31:51Z</time>
      </trkpt>
      <trkpt lat="46.64053" lon="5.54869">
        <ele>344.48</ele>
        <time>2022-10-23T09:31:52Z</time>
      </trkpt>
      <trkpt lat="46.64055" lon="5.5487">
        <ele>344.48</ele>
        <time>2022-10-23T09:31:53Z</time>
      </trkpt>
      <trkpt lat="46.64057" lon="5.5487">
        <ele>344.48</ele>
        <time>2022-10-23T09:31:54Z</time>
      </trkpt>
      <trkpt lat="46.6406" lon="5.5487">
        <ele>344.49</ele>
        <time>2022-10-23T09:31:55Z</time>
      </trkpt>
      <trkpt lat="46.64073" lon="5.54871">
        <ele>343.76</ele>
        <time>2022-10-23T09:32:03Z</time>
      </trkpt>
      <trkpt lat="46.64075" lon="5.54872">
        <ele>342.84</ele>
        <time>2022-10-23T09:32:04Z</time>
      </trkpt>
      <trkpt lat="46.64077" lon="5.54873">
        <ele>342.83</ele>
        <time>2022-10-23T09:32:05Z</time>
      </trkpt>
      <trkpt lat="46.6408" lon="5.54874">
        <ele>342.83</ele>
        <time>2022-10-23T09:32:06Z</time>
      </trkpt>
      <trkpt lat="46.64083" lon="5.54873">
        <ele>342.84</ele>
        <time>2022-10-23T09:32:07Z</time>
      </trkpt>
      <trkpt lat="46.64084" lon="5.54873">
        <ele>342.83</ele>
        <time>2022-10-23T09:32:08Z</time>
      </trkpt>
      <trkpt lat="46.64103" lon="5.54875">
        <ele>340.94</ele>
        <time>2022-10-23T09:32:21Z</time>
      </trkpt>
      <trkpt lat="46.6412" lon="5.54874">
        <ele>340.09</ele>
        <time>2022-10-23T09:32:31Z</time>
      </trkpt>
      <trkpt lat="46.64122" lon="5.54874">
        <ele>340.1</ele>
        <time>2022-10-23T09:32:32Z</time>
      </trkpt>
      <trkpt lat="46.64123" lon="5.54874">
        <ele>340.07</ele>
        <time>2022-10-23T09:32:33Z</time>
      </trkpt>
      <trkpt lat="46.64142" lon="5.54874">
        <ele>339.28</ele>
        <time>2022-10-23T09:32:45Z</time>
      </trkpt>
      <trkpt lat="46.64157" lon="5.54875">
        <ele>338.51</ele>
        <time>2022-10-23T09:32:57Z</time>
      </trkpt>
      <trkpt lat="46.64159" lon="5.54875">
        <ele>337.74</ele>
        <time>2022-10-23T09:32:58Z</time>
      </trkpt>
      <trkpt lat="46.64177" lon="5.54878">
        <ele>335.14</ele>
        <time>2022-10-23T09:33:11Z</time>
      </trkpt>
      <trkpt lat="46.64192" lon="5.5488">
        <ele>334.43</ele>
        <time>2022-10-23T09:33:21Z</time>
      </trkpt>
      <trkpt lat="46.64215" lon="5.54883">
        <ele>332.82</ele>
        <time>2022-10-23T09:33:36Z</time>
      </trkpt>
      <trkpt lat="46.64216" lon="5.54882">
        <ele>332.82</ele>
        <time>2022-10-23T09:33:37Z</time>
      </trkpt>
      <trkpt lat="46.64218" lon="5.54882">
        <ele>332.83</ele>
        <time>2022-10-23T09:33:38Z</time>
      </trkpt>
      <trkpt lat="46.6422" lon="5.54882">
        <ele>332.84</ele>
        <time>2022-10-23T09:33:39Z</time>
      </trkpt>
      <trkpt lat="46.64222" lon="5.54883">
        <ele>332.85</ele>
        <time>2022-10-23T09:33:40Z</time>
      </trkpt>
      <trkpt lat="46.64224" lon="5.54883">
        <ele>332.84</ele>
        <time>2022-10-23T09:33:41Z</time>
      </trkpt>
      <trkpt lat="46.64225" lon="5.54883">
        <ele>332.84</ele>
        <time>2022-10-23T09:33:42Z</time>
      </trkpt>
      <trkpt lat="46.64228" lon="5.54883">
        <ele>332.85</ele>
        <time>2022-10-23T09:33:43Z</time>
      </trkpt>
      <trkpt lat="46.64229" lon="5.54883">
        <ele>331.92</ele>
        <time>2022-10-23T09:33:44Z</time>
      </trkpt>
      <trkpt lat="46.64231" lon="5.54883">
        <ele>331.89</ele>
        <time>2022-10-23T09:33:45Z</time>
      </trkpt>
      <trkpt lat="46.64248" lon="5.54884">
        <ele>330.16</ele>
        <time>2022-10-23T09:33:58Z</time>
      </trkpt>
      <trkpt lat="46.64265" lon="5.54884">
        <ele>328.18</ele>
        <time>2022-10-23T09:34:09Z</time>
      </trkpt>
      <trkpt lat="46.64284" lon="5.54885">
        <ele>326.33</ele>
        <time>2022-10-23T09:34:19Z</time>
      </trkpt>
      <trkpt lat="46.64304" lon="5.54888">
        <ele>324.78</ele>
        <time>2022-10-23T09:34:30Z</time>
      </trkpt>
      <trkpt lat="46.64327" lon="5.54886">
        <ele>323.31</ele>
        <time>2022-10-23T09:34:45Z</time>
      </trkpt>
      <trkpt lat="46.64348" lon="5.54887">
        <ele>320.4</ele>
        <time>2022-10-23T09:34:58Z</time>
      </trkpt>
      <trkpt lat="46.64366" lon="5.54887">
        <ele>319.6</ele>
        <time>2022-10-23T09:35:10Z</time>
      </trkpt>
      <trkpt lat="46.64389" lon="5.54884">
        <ele>318.95</ele>
        <time>2022-10-23T09:35:26Z</time>
      </trkpt>
      <trkpt lat="46.6441" lon="5.54875">
        <ele>316.24</ele>
        <time>2022-10-23T09:35:43Z</time>
      </trkpt>
      <trkpt lat="46.64429" lon="5.54865">
        <ele>314.79</ele>
        <time>2022-10-23T09:35:57Z</time>
      </trkpt>
      <trkpt lat="46.6443" lon="5.54864">
        <ele>314.02</ele>
        <time>2022-10-23T09:35:58Z</time>
      </trkpt>
      <trkpt lat="46.64431" lon="5.54863">
        <ele>314.02</ele>
        <time>2022-10-23T09:35:59Z</time>
      </trkpt>
      <trkpt lat="46.64433" lon="5.54862">
        <ele>314.02</ele>
        <time>2022-10-23T09:36:00Z</time>
      </trkpt>
      <trkpt lat="46.64447" lon="5.54859">
        <ele>312.44</ele>
        <time>2022-10-23T09:36:11Z</time>
      </trkpt>
      <trkpt lat="46.64455" lon="5.54859">
        <ele>312.49</ele>
        <time>2022-10-23T09:36:17Z</time>
      </trkpt>
      <trkpt lat="46.64456" lon="5.54858">
        <ele>312.5</ele>
        <time>2022-10-23T09:36:18Z</time>
      </trkpt>
      <trkpt lat="46.64457" lon="5.54857">
        <ele>312.5</ele>
        <time>2022-10-23T09:36:19Z</time>
      </trkpt>
      <trkpt lat="46.64458" lon="5.54857">
        <ele>311.49</ele>
        <time>2022-10-23T09:36:20Z</time>
      </trkpt>
      <trkpt lat="46.6446" lon="5.54856">
        <ele>311.49</ele>
        <time>2022-10-23T09:36:21Z</time>
      </trkpt>
      <trkpt lat="46.64476" lon="5.54854">
        <ele>309.66</ele>
        <time>2022-10-23T09:36:34Z</time>
      </trkpt>
      <trkpt lat="46.64484" lon="5.54852">
        <ele>308.1</ele>
        <time>2022-10-23T09:36:40Z</time>
      </trkpt>
      <trkpt lat="46.645" lon="5.54837">
        <ele>305.56</ele>
        <time>2022-10-23T09:36:53Z</time>
      </trkpt>
      <trkpt lat="46.64518" lon="5.54814">
        <ele>302.97</ele>
        <time>2022-10-23T09:37:07Z</time>
      </trkpt>
      <trkpt lat="46.64521" lon="5.5481">
        <ele>301.84</ele>
        <time>2022-10-23T09:37:10Z</time>
      </trkpt>
      <trkpt lat="46.64522" lon="5.54808">
        <ele>301.79</ele>
        <time>2022-10-23T09:37:11Z</time>
      </trkpt>
      <trkpt lat="46.64523" lon="5.54806">
        <ele>301.83</ele>
        <time>2022-10-23T09:37:12Z</time>
      </trkpt>
      <trkpt lat="46.64524" lon="5.54805">
        <ele>301.03</ele>
        <time>2022-10-23T09:37:13Z</time>
      </trkpt>
      <trkpt lat="46.64525" lon="5.54803">
        <ele>301.03</ele>
        <time>2022-10-23T09:37:14Z</time>
      </trkpt>
      <trkpt lat="46.64526" lon="5.54801">
        <ele>301.03</ele>
        <time>2022-10-23T09:37:15Z</time>
      </trkpt>
      <trkpt lat="46.64528" lon="5.54799">
        <ele>301.09</ele>
        <time>2022-10-23T09:37:16Z</time>
      </trkpt>
      <trkpt lat="46.64529" lon="5.54798">
        <ele>300.14</ele>
        <time>2022-10-23T09:37:17Z</time>
      </trkpt>
      <trkpt lat="46.6453" lon="5.54796">
        <ele>300.14</ele>
        <time>2022-10-23T09:37:18Z</time>
      </trkpt>
      <trkpt lat="46.64531" lon="5.54794">
        <ele>300.17</ele>
        <time>2022-10-23T09:37:19Z</time>
      </trkpt>
      <trkpt lat="46.64532" lon="5.54792">
        <ele>300.17</ele>
        <time>2022-10-23T09:37:20Z</time>
      </trkpt>
      <trkpt lat="46.64533" lon="5.5479">
        <ele>300.13</ele>
        <time>2022-10-23T09:37:21Z</time>
      </trkpt>
      <trkpt lat="46.64534" lon="5.54789">
        <ele>300.14</ele>
        <time>2022-10-23T09:37:22Z</time>
      </trkpt>
      <trkpt lat="46.64536" lon="5.54787">
        <ele>300.19</ele>
        <time>2022-10-23T09:37:23Z</time>
      </trkpt>
      <trkpt lat="46.64537" lon="5.54786">
        <ele>299.36</ele>
        <time>2022-10-23T09:37:24Z</time>
      </trkpt>
      <trkpt lat="46.64538" lon="5.54784">
        <ele>299.37</ele>
        <time>2022-10-23T09:37:25Z</time>
      </trkpt>
      <trkpt lat="46.64548" lon="5.54762">
        <ele>296.48</ele>
        <time>2022-10-23T09:37:38Z</time>
      </trkpt>
      <trkpt lat="46.64555" lon="5.54738">
        <ele>294.89</ele>
        <time>2022-10-23T09:37:50Z</time>
      </trkpt>
      <trkpt lat="46.64556" lon="5.54715">
        <ele>294.05</ele>
        <time>2022-10-23T09:38:02Z</time>
      </trkpt>
      <trkpt lat="46.64556" lon="5.54708">
        <ele>294.08</ele>
        <time>2022-10-23T09:38:05Z</time>
      </trkpt>
      <trkpt lat="46.64556" lon="5.54706">
        <ele>294.07</ele>
        <time>2022-10-23T09:38:06Z</time>
      </trkpt>
      <trkpt lat="46.64556" lon="5.54704">
        <ele>293.18</ele>
        <time>2022-10-23T09:38:07Z</time>
      </trkpt>
      <trkpt lat="46.64556" lon="5.54702">
        <ele>293.21</ele>
        <time>2022-10-23T09:38:08Z</time>
      </trkpt>
      <trkpt lat="46.6456" lon="5.5468">
        <ele>290.76</ele>
        <time>2022-10-23T09:38:21Z</time>
      </trkpt>
      <trkpt lat="46.64562" lon="5.54674">
        <ele>289.96</ele>
        <time>2022-10-23T09:38:25Z</time>
      </trkpt>
      <trkpt lat="46.64562" lon="5.54672">
        <ele>289.94</ele>
        <time>2022-10-23T09:38:26Z</time>
      </trkpt>
      <trkpt lat="46.64565" lon="5.54665">
        <ele>288.1</ele>
        <time>2022-10-23T09:38:32Z</time>
      </trkpt>
      <trkpt lat="46.64566" lon="5.54664">
        <ele>288.12</ele>
        <time>2022-10-23T09:38:33Z</time>
      </trkpt>
      <trkpt lat="46.64567" lon="5.54663">
        <ele>288.12</ele>
        <time>2022-10-23T09:38:34Z</time>
      </trkpt>
      <trkpt lat="46.64568" lon="5.54661">
        <ele>287.31</ele>
        <time>2022-10-23T09:38:35Z</time>
      </trkpt>
      <trkpt lat="46.64568" lon="5.5466">
        <ele>287.34</ele>
        <time>2022-10-23T09:38:36Z</time>
      </trkpt>
      <trkpt lat="46.64575" lon="5.54642">
        <ele>284.86</ele>
        <time>2022-10-23T09:38:49Z</time>
      </trkpt>
      <trkpt lat="46.6458" lon="5.54631">
        <ele>282.99</ele>
        <time>2022-10-23T09:38:56Z</time>
      </trkpt>
      <trkpt lat="46.64593" lon="5.54623">
        <ele>280.58</ele>
        <time>2022-10-23T09:39:08Z</time>
      </trkpt>
      <trkpt lat="46.64595" lon="5.54619">
        <ele>279.76</ele>
        <time>2022-10-23T09:39:11Z</time>
      </trkpt>
      <trkpt lat="46.64603" lon="5.54611">
        <ele>278.25</ele>
        <time>2022-10-23T09:39:20Z</time>
      </trkpt>
      <trkpt lat="46.64618" lon="5.54605">
        <ele>275.29</ele>
        <time>2022-10-23T09:39:36Z</time>
      </trkpt>
      <trkpt lat="46.64633" lon="5.54607">
        <ele>273.78</ele>
        <time>2022-10-23T09:39:47Z</time>
      </trkpt>
      <trkpt lat="46.64634" lon="5.54607">
        <ele>273.78</ele>
        <time>2022-10-23T09:39:48Z</time>
      </trkpt>
      <trkpt lat="46.64636" lon="5.54607">
        <ele>273.81</ele>
        <time>2022-10-23T09:39:49Z</time>
      </trkpt>
      <trkpt lat="46.64649" lon="5.54607">
        <ele>270.97</ele>
        <time>2022-10-23T09:39:57Z</time>
      </trkpt>
      <trkpt lat="46.6465" lon="5.54606">
        <ele>270.98</ele>
        <time>2022-10-23T09:39:58Z</time>
      </trkpt>
      <trkpt lat="46.64655" lon="5.54604">
        <ele>270.22</ele>
        <time>2022-10-23T09:40:02Z</time>
      </trkpt>
      <trkpt lat="46.64656" lon="5.54603">
        <ele>269.08</ele>
        <time>2022-10-23T09:40:03Z</time>
      </trkpt>
      <trkpt lat="46.64657" lon="5.54602">
        <ele>269.08</ele>
        <time>2022-10-23T09:40:04Z</time>
      </trkpt>
      <trkpt lat="46.64658" lon="5.54601">
        <ele>269.13</ele>
        <time>2022-10-23T09:40:05Z</time>
      </trkpt>
      <trkpt lat="46.64659" lon="5.54599">
        <ele>268.32</ele>
        <time>2022-10-23T09:40:06Z</time>
      </trkpt>
      <trkpt lat="46.6466" lon="5.54597">
        <ele>268.37</ele>
        <time>2022-10-23T09:40:07Z</time>
      </trkpt>
      <trkpt lat="46.6466" lon="5.54596">
        <ele>268.29</ele>
        <time>2022-10-23T09:40:08Z</time>
      </trkpt>
      <trkpt lat="46.6466" lon="5.54593">
        <ele>268.35</ele>
        <time>2022-10-23T09:40:09Z</time>
      </trkpt>
      <trkpt lat="46.64661" lon="5.54591">
        <ele>267.38</ele>
        <time>2022-10-23T09:40:10Z</time>
      </trkpt>
      <trkpt lat="46.64658" lon="5.54551">
        <ele>265.7</ele>
        <time>2022-10-23T09:40:29Z</time>
      </trkpt>
      <trkpt lat="46.64658" lon="5.54518">
        <ele>263.16</ele>
        <time>2022-10-23T09:40:46Z</time>
      </trkpt>
      <trkpt lat="46.6467" lon="5.54508">
        <ele>260.92</ele>
        <time>2022-10-23T09:41:00Z</time>
      </trkpt>
      <trkpt lat="46.6468" lon="5.54514">
        <ele>261.01</ele>
        <time>2022-10-23T09:41:08Z</time>
      </trkpt>
      <trkpt lat="46.64681" lon="5.54515">
        <ele>261.02</ele>
        <time>2022-10-23T09:41:09Z</time>
      </trkpt>
      <trkpt lat="46.64683" lon="5.54517">
        <ele>260.23</ele>
        <time>2022-10-23T09:41:10Z</time>
      </trkpt>
      <trkpt lat="46.64697" lon="5.5453">
        <ele>259.51</ele>
        <time>2022-10-23T09:41:19Z</time>
      </trkpt>
      <trkpt lat="46.64697" lon="5.54532">
        <ele>258.66</ele>
        <time>2022-10-23T09:41:20Z</time>
      </trkpt>
      <trkpt lat="46.64697" lon="5.54534">
        <ele>258.64</ele>
        <time>2022-10-23T09:41:21Z</time>
      </trkpt>
      <trkpt lat="46.64697" lon="5.54538">
        <ele>258.66</ele>
        <time>2022-10-23T09:41:23Z</time>
      </trkpt>
      <trkpt lat="46.64697" lon="5.5454">
        <ele>258.67</ele>
        <time>2022-10-23T09:41:24Z</time>
      </trkpt>
      <trkpt lat="46.64697" lon="5.54542">
        <ele>258.66</ele>
        <time>2022-10-23T09:41:25Z</time>
      </trkpt>
      <trkpt lat="46.64698" lon="5.54543">
        <ele>258.68</ele>
        <time>2022-10-23T09:41:26Z</time>
      </trkpt>
      <trkpt lat="46.64699" lon="5.54545">
        <ele>258.69</ele>
        <time>2022-10-23T09:41:27Z</time>
      </trkpt>
      <trkpt lat="46.647" lon="5.54546">
        <ele>258.68</ele>
        <time>2022-10-23T09:41:28Z</time>
      </trkpt>
      <trkpt lat="46.64709" lon="5.54557">
        <ele>257.9</ele>
        <time>2022-10-23T09:41:35Z</time>
      </trkpt>
      <trkpt lat="46.6471" lon="5.54558">
        <ele>257.93</ele>
        <time>2022-10-23T09:41:36Z</time>
      </trkpt>
      <trkpt lat="46.64712" lon="5.5456">
        <ele>257.94</ele>
        <time>2022-10-23T09:41:37Z</time>
      </trkpt>
      <trkpt lat="46.64713" lon="5.54561">
        <ele>257.94</ele>
        <time>2022-10-23T09:41:38Z</time>
      </trkpt>
      <trkpt lat="46.64714" lon="5.54562">
        <ele>257.97</ele>
        <time>2022-10-23T09:41:39Z</time>
      </trkpt>
      <trkpt lat="46.64714" lon="5.54564">
        <ele>257.98</ele>
        <time>2022-10-23T09:41:40Z</time>
      </trkpt>
      <trkpt lat="46.64714" lon="5.54566">
        <ele>257.1</ele>
        <time>2022-10-23T09:41:41Z</time>
      </trkpt>
      <trkpt lat="46.64714" lon="5.54568">
        <ele>257.11</ele>
        <time>2022-10-23T09:41:42Z</time>
      </trkpt>
      <trkpt lat="46.64717" lon="5.54572">
        <ele>257.15</ele>
        <time>2022-10-23T09:41:46Z</time>
      </trkpt>
      <trkpt lat="46.64718" lon="5.54575">
        <ele>257.16</ele>
        <time>2022-10-23T09:41:48Z</time>
      </trkpt>
      <trkpt lat="46.64718" lon="5.54576">
        <ele>257.17</ele>
        <time>2022-10-23T09:41:49Z</time>
      </trkpt>
      <trkpt lat="46.64719" lon="5.5459">
        <ele>257.23</ele>
        <time>2022-10-23T09:41:56Z</time>
      </trkpt>
      <trkpt lat="46.64719" lon="5.54592">
        <ele>257.24</ele>
        <time>2022-10-23T09:41:57Z</time>
      </trkpt>
      <trkpt lat="46.64719" lon="5.54593">
        <ele>257.25</ele>
        <time>2022-10-23T09:41:58Z</time>
      </trkpt>
      <trkpt lat="46.64723" lon="5.54604">
        <ele>257.29</ele>
        <time>2022-10-23T09:42:04Z</time>
      </trkpt>
      <trkpt lat="46.64725" lon="5.54605">
        <ele>257.31</ele>
        <time>2022-10-23T09:42:05Z</time>
      </trkpt>
      <trkpt lat="46.64727" lon="5.54606">
        <ele>257.31</ele>
        <time>2022-10-23T09:42:06Z</time>
      </trkpt>
      <trkpt lat="46.64729" lon="5.54606">
        <ele>257.32</ele>
        <time>2022-10-23T09:42:07Z</time>
      </trkpt>
      <trkpt lat="46.64731" lon="5.54605">
        <ele>257.32</ele>
        <time>2022-10-23T09:42:08Z</time>
      </trkpt>
      <trkpt lat="46.64733" lon="5.54604">
        <ele>257.32</ele>
        <time>2022-10-23T09:42:09Z</time>
      </trkpt>
      <trkpt lat="46.64734" lon="5.54603">
        <ele>257.33</ele>
        <time>2022-10-23T09:42:10Z</time>
      </trkpt>
      <trkpt lat="46.64736" lon="5.54602">
        <ele>257.32</ele>
        <time>2022-10-23T09:42:11Z</time>
      </trkpt>
      <trkpt lat="46.64737" lon="5.54601">
        <ele>257.33</ele>
        <time>2022-10-23T09:42:12Z</time>
      </trkpt>
      <trkpt lat="46.64747" lon="5.54582">
        <ele>255.76</ele>
        <time>2022-10-23T09:42:23Z</time>
      </trkpt>
      <trkpt lat="46.64757" lon="5.54547">
        <ele>255.9</ele>
        <time>2022-10-23T09:42:41Z</time>
      </trkpt>
      <trkpt lat="46.64759" lon="5.54543">
        <ele>255.92</ele>
        <time>2022-10-23T09:42:43Z</time>
      </trkpt>
      <trkpt lat="46.64759" lon="5.54542">
        <ele>255.92</ele>
        <time>2022-10-23T09:42:44Z</time>
      </trkpt>
      <trkpt lat="46.6476" lon="5.5454">
        <ele>255.93</ele>
        <time>2022-10-23T09:42:45Z</time>
      </trkpt>
      <trkpt lat="46.64761" lon="5.54537">
        <ele>255.94</ele>
        <time>2022-10-23T09:42:47Z</time>
      </trkpt>
      <trkpt lat="46.64761" lon="5.54535">
        <ele>255.95</ele>
        <time>2022-10-23T09:42:48Z</time>
      </trkpt>
      <trkpt lat="46.64766" lon="5.54506">
        <ele>256.03</ele>
        <time>2022-10-23T09:43:03Z</time>
      </trkpt>
      <trkpt lat="46.6477" lon="5.54506">
        <ele>256.05</ele>
        <time>2022-10-23T09:43:08Z</time>
      </trkpt>
      <trkpt lat="46.64772" lon="5.54504">
        <ele>256.07</ele>
        <time>2022-10-23T09:43:10Z</time>
      </trkpt>
      <trkpt lat="46.64783" lon="5.54492">
        <ele>254.23</ele>
        <time>2022-10-23T09:43:21Z</time>
      </trkpt>
      <trkpt lat="46.64784" lon="5.5449">
        <ele>254.25</ele>
        <time>2022-10-23T09:43:22Z</time>
      </trkpt>
      <trkpt lat="46.64785" lon="5.54488">
        <ele>254.21</ele>
        <time>2022-10-23T09:43:23Z</time>
      </trkpt>
      <trkpt lat="46.64788" lon="5.54483">
        <ele>254.28</ele>
        <time>2022-10-23T09:43:26Z</time>
      </trkpt>
      <trkpt lat="46.64788" lon="5.54481">
        <ele>254.25</ele>
        <time>2022-10-23T09:43:27Z</time>
      </trkpt>
      <trkpt lat="46.64789" lon="5.5448">
        <ele>254.28</ele>
        <time>2022-10-23T09:43:28Z</time>
      </trkpt>
      <trkpt lat="46.64789" lon="5.54478">
        <ele>254.25</ele>
        <time>2022-10-23T09:43:29Z</time>
      </trkpt>
      <trkpt lat="46.6479" lon="5.54476">
        <ele>254.33</ele>
        <time>2022-10-23T09:43:30Z</time>
      </trkpt>
      <trkpt lat="46.64791" lon="5.54475">
        <ele>254.3</ele>
        <time>2022-10-23T09:43:31Z</time>
      </trkpt>
      <trkpt lat="46.64794" lon="5.54456">
        <ele>254.43</ele>
        <time>2022-10-23T09:43:41Z</time>
      </trkpt>
      <trkpt lat="46.64795" lon="5.54455">
        <ele>254.43</ele>
        <time>2022-10-23T09:43:42Z</time>
      </trkpt>
      <trkpt lat="46.64795" lon="5.54454">
        <ele>254.43</ele>
        <time>2022-10-23T09:43:43Z</time>
      </trkpt>
      <trkpt lat="46.64796" lon="5.54452">
        <ele>254.44</ele>
        <time>2022-10-23T09:43:44Z</time>
      </trkpt>
      <trkpt lat="46.64796" lon="5.5445">
        <ele>254.44</ele>
        <time>2022-10-23T09:43:45Z</time>
      </trkpt>
      <trkpt lat="46.64796" lon="5.54448">
        <ele>253.54</ele>
        <time>2022-10-23T09:43:46Z</time>
      </trkpt>
      <trkpt lat="46.64797" lon="5.54446">
        <ele>253.55</ele>
        <time>2022-10-23T09:43:47Z</time>
      </trkpt>
      <trkpt lat="46.64797" lon="5.54444">
        <ele>253.56</ele>
        <time>2022-10-23T09:43:48Z</time>
      </trkpt>
      <trkpt lat="46.64797" lon="5.54442">
        <ele>253.56</ele>
        <time>2022-10-23T09:43:49Z</time>
      </trkpt>
      <trkpt lat="46.648" lon="5.54433">
        <ele>253.6</ele>
        <time>2022-10-23T09:43:54Z</time>
      </trkpt>
      <trkpt lat="46.64803" lon="5.5442">
        <ele>253.64</ele>
        <time>2022-10-23T09:44:00Z</time>
      </trkpt>
      <trkpt lat="46.64803" lon="5.54419">
        <ele>253.64</ele>
        <time>2022-10-23T09:44:01Z</time>
      </trkpt>
      <trkpt lat="46.64807" lon="5.54405">
        <ele>253.69</ele>
        <time>2022-10-23T09:44:09Z</time>
      </trkpt>
      <trkpt lat="46.64807" lon="5.54395">
        <ele>253.71</ele>
        <time>2022-10-23T09:44:13Z</time>
      </trkpt>
      <trkpt lat="46.64808" lon="5.54393">
        <ele>253.7</ele>
        <time>2022-10-23T09:44:14Z</time>
      </trkpt>
      <trkpt lat="46.64808" lon="5.54391">
        <ele>253.72</ele>
        <time>2022-10-23T09:44:15Z</time>
      </trkpt>
      <trkpt lat="46.6481" lon="5.54382">
        <ele>253.74</ele>
        <time>2022-10-23T09:44:20Z</time>
      </trkpt>
      <trkpt lat="46.64809" lon="5.5438">
        <ele>253.75</ele>
        <time>2022-10-23T09:44:21Z</time>
      </trkpt>
      <trkpt lat="46.64811" lon="5.54364">
        <ele>253.78</ele>
        <time>2022-10-23T09:44:29Z</time>
      </trkpt>
      <trkpt lat="46.64812" lon="5.54362">
        <ele>253.8</ele>
        <time>2022-10-23T09:44:30Z</time>
      </trkpt>
      <trkpt lat="46.64812" lon="5.54359">
        <ele>253.8</ele>
        <time>2022-10-23T09:44:31Z</time>
      </trkpt>
      <trkpt lat="46.64821" lon="5.54328">
        <ele>253.86</ele>
        <time>2022-10-23T09:44:46Z</time>
      </trkpt>
      <trkpt lat="46.64827" lon="5.54302">
        <ele>253.91</ele>
        <time>2022-10-23T09:44:59Z</time>
      </trkpt>
      <trkpt lat="46.64837" lon="5.5428">
        <ele>253.94</ele>
        <time>2022-10-23T09:45:11Z</time>
      </trkpt>
      <trkpt lat="46.64845" lon="5.54249">
        <ele>254.01</ele>
        <time>2022-10-23T09:45:25Z</time>
      </trkpt>
      <trkpt lat="46.64856" lon="5.54215">
        <ele>254.1</ele>
        <time>2022-10-23T09:45:42Z</time>
      </trkpt>
      <trkpt lat="46.64859" lon="5.54185">
        <ele>253.32</ele>
        <time>2022-10-23T09:45:56Z</time>
      </trkpt>
      <trkpt lat="46.64861" lon="5.54158">
        <ele>252.66</ele>
        <time>2022-10-23T09:46:09Z</time>
      </trkpt>
      <trkpt lat="46.64858" lon="5.54131">
        <ele>251.83</ele>
        <time>2022-10-23T09:46:21Z</time>
      </trkpt>
      <trkpt lat="46.64858" lon="5.54129">
        <ele>251.85</ele>
        <time>2022-10-23T09:46:22Z</time>
      </trkpt>
      <trkpt lat="46.64858" lon="5.54126">
        <ele>251.86</ele>
        <time>2022-10-23T09:46:23Z</time>
      </trkpt>
      <trkpt lat="46.64858" lon="5.54124">
        <ele>251.87</ele>
        <time>2022-10-23T09:46:24Z</time>
      </trkpt>
      <trkpt lat="46.64858" lon="5.54122">
        <ele>251.88</ele>
        <time>2022-10-23T09:46:25Z</time>
      </trkpt>
      <trkpt lat="46.64858" lon="5.54083">
        <ele>251.05</ele>
        <time>2022-10-23T09:46:44Z</time>
      </trkpt>
      <trkpt lat="46.64862" lon="5.54068">
        <ele>251.13</ele>
        <time>2022-10-23T09:46:57Z</time>
      </trkpt>
      <trkpt lat="46.64861" lon="5.54065">
        <ele>251.17</ele>
        <time>2022-10-23T09:47:04Z</time>
      </trkpt>
      <trkpt lat="46.6486" lon="5.54064">
        <ele>251.18</ele>
        <time>2022-10-23T09:47:05Z</time>
      </trkpt>
      <trkpt lat="46.6486" lon="5.54057">
        <ele>251.2</ele>
        <time>2022-10-23T09:47:10Z</time>
      </trkpt>
      <trkpt lat="46.64859" lon="5.54033">
        <ele>251.28</ele>
        <time>2022-10-23T09:47:23Z</time>
      </trkpt>
      <trkpt lat="46.64855" lon="5.54001">
        <ele>250.58</ele>
        <time>2022-10-23T09:47:39Z</time>
      </trkpt>
      <trkpt lat="46.64854" lon="5.53973">
        <ele>250.69</ele>
        <time>2022-10-23T09:47:54Z</time>
      </trkpt>
      <trkpt lat="46.64853" lon="5.53966">
        <ele>250.76</ele>
        <time>2022-10-23T09:48:03Z</time>
      </trkpt>
      <trkpt lat="46.64853" lon="5.53964">
        <ele>250.77</ele>
        <time>2022-10-23T09:48:05Z</time>
      </trkpt>
      <trkpt lat="46.64855" lon="5.53949">
        <ele>250.01</ele>
        <time>2022-10-23T09:48:17Z</time>
      </trkpt>
      <trkpt lat="46.64856" lon="5.53949">
        <ele>250.02</ele>
        <time>2022-10-23T09:48:18Z</time>
      </trkpt>
      <trkpt lat="46.64859" lon="5.53943">
        <ele>250.05</ele>
        <time>2022-10-23T09:48:24Z</time>
      </trkpt>
      <trkpt lat="46.64859" lon="5.53941">
        <ele>250.06</ele>
        <time>2022-10-23T09:48:25Z</time>
      </trkpt>
      <trkpt lat="46.64859" lon="5.53934">
        <ele>250.09</ele>
        <time>2022-10-23T09:48:30Z</time>
      </trkpt>
      <trkpt lat="46.64874" lon="5.53919">
        <ele>250.17</ele>
        <time>2022-10-23T09:48:42Z</time>
      </trkpt>
      <trkpt lat="46.64875" lon="5.53918">
        <ele>250.18</ele>
        <time>2022-10-23T09:48:43Z</time>
      </trkpt>
      <trkpt lat="46.64895" lon="5.53908">
        <ele>250.25</ele>
        <time>2022-10-23T09:48:59Z</time>
      </trkpt>
      <trkpt lat="46.64917" lon="5.53889">
        <ele>250.35</ele>
        <time>2022-10-23T09:49:18Z</time>
      </trkpt>
      <trkpt lat="46.64937" lon="5.53871">
        <ele>249.67</ele>
        <time>2022-10-23T09:49:35Z</time>
      </trkpt>
      <trkpt lat="46.6495" lon="5.53841">
        <ele>249.74</ele>
        <time>2022-10-23T09:49:52Z</time>
      </trkpt>
      <trkpt lat="46.64962" lon="5.53818">
        <ele>249.82</ele>
        <time>2022-10-23T09:50:06Z</time>
      </trkpt>
      <trkpt lat="46.64975" lon="5.5379">
        <ele>249.93</ele>
        <time>2022-10-23T09:50:23Z</time>
      </trkpt>
      <trkpt lat="46.64987" lon="5.53765">
        <ele>250.05</ele>
        <time>2022-10-23T09:50:39Z</time>
      </trkpt>
      <trkpt lat="46.65006" lon="5.53735">
        <ele>250.17</ele>
        <time>2022-10-23T09:50:58Z</time>
      </trkpt>
      <trkpt lat="46.6502" lon="5.53714">
        <ele>250.26</ele>
        <time>2022-10-23T09:51:12Z</time>
      </trkpt>
      <trkpt lat="46.6504" lon="5.53685">
        <ele>250.38</ele>
        <time>2022-10-23T09:51:32Z</time>
      </trkpt>
      <trkpt lat="46.65041" lon="5.53684">
        <ele>250.39</ele>
        <time>2022-10-23T09:51:33Z</time>
      </trkpt>
      <trkpt lat="46.65042" lon="5.53682">
        <ele>250.39</ele>
        <time>2022-10-23T09:51:34Z</time>
      </trkpt>
      <trkpt lat="46.65049" lon="5.53673">
        <ele>250.43</ele>
        <time>2022-10-23T09:51:41Z</time>
      </trkpt>
      <trkpt lat="46.6505" lon="5.53672">
        <ele>250.42</ele>
        <time>2022-10-23T09:51:42Z</time>
      </trkpt>
      <trkpt lat="46.6505" lon="5.53671">
        <ele>250.43</ele>
        <time>2022-10-23T09:51:43Z</time>
      </trkpt>
      <trkpt lat="46.65052" lon="5.5367">
        <ele>250.44</ele>
        <time>2022-10-23T09:51:44Z</time>
      </trkpt>
      <trkpt lat="46.65053" lon="5.53669">
        <ele>250.44</ele>
        <time>2022-10-23T09:51:45Z</time>
      </trkpt>
      <trkpt lat="46.65054" lon="5.53667">
        <ele>250.45</ele>
        <time>2022-10-23T09:51:46Z</time>
      </trkpt>
      <trkpt lat="46.65055" lon="5.53666">
        <ele>250.45</ele>
        <time>2022-10-23T09:51:47Z</time>
      </trkpt>
      <trkpt lat="46.65056" lon="5.53665">
        <ele>250.46</ele>
        <time>2022-10-23T09:51:48Z</time>
      </trkpt>
      <trkpt lat="46.65057" lon="5.53664">
        <ele>250.47</ele>
        <time>2022-10-23T09:51:49Z</time>
      </trkpt>
      <trkpt lat="46.65058" lon="5.53662">
        <ele>250.48</ele>
        <time>2022-10-23T09:51:50Z</time>
      </trkpt>
      <trkpt lat="46.65059" lon="5.53661">
        <ele>250.49</ele>
        <time>2022-10-23T09:51:51Z</time>
      </trkpt>
      <trkpt lat="46.6506" lon="5.5366">
        <ele>250.49</ele>
        <time>2022-10-23T09:51:52Z</time>
      </trkpt>
      <trkpt lat="46.65062" lon="5.53659">
        <ele>250.5</ele>
        <time>2022-10-23T09:51:53Z</time>
      </trkpt>
      <trkpt lat="46.65063" lon="5.53658">
        <ele>250.5</ele>
        <time>2022-10-23T09:51:54Z</time>
      </trkpt>
      <trkpt lat="46.65064" lon="5.53656">
        <ele>250.5</ele>
        <time>2022-10-23T09:51:55Z</time>
      </trkpt>
      <trkpt lat="46.65065" lon="5.53655">
        <ele>250.5</ele>
        <time>2022-10-23T09:51:56Z</time>
      </trkpt>
      <trkpt lat="46.65066" lon="5.53654">
        <ele>250.51</ele>
        <time>2022-10-23T09:51:57Z</time>
      </trkpt>
      <trkpt lat="46.65067" lon="5.53652">
        <ele>250.52</ele>
        <time>2022-10-23T09:51:58Z</time>
      </trkpt>
      <trkpt lat="46.65069" lon="5.53651">
        <ele>250.53</ele>
        <time>2022-10-23T09:51:59Z</time>
      </trkpt>
      <trkpt lat="46.6507" lon="5.53649">
        <ele>250.53</ele>
        <time>2022-10-23T09:52:00Z</time>
      </trkpt>
      <trkpt lat="46.65071" lon="5.53648">
        <ele>250.53</ele>
        <time>2022-10-23T09:52:01Z</time>
      </trkpt>
      <trkpt lat="46.65093" lon="5.53627">
        <ele>249.79</ele>
        <time>2022-10-23T09:52:19Z</time>
      </trkpt>
      <trkpt lat="46.65102" lon="5.53617">
        <ele>249.05</ele>
        <time>2022-10-23T09:52:27Z</time>
      </trkpt>
      <trkpt lat="46.65103" lon="5.53616">
        <ele>249.06</ele>
        <time>2022-10-23T09:52:28Z</time>
      </trkpt>
      <trkpt lat="46.65124" lon="5.53602">
        <ele>249.17</ele>
        <time>2022-10-23T09:52:43Z</time>
      </trkpt>
      <trkpt lat="46.65143" lon="5.53584">
        <ele>249.27</ele>
        <time>2022-10-23T09:52:59Z</time>
      </trkpt>
      <trkpt lat="46.65162" lon="5.53565">
        <ele>249.36</ele>
        <time>2022-10-23T09:53:16Z</time>
      </trkpt>
      <trkpt lat="46.6517" lon="5.53557">
        <ele>249.4</ele>
        <time>2022-10-23T09:53:23Z</time>
      </trkpt>
      <trkpt lat="46.65174" lon="5.53555">
        <ele>248.59</ele>
        <time>2022-10-23T09:53:33Z</time>
      </trkpt>
      <trkpt lat="46.6519" lon="5.53535">
        <ele>248.66</ele>
        <time>2022-10-23T09:53:49Z</time>
      </trkpt>
      <trkpt lat="46.65205" lon="5.53519">
        <ele>247.99</ele>
        <time>2022-10-23T09:54:02Z</time>
      </trkpt>
      <trkpt lat="46.65221" lon="5.53497">
        <ele>248.1</ele>
        <time>2022-10-23T09:54:19Z</time>
      </trkpt>
      <trkpt lat="46.6524" lon="5.53468">
        <ele>248.18</ele>
        <time>2022-10-23T09:54:39Z</time>
      </trkpt>
      <trkpt lat="46.65251" lon="5.5345">
        <ele>248.21</ele>
        <time>2022-10-23T09:54:51Z</time>
      </trkpt>
      <trkpt lat="46.65252" lon="5.53449">
        <ele>248.22</ele>
        <time>2022-10-23T09:54:52Z</time>
      </trkpt>
      <trkpt lat="46.65253" lon="5.53447">
        <ele>248.22</ele>
        <time>2022-10-23T09:54:53Z</time>
      </trkpt>
      <trkpt lat="46.65254" lon="5.53445">
        <ele>248.24</ele>
        <time>2022-10-23T09:54:54Z</time>
      </trkpt>
      <trkpt lat="46.65254" lon="5.53444">
        <ele>248.23</ele>
        <time>2022-10-23T09:54:55Z</time>
      </trkpt>
      <trkpt lat="46.65255" lon="5.53443">
        <ele>248.25</ele>
        <time>2022-10-23T09:54:56Z</time>
      </trkpt>
      <trkpt lat="46.65257" lon="5.53442">
        <ele>248.24</ele>
        <time>2022-10-23T09:54:57Z</time>
      </trkpt>
      <trkpt lat="46.65258" lon="5.53441">
        <ele>248.24</ele>
        <time>2022-10-23T09:54:58Z</time>
      </trkpt>
      <trkpt lat="46.65259" lon="5.5344">
        <ele>248.25</ele>
        <time>2022-10-23T09:54:59Z</time>
      </trkpt>
      <trkpt lat="46.6526" lon="5.53439">
        <ele>248.25</ele>
        <time>2022-10-23T09:55:00Z</time>
      </trkpt>
      <trkpt lat="46.6527" lon="5.53426">
        <ele>248.3</ele>
        <time>2022-10-23T09:55:10Z</time>
      </trkpt>
      <trkpt lat="46.65271" lon="5.53424">
        <ele>248.3</ele>
        <time>2022-10-23T09:55:11Z</time>
      </trkpt>
      <trkpt lat="46.65285" lon="5.53402">
        <ele>248.37</ele>
        <time>2022-10-23T09:55:25Z</time>
      </trkpt>
      <trkpt lat="46.65285" lon="5.534">
        <ele>248.39</ele>
        <time>2022-10-23T09:55:26Z</time>
      </trkpt>
      <trkpt lat="46.65286" lon="5.53399">
        <ele>248.39</ele>
        <time>2022-10-23T09:55:27Z</time>
      </trkpt>
      <trkpt lat="46.65287" lon="5.53398">
        <ele>248.37</ele>
        <time>2022-10-23T09:55:28Z</time>
      </trkpt>
      <trkpt lat="46.65288" lon="5.53397">
        <ele>248.4</ele>
        <time>2022-10-23T09:55:29Z</time>
      </trkpt>
      <trkpt lat="46.65308" lon="5.53392">
        <ele>248.47</ele>
        <time>2022-10-23T09:55:42Z</time>
      </trkpt>
      <trkpt lat="46.6532" lon="5.53383">
        <ele>248.53</ele>
        <time>2022-10-23T09:55:56Z</time>
      </trkpt>
      <trkpt lat="46.65322" lon="5.53381">
        <ele>248.54</ele>
        <time>2022-10-23T09:55:59Z</time>
      </trkpt>
      <trkpt lat="46.65341" lon="5.53367">
        <ele>248.59</ele>
        <time>2022-10-23T09:56:15Z</time>
      </trkpt>
      <trkpt lat="46.65363" lon="5.53345">
        <ele>248.66</ele>
        <time>2022-10-23T09:56:32Z</time>
      </trkpt>
      <trkpt lat="46.65382" lon="5.53323">
        <ele>247.85</ele>
        <time>2022-10-23T09:56:48Z</time>
      </trkpt>
      <trkpt lat="46.654" lon="5.53299">
        <ele>247.08</ele>
        <time>2022-10-23T09:57:03Z</time>
      </trkpt>
      <trkpt lat="46.65416" lon="5.53274">
        <ele>246.32</ele>
        <time>2022-10-23T09:57:19Z</time>
      </trkpt>
      <trkpt lat="46.65417" lon="5.53273">
        <ele>246.33</ele>
        <time>2022-10-23T09:57:20Z</time>
      </trkpt>
      <trkpt lat="46.65418" lon="5.53271">
        <ele>246.34</ele>
        <time>2022-10-23T09:57:21Z</time>
      </trkpt>
      <trkpt lat="46.65436" lon="5.5325">
        <ele>246.47</ele>
        <time>2022-10-23T09:57:38Z</time>
      </trkpt>
      <trkpt lat="46.65462" lon="5.53218">
        <ele>245.82</ele>
        <time>2022-10-23T09:58:04Z</time>
      </trkpt>
      <trkpt lat="46.65469" lon="5.53202">
        <ele>245.87</ele>
        <time>2022-10-23T09:58:17Z</time>
      </trkpt>
      <trkpt lat="46.65485" lon="5.53162">
        <ele>246</ele>
        <time>2022-10-23T09:58:41Z</time>
      </trkpt>
      <trkpt lat="46.65491" lon="5.53146">
        <ele>248.6</ele>
        <time>2022-10-23T09:58:51Z</time>
      </trkpt>
      <trkpt lat="46.65497" lon="5.53129">
        <ele>245.49</ele>
        <time>2022-10-23T09:59:01Z</time>
      </trkpt>
      <trkpt lat="46.65497" lon="5.53127">
        <ele>249.46</ele>
        <time>2022-10-23T09:59:02Z</time>
      </trkpt>
      <trkpt lat="46.65505" lon="5.53092">
        <ele>247.16</ele>
        <time>2022-10-23T09:59:21Z</time>
      </trkpt>
      <trkpt lat="46.65505" lon="5.53086">
        <ele>247.17</ele>
        <time>2022-10-23T09:59:24Z</time>
      </trkpt>
      <trkpt lat="46.65504" lon="5.53084">
        <ele>247.17</ele>
        <time>2022-10-23T09:59:25Z</time>
      </trkpt>
      <trkpt lat="46.65504" lon="5.53082">
        <ele>247.17</ele>
        <time>2022-10-23T09:59:26Z</time>
      </trkpt>
      <trkpt lat="46.65503" lon="5.53081">
        <ele>246.36</ele>
        <time>2022-10-23T09:59:27Z</time>
      </trkpt>
      <trkpt lat="46.65502" lon="5.5308">
        <ele>246.36</ele>
        <time>2022-10-23T09:59:28Z</time>
      </trkpt>
      <trkpt lat="46.65501" lon="5.53078">
        <ele>246.36</ele>
        <time>2022-10-23T09:59:29Z</time>
      </trkpt>
      <trkpt lat="46.65483" lon="5.53049">
        <ele>243.91</ele>
        <time>2022-10-23T09:59:49Z</time>
      </trkpt>
      <trkpt lat="46.65466" lon="5.53016">
        <ele>243.05</ele>
        <time>2022-10-23T10:00:11Z</time>
      </trkpt>
      <trkpt lat="46.65439" lon="5.5298">
        <ele>241.26</ele>
        <time>2022-10-23T10:00:37Z</time>
      </trkpt>
      <trkpt lat="46.65411" lon="5.52968">
        <ele>240.47</ele>
        <time>2022-10-23T10:00:59Z</time>
      </trkpt>
      <trkpt lat="46.6539" lon="5.52963">
        <ele>240.5</ele>
        <time>2022-10-23T10:01:16Z</time>
      </trkpt>
      <trkpt lat="46.65381" lon="5.52963">
        <ele>240.51</ele>
        <time>2022-10-23T10:01:23Z</time>
      </trkpt>
      <trkpt lat="46.65374" lon="5.52963">
        <ele>240.52</ele>
        <time>2022-10-23T10:01:29Z</time>
      </trkpt>
      <trkpt lat="46.65374" lon="5.52962">
        <ele>240.52</ele>
        <time>2022-10-23T10:01:30Z</time>
      </trkpt>
      <trkpt lat="46.65376" lon="5.5296">
        <ele>240.53</ele>
        <time>2022-10-23T10:01:33Z</time>
      </trkpt>
      <trkpt lat="46.65377" lon="5.52959">
        <ele>240.54</ele>
        <time>2022-10-23T10:01:34Z</time>
      </trkpt>
      <trkpt lat="46.65385" lon="5.52957">
        <ele>240.55</ele>
        <time>2022-10-23T10:01:53Z</time>
      </trkpt>
      <trkpt lat="46.65385" lon="5.52957">
        <ele>223.71</ele>
        <time>2022-10-23T10:01:54Z</time>
      </trkpt>
    </trkseg>
  </trk>
</gpx>